[[{"header":{"parameterUnit":"m.s-1","parameterCategory":1,"la1":31.0,"la2":29.5877,"lo1":-88.7671,"lo2":-86.6584,"dy":0.0162,"dx":0.0185,"nx":115,"ny":88,"refTime":"2023-10-24T18:00:00:Z","depth":0,"parameterNumber":2,"parameterNumberName":"U-component_of_WINDS"},"data":[0.0,0.0,0.0,0.0,0.0,0.0,0.0,0.0,0.0,0.0,0.0,0.0,0.0,0.0,0.0,0.0,0.0,0.0,0.0,0.0,0.0,0.0,0.0,0.0,0.0,0.0,0.0,0.0,0.0,0.0,0.0,0.0,0.0,0.0,0.0,0.0,0.0,0.0,0.0,0.0,0.0,0.0,0.0,0.0,0.0,0.0,0.0,0.0,0.0,0.0,0.0,0.0,0.0,0.0,0.0,0.0,0.0,0.0,0.0,0.0,0.0,0.0,0.0,0.0,0.0,0.0,0.0,0.0,0.0,0.0,0.0,0.0,0.0,0.0,0.0,0.0,0.0,0.0,0.0,0.0,0.0,0.0,0.0,0.0,0.0,0.0,0.0,0.0,0.0,0.0,0.0,0.0,0.0,0.0,0.0,0.0,0.0,0.0,0.0,0.0,0.0,0.0,0.0,0.0,0.0,0.0,0.0,0.0,0.0,0.0,0.0,0.0,0.0,0.0,0.0,0.0,0.0,0.0,0.0,0.0,0.0,0.0,0.0,0.0,0.0,0.0,0.0,0.0,0.0,0.0,0.0,0.0,0.0,0.0,0.0,0.0,0.0,0.0,0.0,0.0,0.0,0.0,0.0,0.0,0.0,0.0,0.0,0.0,0.0,0.0,0.0,0.0,0.0,0.0,0.0,0.0,0.0,0.0,0.0,0.0,0.0,0.0,0.0,0.0,0.0,0.0,0.0,0.0,0.0,0.0,0.0,0.0,0.0,0.0,0.0,0.0,0.0,0.0,0.0,0.0,0.0,0.0,0.0,0.0,0.0,0.0,0.0,0.0,0.0,0.0,0.0,0.0,0.0,0.0,0.0,0.0,0.0,0.0,0.0,0.0,0.0,0.0,0.0,0.0,0.0,0.0,0.0,0.0,0.0,0.0,0.0,0.0,0.0,0.0,0.0,0.0,0.0,0.0,0.0,0.0,0.0,0.0,0.0,0.0,0.0,0.0,0.0,0.0,0.0,0.0,0.0,0.0,0.0,0.0,0.0,0.0,0.0,0.0,0.0,0.0,0.0,0.0,0.0,0.0,0.0,0.0,0.0,0.0,0.0,0.0,0.0,0.0,0.0,0.0,0.0,0.0,0.0,0.0,0.0,0.0,0.0,0.0,0.0,0.0,0.0,0.0,0.0,0.0,0.0,0.0,0.0,0.0,0.0,0.0,0.0,0.0,0.0,0.0,0.0,0.0,0.0,0.0,0.0,0.0,0.0,0.0,0.0,0.0,0.0,0.0,0.0,0.0,0.0,0.0,0.0,0.0,0.0,0.0,0.0,0.0,0.0,0.0,0.0,0.0,0.0,0.0,0.0,0.0,0.0,0.0,0.0,0.0,0.0,0.0,0.0,0.0,0.0,0.0,0.0,0.0,0.0,0.0,0.0,0.0,0.0,0.0,0.0,0.0,0.0,0.0,0.0,0.0,0.0,0.0,0.0,0.0,0.0,0.0,0.0,0.0,0.0,0.0,0.0,0.0,0.0,0.0,0.0,0.0,0.0,0.0,0.0,0.0,0.0,0.0,0.0,0.0,0.0,0.0,0.0,0.0,0.0,0.0,0.0,0.0,0.0,0.0,0.0,0.0,0.0,0.0,0.0,0.0,0.0,0.0,0.0,0.0,0.0,0.0,0.0,0.0,0.0,0.0,0.0,0.0,0.0,0.0,0.0,0.0,0.0,0.0,0.0,0.0,0.0,0.0,0.0,0.0,0.0,0.0,0.0,0.0,0.0,0.0,0.0,0.0,0.0,0.0,0.0,0.0,0.0,0.0,0.0,0.0,0.0,0.0,0.0,0.0,0.0,0.0,0.0,0.0,0.0,0.0,0.0,0.0,0.0,0.0,0.0,0.0,0.0,0.0,0.0,0.0,0.0,0.0,0.0,0.0,0.0,0.0,0.0,0.0,0.0,0.0,0.0,0.0,0.0,0.0,0.0,0.0,0.0,0.0,0.0,0.0,0.0,0.0,0.0,0.0,0.0,0.0,0.0,0.0,0.0,0.0,0.0,0.0,0.0,0.0,0.0,0.0,0.0,0.0,0.0,0.0,0.0,0.0,0.0,0.0,0.0,0.0,0.0,0.0,0.0,0.0,0.0,0.0,0.0,0.0,0.0,0.0,0.0,0.0,0.0,0.0,0.0,0.0,0.0,0.0,0.0,0.0,0.0,0.0,0.0,0.0,0.0,0.0,0.0,0.0,0.0,0.0,0.0,0.0,0.0,0.0,0.0,0.0,0.0,0.0,0.0,0.0,0.0,0.0,0.0,0.0,0.0,0.0,0.0,0.0,0.0,0.0,0.0,0.0,0.0,0.0,0.0,0.0,0.0,0.0,0.0,0.0,0.0,0.0,0.0,0.0,0.0,0.0,0.0,0.0,0.0,0.0,0.0,0.0,0.0,0.0,0.0,0.0,0.0,0.0,0.0,0.0,0.0,0.0,0.0,0.0,0.0,0.0,0.0,0.0,0.0,0.0,0.0,0.0,0.0,0.0,0.0,0.0,0.0,0.0,0.0,0.0,0.0,0.0,0.0,0.0,0.0,0.0,0.0,0.0,0.0,0.0,0.0,0.0,0.0,0.0,0.0,0.0,0.0,0.0,0.0,0.0,0.0,0.0,0.0,0.0,0.0,0.0,0.0,0.0,0.0,0.0,0.0,0.0,0.0,0.0,0.0,0.0,0.0,0.0,0.0,0.0,0.0,0.0,0.0,0.0,0.0,0.0,0.0,0.0,0.0,0.0,0.0,0.0,0.0,0.0,0.0,0.0,0.0,0.0,0.0,0.0,0.0,0.0,0.0,0.0,0.0,0.0,0.0,0.0,0.0,0.0,0.0,0.0,0.0,0.0,0.0,0.0,0.0,0.0,0.0,0.0,0.0,0.0,0.0,0.0,0.0,0.0,0.0,0.0,0.0,0.0,0.0,0.0,0.0,0.0,0.0,0.0,0.0,0.0,0.0,0.0,0.0,0.0,0.0,0.0,0.0,0.0,0.0,0.0,0.0,0.0,0.0,0.0,0.0,0.0,0.0,0.0,0.0,0.0,0.0,0.0,0.0,0.0,0.0,0.0,0.0,0.0,0.0,0.0,0.0,0.0,0.0,0.0,0.0,0.0,0.0,0.0,0.0,0.0,0.0,0.0,0.0,0.0,0.0,0.0,0.0,0.0,0.0,0.0,0.0,0.0,0.0,0.0,0.0,0.0,0.0,0.0,0.0,0.0,0.0,0.0,0.0,0.0,0.0,0.0,0.0,0.0,0.0,0.0,0.0,0.0,0.0,0.0,0.0,0.0,0.0,0.0,0.0,0.0,0.0,0.0,0.0,0.0,0.0,0.0,0.0,0.0,0.0,0.0,0.0,0.0,0.0,0.0,0.0,0.0,0.0,0.0,0.0,0.0,0.0,0.0,0.0,0.0,0.0,0.0,0.0,0.0,0.0,0.0,0.0,0.0,0.0,0.0,0.0,0.0,0.0,0.0,0.0,0.0,0.0,0.0,0.0,0.0,0.0,0.0,0.0,0.0,0.0,0.0,0.0,0.0,0.0,0.0,0.0,0.0,0.0,0.0,0.0,0.0,0.0,0.0,0.0,0.0,0.0,0.0,0.0,0.0,0.0,0.0,0.0,0.0,0.0,0.0,0.0,0.0,0.0,0.0,0.0,0.0,0.0,0.0,0.0,0.0,0.0,0.0,0.0,0.0,0.0,0.0,0.0,0.0,0.0,0.0,0.0,0.0,0.0,0.0,0.0,0.0,0.0,0.0,0.0,0.0,0.0,0.0,0.0,0.0,0.0,0.0,0.0,0.0,0.0,0.0,0.0,0.0,0.0,0.0,0.0,0.0,0.0,0.0,0.0,0.0,0.0,0.0,0.0,0.0,0.0,0.0,0.0,0.0,0.0,0.0,0.0,0.0,0.0,0.0,0.0,0.0,0.0,0.0,0.0,0.0,0.0,0.0,0.0,0.0,0.0,0.0,0.0,0.0,0.0,0.0,0.0,0.0,0.0,0.0,0.0,0.0,0.0,0.0,0.0,0.0,0.0,0.0,0.0,0.0,0.0,0.0,0.0,0.0,0.0,0.0,0.0,0.0,0.0,0.0,0.0,0.0,0.0,0.0,0.0,0.0,0.0,0.0,0.0,0.0,0.0,0.0,0.0,0.0,0.0,0.0,0.0,0.0,0.0,0.0,0.0,0.0,0.0,0.0,0.0,0.0,0.0,0.0,0.0,0.0,0.0,0.0,-3.0617,0.0,0.0,0.0,0.0,0.0,0.0,0.0,0.0,0.0,0.0,0.0,0.0,0.0,0.0,0.0,0.0,0.0,0.0,0.0,0.0,0.0,0.0,0.0,0.0,0.0,0.0,0.0,0.0,0.0,0.0,0.0,0.0,0.0,0.0,0.0,0.0,0.0,0.0,0.0,0.0,0.0,0.0,0.0,0.0,0.0,0.0,0.0,0.0,0.0,0.0,0.0,0.0,0.0,0.0,0.0,0.0,0.0,0.0,0.0,0.0,0.0,0.0,0.0,0.0,0.0,0.0,0.0,0.0,0.0,0.0,0.0,0.0,0.0,0.0,0.0,0.0,0.0,0.0,0.0,0.0,0.0,0.0,0.0,0.0,0.0,0.0,0.0,0.0,0.0,0.0,0.0,0.0,0.0,0.0,0.0,0.0,0.0,0.0,0.0,0.0,0.0,0.0,0.0,0.0,0.0,0.0,0.0,0.0,0.0,0.0,-3.2275,-3.1831,-3.1449,-3.1057,-3.0617,0.0,0.0,0.0,0.0,0.0,0.0,0.0,0.0,0.0,0.0,0.0,0.0,0.0,0.0,0.0,0.0,0.0,0.0,0.0,0.0,0.0,0.0,0.0,0.0,0.0,0.0,0.0,0.0,0.0,0.0,0.0,0.0,0.0,0.0,0.0,0.0,0.0,0.0,0.0,0.0,0.0,0.0,0.0,0.0,0.0,0.0,0.0,0.0,0.0,0.0,0.0,0.0,0.0,0.0,0.0,0.0,0.0,0.0,0.0,0.0,0.0,0.0,0.0,0.0,0.0,0.0,0.0,0.0,0.0,0.0,0.0,0.0,0.0,0.0,0.0,0.0,0.0,0.0,0.0,0.0,0.0,0.0,0.0,0.0,0.0,0.0,0.0,0.0,0.0,0.0,0.0,0.0,0.0,0.0,0.0,0.0,0.0,0.0,0.0,0.0,0.0,0.0,0.0,0.0,0.0,0.0,0.0,0.0,0.0,0.0,0.0,0.0,-3.2009,-3.1365,-3.0523,0.0,0.0,0.0,0.0,0.0,0.0,0.0,0.0,0.0,0.0,0.0,0.0,0.0,0.0,0.0,0.0,0.0,0.0,0.0,0.0,0.0,0.0,0.0,0.0,0.0,0.0,0.0,0.0,0.0,0.0,0.0,0.0,0.0,0.0,0.0,0.0,0.0,0.0,0.0,0.0,0.0,0.0,0.0,0.0,0.0,0.0,0.0,0.0,0.0,0.0,0.0,0.0,0.0,0.0,0.0,0.0,0.0,0.0,0.0,0.0,0.0,0.0,0.0,0.0,0.0,0.0,0.0,0.0,0.0,0.0,0.0,0.0,0.0,0.0,0.0,0.0,0.0,0.0,0.0,0.0,0.0,0.0,0.0,0.0,0.0,0.0,0.0,0.0,0.0,0.0,0.0,0.0,0.0,0.0,0.0,0.0,0.0,0.0,0.0,0.0,0.0,0.0,0.0,0.0,0.0,0.0,0.0,0.0,0.0,0.0,-3.4239,-3.4142,-3.2555,0.0,-3.0252,0.0,0.0,0.0,0.0,0.0,0.0,0.0,0.0,0.0,0.0,0.0,0.0,0.0,0.0,0.0,0.0,0.0,0.0,0.0,0.0,0.0,0.0,0.0,0.0,0.0,0.0,0.0,0.0,0.0,0.0,0.0,0.0,0.0,0.0,0.0,0.0,0.0,0.0,0.0,0.0,0.0,0.0,0.0,0.0,0.0,0.0,0.0,0.0,0.0,0.0,0.0,0.0,0.0,0.0,0.0,0.0,0.0,0.0,0.0,0.0,0.0,0.0,0.0,0.0,0.0,0.0,0.0,0.0,0.0,0.0,0.0,0.0,0.0,0.0,0.0,0.0,0.0,0.0,0.0,0.0,0.0,0.0,0.0,0.0,0.0,0.0,0.0,0.0,0.0,0.0,0.0,0.0,0.0,0.0,0.0,0.0,0.0,0.0,0.0,0.0,0.0,0.0,0.0,0.0,0.0,0.0,0.0,0.0,0.0,0.0,-3.4725,-3.418,-3.2481,-3.1359,0.0,0.0,0.0,0.0,0.0,0.0,0.0,0.0,0.0,0.0,0.0,0.0,0.0,0.0,0.0,0.0,0.0,0.0,0.0,0.0,0.0,0.0,0.0,0.0,0.0,0.0,0.0,0.0,0.0,0.0,0.0,0.0,0.0,0.0,0.0,0.0,0.0,0.0,0.0,0.0,0.0,0.0,0.0,0.0,0.0,0.0,0.0,0.0,0.0,0.0,0.0,0.0,0.0,0.0,0.0,0.0,0.0,0.0,0.0,0.0,0.0,0.0,0.0,0.0,0.0,0.0,0.0,0.0,0.0,0.0,0.0,0.0,0.0,0.0,0.0,0.0,0.0,0.0,0.0,0.0,0.0,0.0,0.0,0.0,0.0,0.0,0.0,0.0,0.0,0.0,0.0,0.0,0.0,0.0,0.0,0.0,0.0,0.0,0.0,0.0,0.0,0.0,0.0,0.0,0.0,0.0,0.0,0.0,0.0,0.0,-3.5321,-3.4848,-3.3922,-3.2748,-3.184,-3.1268,0.0,0.0,0.0,0.0,0.0,0.0,0.0,0.0,0.0,0.0,0.0,0.0,0.0,0.0,0.0,0.0,0.0,0.0,0.0,0.0,0.0,0.0,0.0,0.0,0.0,0.0,0.0,0.0,0.0,0.0,0.0,0.0,0.0,0.0,0.0,0.0,0.0,0.0,0.0,0.0,0.0,0.0,0.0,0.0,0.0,0.0,0.0,0.0,0.0,0.0,0.0,0.0,0.0,0.0,0.0,0.0,0.0,0.0,0.0,0.0,0.0,0.0,0.0,0.0,0.0,0.0,0.0,0.0,0.0,0.0,0.0,0.0,0.0,0.0,0.0,0.0,0.0,0.0,0.0,0.0,0.0,0.0,0.0,0.0,0.0,0.0,0.0,0.0,0.0,0.0,0.0,0.0,0.0,0.0,0.0,0.0,0.0,0.0,0.0,0.0,0.0,0.0,0.0,0.0,0.0,0.0,0.0,0.0,-3.5289,-3.5119,-3.4608,-3.3757,-3.3643,-3.2748,0.0,0.0,0.0,0.0,0.0,0.0,0.0,0.0,0.0,0.0,0.0,0.0,0.0,0.0,0.0,0.0,0.0,0.0,0.0,0.0,0.0,0.0,0.0,0.0,0.0,0.0,0.0,0.0,0.0,0.0,0.0,0.0,0.0,0.0,0.0,0.0,0.0,0.0,0.0,0.0,0.0,0.0,0.0,0.0,0.0,0.0,0.0,0.0,0.0,0.0,0.0,0.0,0.0,0.0,0.0,0.0,0.0,0.0,0.0,0.0,0.0,0.0,0.0,0.0,0.0,0.0,0.0,0.0,0.0,0.0,0.0,0.0,0.0,0.0,0.0,0.0,0.0,0.0,0.0,0.0,0.0,0.0,0.0,0.0,0.0,0.0,0.0,0.0,0.0,0.0,0.0,0.0,0.0,0.0,0.0,0.0,0.0,0.0,0.0,0.0,0.0,0.0,0.0,0.0,0.0,0.0,0.0,0.0,0.0,-3.4916,-3.4793,-3.46,-3.4278,-3.3731,-3.3116,0.0,0.0,0.0,0.0,0.0,0.0,0.0,0.0,0.0,0.0,0.0,0.0,0.0,0.0,0.0,0.0,0.0,0.0,0.0,0.0,0.0,0.0,0.0,0.0,0.0,0.0,0.0,0.0,0.0,0.0,0.0,0.0,0.0,0.0,0.0,0.0,0.0,0.0,0.0,0.0,0.0,0.0,0.0,0.0,0.0,0.0,0.0,0.0,0.0,0.0,0.0,0.0,0.0,0.0,0.0,0.0,0.0,0.0,0.0,0.0,0.0,0.0,0.0,0.0,0.0,0.0,0.0,0.0,0.0,0.0,0.0,0.0,0.0,0.0,0.0,0.0,0.0,0.0,0.0,0.0,0.0,0.0,0.0,0.0,0.0,0.0,0.0,0.0,0.0,0.0,0.0,0.0,0.0,0.0,0.0,0.0,0.0,0.0,0.0,0.0,0.0,0.0,0.0,0.0,0.0,0.0,0.0,0.0,0.0,-3.4556,0.0,-3.4509,-3.4528,-3.3974,-3.3543,0.0,0.0,0.0,0.0,0.0,0.0,0.0,0.0,0.0,0.0,0.0,0.0,0.0,0.0,0.0,0.0,0.0,0.0,0.0,0.0,0.0,0.0,0.0,0.0,0.0,0.0,0.0,0.0,0.0,0.0,0.0,0.0,0.0,0.0,0.0,0.0,0.0,0.0,0.0,0.0,0.0,0.0,0.0,0.0,0.0,0.0,0.0,0.0,0.0,0.0,0.0,0.0,0.0,0.0,0.0,0.0,0.0,0.0,0.0,0.0,0.0,0.0,0.0,0.0,0.0,0.0,0.0,0.0,0.0,0.0,0.0,0.0,0.0,0.0,0.0,0.0,0.0,0.0,0.0,0.0,0.0,0.0,0.0,0.0,0.0,0.0,0.0,0.0,0.0,0.0,0.0,0.0,0.0,0.0,0.0,0.0,0.0,0.0,0.0,0.0,0.0,0.0,0.0,0.0,0.0,0.0,0.0,0.0,-3.4473,-3.4221,-3.4328,-3.4416,-3.4386,-3.4367,-3.4012,0.0,0.0,0.0,0.0,0.0,0.0,0.0,0.0,0.0,0.0,0.0,0.0,0.0,0.0,0.0,0.0,0.0,0.0,0.0,0.0,0.0,0.0,0.0,0.0,0.0,0.0,0.0,0.0,0.0,0.0,0.0,0.0,0.0,0.0,0.0,0.0,0.0,0.0,0.0,0.0,0.0,0.0,0.0,0.0,0.0,0.0,0.0,0.0,0.0,0.0,0.0,0.0,0.0,0.0,0.0,0.0,0.0,0.0,0.0,0.0,0.0,0.0,0.0,0.0,0.0,0.0,0.0,0.0,0.0,0.0,0.0,0.0,0.0,0.0,0.0,0.0,0.0,0.0,0.0,0.0,0.0,0.0,0.0,0.0,0.0,0.0,0.0,0.0,0.0,0.0,0.0,0.0,0.0,0.0,0.0,0.0,0.0,0.0,0.0,0.0,0.0,0.0,0.0,0.0,0.0,0.0,0.0,0.0,0.0,-3.4216,-3.4245,-3.4257,-3.4257,-3.4257,-3.4127,0.0,0.0,0.0,0.0,0.0,0.0,0.0,0.0,0.0,0.0,0.0,0.0,0.0,0.0,0.0,0.0,0.0,0.0,0.0,0.0,0.0,0.0,0.0,0.0,0.0,0.0,0.0,0.0,0.0,0.0,0.0,0.0,0.0,0.0,0.0,0.0,0.0,0.0,0.0,0.0,0.0,0.0,0.0,0.0,0.0,0.0,0.0,0.0,0.0,0.0,0.0,0.0,0.0,0.0,0.0,0.0,0.0,0.0,0.0,0.0,0.0,0.0,0.0,0.0,0.0,0.0,0.0,0.0,0.0,0.0,0.0,0.0,0.0,0.0,0.0,0.0,0.0,0.0,0.0,0.0,0.0,0.0,0.0,0.0,0.0,0.0,0.0,0.0,0.0,0.0,0.0,0.0,0.0,0.0,0.0,0.0,0.0,0.0,0.0,0.0,0.0,0.0,0.0,0.0,0.0,0.0,0.0,0.0,0.0,-3.4124,-3.4005,-3.4011,-3.4086,-3.4011,-3.4011,-3.4049,0.0,0.0,0.0,0.0,0.0,0.0,0.0,0.0,0.0,0.0,0.0,0.0,0.0,0.0,0.0,0.0,0.0,0.0,0.0,0.0,0.0,0.0,0.0,0.0,0.0,0.0,0.0,0.0,0.0,0.0,0.0,0.0,0.0,0.0,0.0,0.0,0.0,0.0,0.0,0.0,0.0,0.0,0.0,0.0,0.0,0.0,0.0,0.0,0.0,0.0,0.0,0.0,0.0,0.0,0.0,0.0,0.0,0.0,0.0,0.0,0.0,0.0,0.0,0.0,0.0,0.0,0.0,0.0,0.0,0.0,0.0,0.0,0.0,0.0,0.0,0.0,0.0,0.0,0.0,0.0,0.0,0.0,0.0,0.0,0.0,0.0,0.0,0.0,0.0,0.0,0.0,0.0,0.0,0.0,0.0,0.0,0.0,0.0,0.0,0.0,0.0,0.0,0.0,0.0,0.0,0.0,0.0,0.0,-3.3959,-3.3684,-3.3657,-3.3881,-3.3739,-3.3712,0.0,0.0,0.0,0.0,0.0,0.0,0.0,0.0,0.0,0.0,0.0,0.0,0.0,0.0,0.0,0.0,0.0,0.0,0.0,0.0,0.0,0.0,0.0,0.0,0.0,0.0,0.0,0.0,0.0,0.0,0.0,0.0,0.0,0.0,0.0,0.0,0.0,0.0,0.0,0.0,0.0,0.0,0.0,0.0,0.0,0.0,0.0,0.0,0.0,0.0,0.0,0.0,0.0,0.0,0.0,0.0,0.0,0.0,0.0,0.0,0.0,0.0,0.0,0.0,0.0,0.0,0.0,0.0,0.0,0.0,0.0,0.0,0.0,0.0,0.0,0.0,0.0,0.0,0.0,0.0,0.0,0.0,0.0,0.0,0.0,0.0,0.0,0.0,0.0,0.0,0.0,0.0,0.0,0.0,0.0,0.0,0.0,0.0,0.0,0.0,0.0,0.0,0.0,0.0,0.0,0.0,0.0,0.0,0.0,-3.348,-3.2923,-3.3016,-3.3788,-3.3991,-3.3921,0.0,0.0,0.0,0.0,0.0,0.0,0.0,0.0,0.0,0.0,0.0,0.0,0.0,0.0,0.0,0.0,0.0,0.0,0.0,0.0,0.0,0.0,0.0,0.0,0.0,0.0,0.0,0.0,0.0,0.0,0.0,0.0,0.0,0.0,0.0,0.0,0.0,0.0,0.0,0.0,0.0,0.0,0.0,0.0,0.0,0.0,0.0,0.0,0.0,0.0,0.0,0.0,0.0,0.0,0.0,0.0,0.0,0.0,0.0,0.0,0.0,0.0,0.0,0.0,0.0,0.0,0.0,0.0,0.0,0.0,0.0,0.0,0.0,0.0,0.0,0.0,0.0,0.0,0.0,0.0,0.0,0.0,0.0,0.0,0.0,0.0,0.0,0.0,0.0,0.0,0.0,0.0,0.0,0.0,0.0,0.0,0.0,0.0,0.0,0.0,0.0,0.0,0.0,0.0,0.0,0.0,0.0,0.0,-3.3258,-3.3093,-3.2749,-3.2779,-3.3291,-3.3354,-3.3357,0.0,0.0,0.0,0.0,0.0,0.0,0.0,0.0,0.0,0.0,0.0,0.0,0.0,0.0,0.0,0.0,0.0,0.0,0.0,0.0,0.0,0.0,0.0,0.0,0.0,0.0,0.0,0.0,0.0,0.0,0.0,0.0,0.0,0.0,0.0,0.0,0.0,0.0,0.0,0.0,0.0,0.0,0.0,0.0,0.0,0.0,0.0,0.0,0.0,0.0,0.0,0.0,0.0,0.0,0.0,0.0,0.0,0.0,0.0,0.0,0.0,0.0,0.0,0.0,0.0,0.0,0.0,0.0,0.0,0.0,0.0,0.0,0.0,0.0,0.0,0.0,0.0,0.0,0.0,0.0,0.0,0.0,0.0,0.0,0.0,0.0,0.0,0.0,0.0,0.0,0.0,0.0,0.0,0.0,0.0,0.0,0.0,0.0,0.0,0.0,0.0,0.0,0.0,0.0,0.0,0.0,0.0,0.0,-3.3105,-3.2731,-3.2761,-3.2699,-3.2556,-3.242,-3.2453,0.0,0.0,0.0,0.0,0.0,0.0,0.0,0.0,0.0,0.0,0.0,0.0,0.0,0.0,0.0,0.0,0.0,0.0,0.0,0.0,0.0,0.0,0.0,0.0,0.0,0.0,0.0,0.0,0.0,0.0,0.0,0.0,0.0,0.0,0.0,0.0,0.0,0.0,0.0,0.0,0.0,0.0,0.0,0.0,0.0,0.0,0.0,0.0,0.0,0.0,0.0,0.0,0.0,0.0,0.0,0.0,0.0,0.0,0.0,0.0,0.0,0.0,0.0,0.0,0.0,0.0,0.0,0.0,0.0,0.0,0.0,0.0,0.0,0.0,0.0,0.0,0.0,0.0,0.0,0.0,0.0,0.0,0.0,0.0,0.0,0.0,0.0,0.0,0.0,0.0,0.0,0.0,0.0,0.0,0.0,0.0,0.0,0.0,0.0,0.0,0.0,0.0,0.0,0.0,0.0,0.0,0.0,0.0,-3.2486,-3.2266,-3.2109,-3.2091,-3.2214,-3.2634,-3.2697,0.0,0.0,0.0,0.0,0.0,0.0,0.0,0.0,0.0,0.0,0.0,0.0,0.0,0.0,0.0,0.0,0.0,0.0,0.0,0.0,0.0,0.0,0.0,0.0,0.0,0.0,0.0,0.0,0.0,0.0,0.0,0.0,0.0,0.0,0.0,0.0,0.0,0.0,0.0,0.0,0.0,0.0,0.0,0.0,0.0,0.0,0.0,0.0,-2.6911,0.0,0.0,0.0,0.0,0.0,0.0,0.0,0.0,0.0,0.0,0.0,0.0,0.0,0.0,0.0,0.0,0.0,0.0,0.0,0.0,0.0,0.0,0.0,0.0,0.0,0.0,0.0,0.0,0.0,0.0,0.0,0.0,0.0,0.0,0.0,0.0,0.0,0.0,0.0,0.0,0.0,0.0,0.0,0.0,0.0,0.0,0.0,0.0,0.0,0.0,0.0,0.0,0.0,0.0,0.0,0.0,0.0,0.0,0.0,-3.2197,-3.1965,-3.1838,-3.1838,-3.1982,-3.2266,-3.2317,0.0,0.0,0.0,0.0,0.0,0.0,0.0,0.0,0.0,0.0,0.0,0.0,0.0,0.0,0.0,0.0,0.0,0.0,0.0,0.0,0.0,0.0,0.0,0.0,0.0,0.0,0.0,0.0,0.0,0.0,0.0,0.0,0.0,0.0,0.0,0.0,0.0,0.0,0.0,0.0,0.0,0.0,0.0,0.0,0.0,0.0,0.0,0.0,0.0,0.0,0.0,0.0,0.0,0.0,0.0,0.0,0.0,0.0,0.0,0.0,0.0,0.0,0.0,0.0,0.0,0.0,0.0,0.0,0.0,0.0,0.0,0.0,0.0,0.0,0.0,0.0,0.0,0.0,0.0,0.0,0.0,0.0,0.0,0.0,0.0,0.0,0.0,0.0,0.0,0.0,0.0,0.0,0.0,0.0,0.0,0.0,0.0,0.0,0.0,0.0,0.0,0.0,0.0,0.0,0.0,0.0,0.0,-3.2144,-3.1984,-3.1781,-3.1763,-3.1781,-3.1764,-3.18,-3.18,-3.18,0.0,0.0,0.0,0.0,0.0,0.0,0.0,0.0,0.0,0.0,0.0,0.0,0.0,0.0,0.0,0.0,0.0,0.0,0.0,0.0,0.0,0.0,0.0,0.0,0.0,0.0,0.0,0.0,0.0,0.0,0.0,0.0,0.0,0.0,0.0,0.0,0.0,0.0,-2.8432,-2.8318,0.0,0.0,0.0,0.0,0.0,0.0,0.0,0.0,-2.7401,0.0,0.0,0.0,0.0,0.0,0.0,0.0,0.0,0.0,0.0,0.0,0.0,0.0,0.0,0.0,0.0,0.0,0.0,0.0,0.0,0.0,0.0,0.0,0.0,0.0,0.0,0.0,0.0,0.0,0.0,0.0,0.0,0.0,0.0,0.0,0.0,0.0,0.0,0.0,0.0,0.0,0.0,0.0,0.0,0.0,0.0,0.0,0.0,0.0,0.0,0.0,0.0,0.0,0.0,0.0,0.0,-3.1728,-3.1693,-3.1635,-3.1555,-3.1615,-3.1635,-3.1635,-3.1746,-3.18,-3.18,0.0,0.0,0.0,0.0,0.0,0.0,0.0,0.0,0.0,0.0,0.0,0.0,0.0,0.0,0.0,0.0,0.0,0.0,0.0,0.0,0.0,0.0,0.0,0.0,0.0,0.0,0.0,0.0,0.0,0.0,0.0,0.0,0.0,0.0,0.0,0.0,0.0,0.0,0.0,-2.8209,-2.8196,0.0,0.0,0.0,0.0,0.0,0.0,0.0,0.0,-2.5833,0.0,0.0,0.0,0.0,0.0,0.0,0.0,0.0,0.0,0.0,0.0,0.0,0.0,0.0,0.0,0.0,0.0,0.0,0.0,0.0,0.0,0.0,0.0,0.0,0.0,0.0,0.0,0.0,0.0,0.0,0.0,0.0,0.0,0.0,0.0,0.0,0.0,0.0,0.0,0.0,0.0,0.0,0.0,0.0,0.0,0.0,0.0,0.0,0.0,0.0,0.0,0.0,0.0,0.0,0.0,-3.154,-3.1502,-3.1464,-3.1481,-3.1519,-3.1557,-3.1557,-3.1614,-3.1651,0.0,0.0,0.0,0.0,0.0,0.0,0.0,0.0,0.0,0.0,0.0,0.0,0.0,0.0,0.0,0.0,0.0,0.0,0.0,0.0,0.0,0.0,0.0,0.0,0.0,0.0,0.0,0.0,0.0,0.0,0.0,0.0,0.0,0.0,0.0,0.0,0.0,0.0,0.0,0.0,-2.8196,-2.8109,-2.7872,0.0,0.0,0.0,0.0,0.0,0.0,-2.7253,-2.6626,0.0,0.0,0.0,0.0,0.0,0.0,0.0,0.0,0.0,0.0,0.0,0.0,0.0,0.0,0.0,0.0,0.0,0.0,0.0,0.0,0.0,0.0,0.0,0.0,0.0,0.0,0.0,0.0,0.0,0.0,0.0,0.0,0.0,0.0,0.0,0.0,0.0,0.0,0.0,0.0,0.0,0.0,0.0,0.0,0.0,0.0,0.0,0.0,0.0,0.0,0.0,0.0,0.0,0.0,0.0,-3.1443,-3.1351,-3.1332,-3.144,-3.146,-3.1462,-3.1462,-3.1404,-3.1406,0.0,0.0,0.0,0.0,0.0,0.0,0.0,0.0,0.0,0.0,0.0,0.0,0.0,0.0,0.0,0.0,0.0,0.0,0.0,0.0,0.0,0.0,0.0,0.0,0.0,0.0,0.0,0.0,0.0,0.0,0.0,0.0,0.0,0.0,0.0,0.0,0.0,0.0,0.0,0.0,0.0,-2.7901,-2.7557,-2.7829,0.0,0.0,0.0,0.0,-2.7789,-2.755,0.0,0.0,0.0,0.0,0.0,0.0,0.0,0.0,0.0,0.0,0.0,0.0,0.0,0.0,0.0,0.0,0.0,0.0,0.0,0.0,0.0,0.0,0.0,0.0,0.0,0.0,0.0,0.0,0.0,0.0,0.0,0.0,0.0,0.0,0.0,0.0,0.0,0.0,0.0,0.0,0.0,0.0,0.0,0.0,0.0,0.0,0.0,0.0,0.0,0.0,0.0,0.0,0.0,0.0,0.0,0.0,-3.1315,-3.1312,-3.1274,-3.1247,-3.131,-3.1315,-3.1332,-3.1041,-3.1081,0.0,0.0,0.0,0.0,0.0,0.0,0.0,0.0,0.0,0.0,0.0,0.0,0.0,0.0,0.0,0.0,0.0,0.0,0.0,0.0,0.0,0.0,0.0,0.0,0.0,0.0,0.0,0.0,0.0,0.0,0.0,0.0,0.0,0.0,0.0,0.0,0.0,0.0,0.0,0.0,0.0,-2.7554,-2.7492,-2.7539,-2.742,0.0,0.0,-2.697,-2.6657,-2.6331,0.0,0.0,0.0,0.0,0.0,0.0,0.0,0.0,0.0,0.0,0.0,0.0,0.0,0.0,0.0,0.0,0.0,0.0,0.0,0.0,0.0,0.0,0.0,0.0,0.0,0.0,0.0,0.0,0.0,0.0,0.0,0.0,0.0,0.0,0.0,0.0,0.0,0.0,0.0,0.0,0.0,0.0,0.0,0.0,0.0,0.0,0.0,0.0,0.0,0.0,0.0,0.0,0.0,0.0,0.0,-3.0885,-3.1232,-3.0922,-3.0898,-3.119,-3.1232,-3.1117,-3.0845,-3.0686,-3.0744,0.0,0.0,0.0,0.0,0.0,0.0,0.0,0.0,0.0,0.0,0.0,0.0,0.0,0.0,0.0,0.0,0.0,0.0,0.0,0.0,0.0,0.0,0.0,0.0,0.0,0.0,0.0,0.0,0.0,0.0,0.0,0.0,0.0,0.0,0.0,0.0,0.0,0.0,0.0,0.0,0.0,0.0,-2.7206,-2.7361,0.0,0.0,0.0,-2.692,-2.6707,0.0,0.0,0.0,0.0,0.0,0.0,0.0,0.0,0.0,0.0,0.0,0.0,0.0,0.0,0.0,0.0,0.0,0.0,0.0,0.0,0.0,0.0,0.0,0.0,0.0,0.0,0.0,0.0,0.0,0.0,0.0,0.0,0.0,0.0,0.0,0.0,0.0,0.0,0.0,0.0,0.0,0.0,0.0,0.0,0.0,0.0,0.0,0.0,0.0,0.0,0.0,0.0,0.0,0.0,0.0,0.0,0.0,-3.0955,-3.0414,-3.0314,-3.072,-3.0781,-3.0638,-3.0251,-3.0161,0.0,0.0,0.0,0.0,0.0,0.0,0.0,0.0,0.0,0.0,0.0,0.0,0.0,0.0,0.0,0.0,0.0,0.0,0.0,0.0,0.0,0.0,0.0,0.0,0.0,0.0,0.0,-2.6573,0.0,0.0,0.0,0.0,0.0,0.0,0.0,0.0,0.0,0.0,0.0,0.0,0.0,0.0,-2.7175,-2.679,-2.6966,-2.6902,0.0,0.0,-2.6757,-2.659,-2.6367,-2.6225,0.0,0.0,0.0,0.0,0.0,0.0,0.0,0.0,0.0,0.0,0.0,0.0,0.0,0.0,0.0,0.0,0.0,0.0,0.0,0.0,0.0,0.0,0.0,0.0,0.0,0.0,0.0,0.0,0.0,0.0,0.0,0.0,0.0,0.0,0.0,0.0,0.0,0.0,0.0,0.0,0.0,0.0,0.0,0.0,0.0,0.0,0.0,0.0,0.0,0.0,0.0,0.0,0.0,0.0,-3.033,-3.0335,-2.9892,-2.9607,-2.954,-2.9651,-2.9629,-2.9473,-2.9166,-2.9219,0.0,0.0,0.0,0.0,0.0,0.0,0.0,0.0,0.0,0.0,0.0,0.0,0.0,0.0,0.0,0.0,0.0,0.0,0.0,0.0,0.0,0.0,0.0,0.0,0.0,0.0,0.0,0.0,0.0,0.0,0.0,0.0,0.0,0.0,0.0,0.0,0.0,0.0,0.0,0.0,0.0,-2.6624,-2.6282,-2.6264,-2.6157,0.0,-2.5995,-2.6122,-2.5733,-2.5675,-2.5712,-2.5899,0.0,0.0,0.0,0.0,0.0,0.0,0.0,0.0,0.0,0.0,0.0,0.0,0.0,0.0,0.0,0.0,0.0,0.0,0.0,0.0,0.0,0.0,0.0,0.0,0.0,0.0,0.0,0.0,0.0,0.0,0.0,0.0,0.0,0.0,0.0,0.0,0.0,0.0,0.0,0.0,0.0,0.0,0.0,0.0,0.0,0.0,0.0,0.0,0.0,0.0,0.0,0.0,0.0,-2.9361,-2.9739,-2.9203,-2.9065,-2.9368,-2.9451,-2.9316,-2.8973,-2.8826,-2.8865,0.0,0.0,0.0,0.0,0.0,0.0,0.0,0.0,0.0,0.0,0.0,0.0,0.0,0.0,0.0,0.0,0.0,0.0,0.0,0.0,0.0,0.0,0.0,0.0,0.0,0.0,0.0,0.0,-2.5795,-2.5832,-2.5941,0.0,0.0,0.0,0.0,0.0,0.0,0.0,0.0,0.0,0.0,-2.6333,-2.6211,-2.6177,0.0,0.0,-2.5941,-2.6068,-2.5656,-2.5637,-2.568,-2.5772,-2.5651,0.0,0.0,0.0,0.0,0.0,0.0,0.0,0.0,0.0,0.0,0.0,0.0,0.0,0.0,0.0,0.0,0.0,0.0,0.0,0.0,0.0,0.0,0.0,0.0,0.0,0.0,0.0,0.0,0.0,0.0,0.0,0.0,0.0,0.0,0.0,0.0,0.0,0.0,0.0,0.0,0.0,0.0,0.0,0.0,0.0,0.0,0.0,0.0,0.0,0.0,0.0,0.0,-2.8709,-2.9111,-2.8567,-2.8463,-2.8857,-2.8919,-2.8756,-2.8391,-2.8415,-2.8439,0.0,0.0,0.0,0.0,0.0,0.0,0.0,0.0,0.0,0.0,0.0,0.0,0.0,0.0,0.0,0.0,0.0,0.0,0.0,0.0,0.0,0.0,0.0,0.0,0.0,0.0,0.0,0.0,-2.5343,-2.5419,-2.5551,0.0,0.0,0.0,0.0,0.0,0.0,0.0,0.0,0.0,0.0,-2.6104,-2.6049,-2.6031,-2.5905,-2.5654,-2.5846,-2.5905,-2.5637,-2.564,-2.5663,-2.5701,0.0,0.0,0.0,0.0,0.0,0.0,0.0,0.0,0.0,0.0,0.0,0.0,0.0,0.0,0.0,0.0,0.0,0.0,0.0,0.0,0.0,0.0,0.0,0.0,0.0,0.0,0.0,-2.7357,0.0,0.0,-2.751,0.0,0.0,0.0,0.0,0.0,0.0,0.0,0.0,0.0,0.0,0.0,0.0,0.0,0.0,0.0,0.0,0.0,0.0,0.0,0.0,0.0,0.0,-2.8487,-2.8527,-2.8057,-2.779,-2.766,-2.7775,-2.779,-2.765,-2.775,-2.784,-2.7825,0.0,0.0,0.0,0.0,0.0,0.0,0.0,0.0,0.0,0.0,0.0,0.0,0.0,0.0,0.0,0.0,0.0,0.0,0.0,0.0,0.0,0.0,0.0,0.0,0.0,0.0,-2.4985,-2.5182,-2.5294,0.0,0.0,0.0,0.0,0.0,0.0,0.0,0.0,0.0,-2.6046,-2.601,-2.5899,-2.5637,-2.56,-2.5635,-2.5597,-2.5616,-2.5616,-2.5597,-2.5597,-2.5637,0.0,0.0,0.0,0.0,0.0,0.0,0.0,0.0,0.0,0.0,0.0,0.0,0.0,0.0,0.0,0.0,0.0,0.0,0.0,0.0,0.0,0.0,0.0,0.0,0.0,0.0,0.0,-2.7258,-2.7258,0.0,0.0,0.0,0.0,0.0,0.0,0.0,0.0,0.0,0.0,0.0,-2.7207,-2.7357,0.0,0.0,0.0,0.0,0.0,0.0,0.0,0.0,0.0,0.0,0.0,0.0,-2.791,-2.7885,-2.7775,-2.765,-2.76,-2.7665,-2.765,-2.76,-2.765,-2.7715,-2.779,0.0,0.0,0.0,0.0,0.0,0.0,0.0,0.0,0.0,0.0,0.0,0.0,0.0,0.0,0.0,0.0,0.0,0.0,0.0,0.0,0.0,0.0,0.0,0.0,0.0,-2.4426,0.0,0.0,0.0,0.0,0.0,0.0,0.0,0.0,0.0,0.0,0.0,-2.5629,-2.5359,-2.5451,-2.5489,-2.541,-2.5521,-2.5597,0.0,0.0,0.0,0.0,0.0,0.0,0.0,0.0,0.0,0.0,0.0,0.0,0.0,0.0,-2.3901,-2.348,-2.3234,-2.311,-2.3302,0.0,0.0,0.0,0.0,0.0,0.0,0.0,0.0,0.0,0.0,0.0,0.0,0.0,0.0,-2.7185,-2.7403,-2.7416,0.0,0.0,0.0,0.0,0.0,0.0,0.0,0.0,-2.7093,-2.7052,-2.7067,-2.7052,-2.7078,-2.7104,-2.7181,-2.7448,0.0,0.0,0.0,0.0,0.0,0.0,0.0,0.0,-2.7585,-2.7585,-2.7585,-2.7585,-2.7585,-2.7585,-2.7585,-2.7585,-2.7585,-2.7625,-2.774,-2.7725,-2.7725,0.0,0.0,0.0,0.0,0.0,0.0,0.0,0.0,0.0,0.0,0.0,0.0,0.0,0.0,0.0,0.0,0.0,0.0,0.0,0.0,0.0,0.0,0.0,-2.4255,0.0,0.0,0.0,0.0,0.0,0.0,0.0,0.0,0.0,-2.5511,-2.5381,-2.5188,-2.5025,-2.5103,-2.5217,-2.5294,0.0,0.0,0.0,0.0,0.0,0.0,0.0,-2.5567,-2.5567,-2.5696,-2.5768,-2.568,-2.5637,-2.5473,-2.5058,0.0,0.0,-2.4034,-2.3617,-2.3472,-2.3652,-2.3145,-2.275,-2.2924,-2.2851,-2.278,0.0,0.0,0.0,0.0,-2.6714,0.0,0.0,0.0,-2.6731,-2.7122,0.0,-2.7752,0.0,0.0,0.0,0.0,-2.8145,-2.7993,0.0,0.0,-2.696,-2.6852,-2.6893,-2.6907,-2.6931,-2.7062,-2.7207,-2.727,-2.7296,-2.7281,0.0,0.0,0.0,0.0,0.0,0.0,-2.7585,-2.7585,-2.7585,-2.7585,-2.7585,-2.7585,-2.7585,-2.7585,-2.7585,-2.7585,-2.7585,-2.76,-2.76,-2.7585,-2.76,0.0,0.0,0.0,0.0,0.0,0.0,0.0,0.0,0.0,0.0,0.0,0.0,0.0,0.0,0.0,0.0,0.0,0.0,0.0,0.0,-2.4202,0.0,0.0,0.0,0.0,0.0,0.0,0.0,0.0,0.0,-2.4798,-2.5281,-2.5135,-2.4985,-2.5033,0.0,0.0,0.0,0.0,-2.508,-2.5288,-2.5171,-2.5053,-2.51,-2.5258,-2.5374,-2.541,0.0,0.0,-2.561,-2.5594,-2.5578,-2.5578,-2.5546,-2.5144,-2.3836,-2.3851,-2.4,-2.4016,-2.3949,-2.3966,-2.395,-2.3605,-2.3435,-2.6466,0.0,0.0,0.0,0.0,-2.6428,-2.6384,-2.6184,-2.6367,-2.6536,-2.6734,-2.74,0.0,0.0,0.0,0.0,0.0,0.0,-2.8359,-2.8226,-2.8171,-2.8171,-2.8157,-2.8171,-2.8171,-2.8226,-2.8239,-2.8322,-2.8404,-2.8322,-2.7988,-2.7452,0.0,0.0,0.0,0.0,-2.7585,-2.7585,-2.7585,-2.7585,-2.7585,-2.7585,-2.7585,-2.7585,-2.7585,-2.7585,-2.7585,-2.7585,-2.7585,-2.7585,-2.7585,0.0,0.0,0.0,0.0,0.0,0.0,0.0,0.0,0.0,0.0,0.0,0.0,0.0,0.0,0.0,0.0,0.0,0.0,0.0,-2.4187,-2.4202,-2.4202,0.0,0.0,0.0,0.0,0.0,0.0,0.0,0.0,0.0,-2.5534,-2.4957,-2.4771,0.0,0.0,-2.4979,-2.569,-2.5342,-2.5179,-2.5726,-2.5749,0.0,-2.6351,-2.6472,-2.6592,-2.6757,-2.6407,-2.6054,-2.5911,-2.5512,-2.5162,-2.5178,-2.5294,-2.5246,-2.4896,-2.4549,-2.4384,-2.4336,-2.3977,-2.3651,-2.3634,-2.3548,-2.3512,-2.603,-2.5832,-2.6909,-2.6855,-2.6007,-2.6252,-2.6188,-2.5974,-2.6104,-2.6284,-2.6559,-2.7095,-2.7468,-2.7789,-2.8272,0.0,0.0,0.0,-2.867,-2.8694,-2.8694,-2.8694,-2.8694,-2.8694,-2.8694,-2.8709,-2.8765,-2.8808,-2.8821,-2.8793,-2.851,-2.8019,0.0,-2.8054,-2.8196,-2.8196,-2.8196,-2.8181,-2.8196,-2.8062,-2.7809,-2.7556,-2.7488,-2.7499,-2.7473,-2.7488,-2.7499,-2.7539,-2.7499,-2.7448,-2.7534,-2.7575,0.0,0.0,0.0,0.0,0.0,0.0,0.0,0.0,0.0,0.0,0.0,-2.3982,-2.3982,0.0,0.0,0.0,-2.3961,-2.4061,-2.4319,-2.4392,0.0,0.0,0.0,0.0,0.0,0.0,0.0,-2.5224,-2.5487,-2.5749,-2.5939,-2.5497,-2.5352,-2.5905,-2.561,-2.5565,-2.6183,0.0,-2.5733,-2.6219,-2.6203,-2.6301,-2.6707,-2.6835,-2.6944,-2.7201,-2.6893,-2.6549,-2.6388,-2.6056,-2.5803,-2.5776,-2.5687,-2.5576,-2.5556,-2.5099,-2.4753,-2.4883,-2.4612,-2.4337,-2.4321,-2.4338,-2.4338,-2.5444,-2.5574,-2.7219,-2.7126,-2.5933,-2.6492,-2.6414,-2.5863,-2.5863,-2.622,-2.6799,-2.6867,-2.7324,-2.7986,-2.8117,0.0,-2.8643,-2.8657,-2.872,-2.8826,-2.884,-2.8869,-2.8869,-2.8869,-2.8869,-2.8854,-2.8982,-2.8982,-2.8869,-2.8996,-2.9038,-2.9023,-2.9038,-2.9063,-2.9085,-2.9098,-2.9112,-2.9098,-2.9098,-2.8775,-2.8201,-2.7579,-2.7318,-2.745,-2.7288,-2.7273,-2.7376,-2.7376,-2.7325,-2.7207,-2.7448,-2.7514,-2.7401,0.0,0.0,0.0,0.0,0.0,0.0,0.0,0.0,0.0,0.0,0.0,0.0,0.0,0.0,0.0,-2.4027,0.0,-2.4657,-2.4807,0.0,0.0,0.0,-2.6008,-2.597,-2.6008,-2.6062,-2.6184,0.0,0.0,-2.6472,-2.6541,-2.6549,-2.6572,-2.6479,-2.65,-2.6747,-2.6552,-2.6485,-2.671,-2.6592,-2.651,-2.6709,-2.686,-2.7061,-2.7183,-2.7076,-2.7044,-2.7007,-2.6897,-2.6912,-2.6828,-2.6435,-2.6046,-2.6067,-2.5535,-2.5183,-2.5529,-2.554,-2.5511,-2.5408,-2.5392,-2.5376,-2.6513,-2.655,-2.7005,-2.6492,-2.5465,-2.5604,-2.5581,-2.5465,-2.5606,-2.5746,-2.5931,-2.6607,-2.7291,-2.7986,-2.8019,-2.836,-2.8921,-2.9073,-2.9419,-2.991,-3.0058,-3.0147,-3.0162,-3.0147,-3.0147,-3.0147,-3.0191,-3.0177,-3.0147,-3.0191,-3.0177,-3.0191,-3.0191,-2.9842,-2.9142,-2.9112,-2.9112,-2.9112,-2.9112,-2.9039,-2.8876,-2.8216,-2.7904,-2.793,-2.7473,-2.7233,-2.7258,-2.7233,-2.7233,-2.7192,-2.7258,-2.7284,-2.7258,-2.7361,0.0,0.0,0.0,0.0,0.0,0.0,0.0,0.0,0.0,-2.522,-2.5205,0.0,-2.5228,0.0,-2.5182,-2.528,-2.5491,-2.5552,0.0,0.0,-2.5833,-2.597,-2.5863,-2.5947,-2.6039,-2.6184,-2.6665,-2.7018,-2.7126,-2.7611,-2.7919,-2.7904,-2.7011,-2.6586,-2.7307,-2.6831,-2.6603,-2.7126,-2.7226,-2.7349,-2.785,-2.8108,-2.814,-2.8069,-2.7759,-2.7484,-2.7341,-2.6862,-2.6505,-2.649,-2.6529,-2.6508,-2.6529,-2.612,-2.5824,-2.5846,-2.5505,-2.5143,-2.5123,-2.5143,-2.5197,-2.6885,-2.6885,-2.6885,-2.6549,-2.6021,-2.5757,-2.5528,-2.5312,-2.5418,-2.5465,-2.5488,-2.5988,-2.6458,-2.6921,-2.6934,-2.7378,-2.8168,-2.8325,-2.8935,-2.9976,-3.0099,-3.0312,-3.0568,-3.0296,-3.016,-3.016,-2.9825,-2.9825,-3.0129,-3.016,-3.016,-3.016,-3.0146,-2.9892,-2.9363,-2.9624,-2.9767,-2.9767,-2.9489,-2.93,-2.9285,-2.8671,-2.8391,-2.8431,-2.8067,-2.7744,-2.7504,-2.7515,-2.7398,-2.7133,-2.7155,-2.7192,-2.7192,-2.7284,-2.731,0.0,0.0,0.0,0.0,0.0,0.0,0.0,0.0,0.0,0.0,0.0,-2.5749,-2.6019,-2.5779,-2.5758,-2.6114,-2.6144,-2.6144,-2.6159,-2.6501,-2.6666,-2.6618,-2.6666,-2.6762,-2.6905,-2.7239,-2.7622,-2.8064,-2.8474,-2.8851,-2.9143,-2.8578,-2.8066,-2.7968,-2.7558,-2.7534,-2.8165,-2.8304,-2.8535,-2.9171,-2.9126,-2.8974,-2.8821,-2.8369,-2.7968,-2.7866,-2.755,-2.7272,-2.7242,-2.7118,-2.7008,-2.6993,-2.6561,-2.618,-2.6071,-2.5623,-2.5143,-2.5009,-2.5005,-2.5045,-2.7198,-2.7198,-2.7126,-2.7066,-2.6958,-2.6514,-2.6009,-2.5516,-2.5516,-2.548,-2.5408,-2.5336,-2.5382,-2.5571,-2.5571,-2.6104,-2.7048,-2.7129,-2.7934,-2.9328,-2.939,-2.9732,-3.0251,-2.9716,-2.9453,-2.9453,-2.8807,-2.8889,-2.9591,-2.9515,-2.9484,-2.9591,-2.9515,-2.9515,-2.9623,-3.019,-3.0507,-3.0598,-3.0016,-2.9711,-2.9711,-2.9131,-2.8853,-2.8966,-2.8809,-2.8503,-2.8002,-2.8015,-2.7737,-2.7138,-2.7184,-2.7203,-2.717,-2.7089,-2.7063,0.0,-2.7011,0.0,0.0,0.0,0.0,0.0,0.0,0.0,0.0,-2.5759,-2.6069,-2.6662,-2.6198,-2.6093,-2.6662,-2.6722,-2.6722,-2.6737,-2.733,-2.772,-2.772,-2.7794,-2.7905,-2.8047,-2.8047,-2.8339,-2.9011,-2.923,-2.9536,-3.0016,-3.014,-2.9746,-2.8935,-2.8673,-2.8873,-2.9448,-2.955,-2.9633,-3.0094,-2.9848,-2.9535,-2.9473,-2.9104,-2.8642,-2.855,-2.8519,-2.8488,-2.8334,-2.7888,-2.755,-2.7534,-2.7003,-2.6541,-2.6548,-2.5978,-2.5406,-2.5111,-2.4929,-2.4926,-2.8847,-2.8811,-2.839,-2.7969,-2.7534,-2.7426,-2.7103,-2.6585,-2.6585,-2.637,-2.5925,-2.5492,-2.5347,-2.5347,-2.5347,-2.5791,-2.6552,-2.665,-2.7198,-2.8057,-2.833,-2.8538,-2.8666,-2.8698,-2.8698,-2.8698,-2.857,-2.8889,-2.9591,-2.8985,-2.8985,-2.9577,-2.8985,-2.903,-2.9577,0.0,0.0,0.0,-3.0451,-3.0393,-3.0409,-2.9769,-2.945,-2.9464,-2.897,0.0,-2.8562,-2.8548,-2.8257,-2.7619,-2.7603,0.0,0.0,0.0,0.0,0.0,0.0,0.0,0.0,0.0,0.0,0.0,-2.5477,-2.5847,-2.6747,-2.7005,-2.716,-2.7405,-2.73,-2.727,-2.7405,-2.7405,-2.7405,-2.7435,-2.8019,-2.8412,-2.8427,-2.8861,-2.9259,-2.9407,-2.9392,-2.949,-2.9754,-2.9837,-2.9935,-3.0166,-3.023,-3.019,-3.0012,-2.9961,-3.0063,-3.0202,-3.0217,-3.0263,-3.0371,-3.0309,-3.0202,-3.0171,-3.0125,-2.9787,-2.931,-2.9202,-2.8996,-2.8526,-2.8304,-2.8211,-2.8196,-2.7673,-2.7172,-2.7211,-2.6603,-2.5933,-2.5379,-2.4813,-2.4503,-2.9689,-2.9665,-2.94,-2.9124,0.0,-2.8619,-2.8342,-2.8053,-2.7222,-2.6741,-2.649,-2.6189,-2.5925,-2.5697,-2.5697,-2.5813,-2.6013,-2.6057,-2.6548,-2.7311,-2.7491,-2.7743,-2.8084,-2.7841,-2.7743,-2.7835,-2.7517,-2.7769,-2.8519,-2.8182,-2.8182,-2.8551,-2.8182,-2.8182,-2.8551,-2.8889,-2.9577,-3.0598,-3.0612,-3.0447,-3.0115,-2.9784,-2.9432,-2.9055,-2.9119,0.0,0.0,0.0,0.0,0.0,0.0,0.0,0.0,-2.6106,0.0,-2.5564,-2.5342,-2.5217,-2.5203,-2.5203,-2.5189,-2.5105,-2.5189,-2.5673,-2.6747,-2.6919,-2.7141,-2.7549,-2.7884,-2.8094,-2.8083,-2.8118,-2.811,-2.8098,-2.8106,-2.8117,-2.8146,-2.8392,-2.8764,-2.9125,-2.9222,-2.9463,-3.0147,-3.0028,-3.008,-3.0404,-3.0238,-3.0124,-3.0192,-3.0319,-3.0479,-3.0817,-3.1213,-3.1413,-3.134,-3.1074,-3.0863,-3.0863,-3.0418,-2.9977,-2.9631,-2.9555,-2.9316,-2.8708,-2.8591,-2.8514,-2.8149,-2.7814,-2.7513,-2.7276,-2.684,-2.6342,-2.5802,-2.5217,-2.4831,-3.023,-3.0218,-3.0176,-3.0086,-3.005,-2.9629,-2.9436,-2.9328,-2.7714,0.0,0.0,-2.6934,-2.6633,-2.625,-2.625,-2.6094,-2.5839,-2.5826,-2.6177,-2.6734,-2.6802,-2.7092,-2.7524,-2.7002,-2.6812,-2.6926,-2.643,-2.6577,-2.7384,-2.7317,-2.7364,-2.7417,-2.7351,-2.7384,-2.755,-2.8182,-2.9079,-3.0146,-3.0206,-2.9962,-2.9421,-2.9435,-2.9125,-2.8492,-2.9093,-2.8872,-2.7827,-2.8267,-2.8069,-2.7023,-2.686,-2.6589,-2.6124,-2.5907,-2.5574,-2.5145,-2.4953,-2.48,-2.48,-2.4721,-2.4721,-2.48,-2.4907,-2.5392,-2.6319,-2.6413,-2.6712,-2.7447,-2.8004,-2.8328,-2.837,-2.8373,-2.8382,-2.8425,-2.8037,-2.7772,-2.78,-2.7883,-2.8276,-2.8642,-2.8843,-2.9131,-3.0115,-2.9958,-2.9944,-3.0409,-3.0214,-2.9981,-3.0018,-3.0185,-3.0449,-3.0915,-3.1283,-3.1817,-3.1858,-3.1437,-3.1171,-3.0988,-3.0376,-2.9836,-2.9717,-2.9714,-2.9487,-2.8873,-2.876,-2.8456,-2.7965,-2.775,-2.7549,-2.7188,-2.6936,-2.6673,-2.6337,-2.5826,-2.5422,-3.0771,-3.0723,-3.0278,-3.0086,-3.0074,-3.0013,-2.9977,-2.9833,-2.8294,-2.757,-2.7534,-2.709,-2.6861,-2.6789,-2.6777,-2.6741,-2.6707,-2.6707,-2.6553,-2.6238,-2.6382,-2.6293,-2.5955,-2.599,-2.6072,-2.6072,-2.598,-2.6302,-2.6867,-2.6577,-2.6692,-2.7129,-2.685,-2.6952,-2.7517,-2.8182,-2.8588,-2.878,-2.878,-2.8748,-2.8666,-2.8666,-2.8634,-2.8492,-2.8602,-2.8561,-2.8397,-2.8452,-2.8175,-2.7524,-2.7466,-2.7151,-2.6539,-2.6012,-2.5677,-2.5572,-2.4695,-2.4144,-2.4131,-2.3674,-2.3568,-2.4106,-2.4545,-2.5187,-2.5968,-2.6057,-2.635,-2.7009,-2.7236,-2.729,-2.745,-2.7533,-2.7645,-2.779,-2.8124,-2.8374,-2.8298,-2.8764,-2.9119,-2.9245,-2.9374,-2.9362,-2.9586,-2.9596,-2.9579,-2.986,-2.969,-2.9782,-2.983,-3.002,-3.0084,-3.0186,-3.0273,-3.033,-3.0496,-3.0317,-3.0292,-3.0215,-3.0308,-3.0061,-2.9595,-2.9737,-2.9659,-2.9083,-2.8611,-2.8252,-2.803,-2.7598,-2.7214,-2.6982,-2.6898,-2.6905,-2.6788,-2.6297,-2.5799,-3.1344,-3.1276,-3.1091,-3.0983,-3.0958,-3.0639,-3.038,-3.0037,-2.9316,-2.8835,-2.8534,-2.8029,-2.7594,-2.7342,-2.733,-2.7162,-2.6885,-2.6885,-2.6765,-2.6562,-2.6636,-2.6541,-2.6287,-2.6117,-2.6079,-2.6138,-2.5893,-2.5955,-2.6289,-2.6141,-2.6176,-2.6461,-2.628,-2.6396,-2.6782,-2.7095,-2.7317,-2.7417,-2.8149,-2.8344,-2.7953,-2.7953,-2.7789,-2.7417,-2.7756,-2.7756,-2.7417,-2.7769,-2.765,-2.7032,-2.6986,-2.6713,-2.6109,-2.5781,-2.5505,-2.5237,-2.4741,-2.4443,-2.4412,-2.4161,-2.4136,-2.4399,-2.4637,-2.509,-2.5743,-2.5892,-2.6253,-2.6916,-2.7305,-2.7586,-2.7674,-2.7673,-2.7767,-2.795,-2.7945,-2.7889,-2.798,-2.8201,-2.8551,-2.8871,-2.8967,-2.9093,-2.9473,-2.9205,-2.8998,-2.9062,-2.8826,-2.8615,-2.8648,-2.868,-2.8985,-2.9797,-3.0011,-3.0011,-2.9981,-3.0011,-3.0011,-3.0011,-2.9903,-2.9728,-2.9428,-2.9671,-2.9577,-2.903,-2.8656,-2.828,-2.7732,-2.7107,-2.6629,-2.6042,-2.6322,-2.6443,-2.6267,-2.6081,-2.589,-3.1813,-3.1705,-3.1705,-3.1705,-3.1681,-3.1271,-3.0862,-3.0446,-3.0314,-3.0025,-2.9593,-2.8979,-2.8462,-2.805,-2.7957,-2.7642,-2.7294,-2.7246,-2.7198,-2.7078,-2.7078,-2.7018,-2.6873,-2.6478,-2.6359,-2.6445,-2.6093,-2.591,-2.5954,-2.5977,-2.5986,-2.5923,-2.5923,-2.598,-2.6131,-2.6131,-2.6188,-2.6418,-2.7384,-2.7703,-2.7284,-2.7284,-2.704,-2.6589,-2.6994,-2.704,-2.6555,-2.7007,-2.704,-2.6521,-2.6487,-2.6298,-2.5858,-2.5787,-2.5611,-2.5234,-2.5059,-2.4946,-2.4813,-2.4901,-2.4996,-2.4996,-2.5121,-2.5372,-2.5753,-2.5961,-2.6283,-2.684,-2.7306,-2.7624,-2.7633,-2.7693,-2.7782,-2.7927,-2.7577,-2.7397,-2.7456,-2.7503,-2.7689,-2.8203,-2.8274,-2.8468,-2.8794,-2.8583,-2.8287,-2.8189,-2.7822,-2.7536,-2.7503,-2.7503,-2.8124,-2.8953,-2.9425,-2.9331,-2.9425,-2.9362,-2.9362,-2.9425,-2.9188,-2.903,-2.9016,-2.9296,-2.9358,-2.8836,-2.8643,-2.8194,-2.7339,-2.6706,-2.6157,-2.5587,-2.5689,-2.577,-2.5536,-2.5578,-2.58,-3.213,-3.1741,-3.1753,-3.1705,-3.1717,-3.1645,-3.1585,-3.1464,-3.1011,-3.0826,-3.0657,-2.9665,-2.9208,-2.91,-2.8655,-2.8402,-2.829,-2.8354,-2.8089,-2.7642,-2.7606,-2.7366,-2.697,-2.6849,-2.6863,-2.6851,-2.6767,-2.6491,-2.6154,-2.6287,-2.6211,-2.5937,-2.5923,-2.591,-2.5945,-2.5945,-2.5945,-2.5945,-2.6072,-2.628,-2.6589,-2.6589,-2.6555,-2.6487,-2.6555,-2.6555,-2.6487,-2.6555,-2.6555,-2.6499,-2.6487,-2.6474,-2.6411,-2.6399,-2.6386,-2.6298,-2.5799,-2.5335,-2.4888,-2.5259,-2.5523,-2.5561,-2.6021,-2.6298,-2.6373,-2.6404,-2.6459,-2.6578,-2.6608,-2.6756,-2.6794,-2.6845,-2.6985,-2.7201,-2.7235,-2.7302,-2.7335,-2.7436,-2.7523,-2.7543,-2.7656,-2.7623,-2.7776,-2.7743,-2.7656,-2.7689,-2.7623,-2.7503,-2.7503,-2.7503,-2.7536,-2.7776,-2.7776,-2.7842,-2.7908,-2.7743,-2.7973,-2.7894,-2.8052,-2.8197,-2.836,-2.8522,-2.8661,-2.8611,-2.8202,-2.7793,-2.7366,-2.6761,-2.6,-2.5612,-2.5373,-2.5104,-2.5061,-2.5118,-2.5397,-3.2827,-3.2623,-3.2623,-3.2488,-3.2187,-3.1862,-3.1705,-3.1681,-3.1488,-3.138,-3.1296,-3.0555,-3.005,-2.9725,-2.922,-2.8967,-2.8955,-2.8655,-2.8402,-2.8198,-2.8198,-2.8065,-2.7822,-2.7498,-2.7392,-2.733,-2.7054,-2.6777,-2.6622,-2.6661,-2.6469,-2.6057,-2.6008,-2.5922,-2.5748,-2.5723,-2.5758,-2.5923,-2.5923,-2.5968,-2.6141,-2.6258,-2.6339,-2.6339,-2.6327,-2.6339,-2.6339,-2.6327,-2.6361,-2.6487,-2.6487,-2.6487,-2.6487,-2.6487,-2.6487,-2.6474,-2.6273,-2.6047,-2.5845,-2.6021,-2.6135,-2.6101,-2.6348,-2.6487,-2.6487,-2.6487,-2.6487,-2.6487,-2.6487,-2.6533,-2.6555,-2.6589,-2.6645,-2.6794,-2.6897,-2.6985,-2.7113,-2.7281,-2.7369,-2.7403,-2.7469,-2.7503,-2.7503,-2.7503,-2.7503,-2.7503,-2.7503,-2.7503,-2.7503,-2.7503,-2.7503,-2.7503,-2.7503,-2.7503,-2.7503,-2.7503,-2.7503,-2.7536,-2.7636,-2.7736,-2.7802,-2.8066,-2.8308,-2.8308,-2.8021,-2.7699,-2.7382,-2.6885,-2.6228,-2.5718,-2.5079,-2.4751,-2.4948,-2.5005,-2.523,-3.3404,-3.3308,-3.3284,-3.3068,-3.2671,-3.2175,-3.1934,-3.191,-3.1777,-3.1705,-3.1669,-3.1308,-3.0922,-3.0501,-2.9821,-2.952,-2.9448,-2.8967,-2.8727,-2.8715,-2.8582,-2.851,-2.8462,-2.8126,-2.7945,-2.7885,-2.7534,-2.727,-2.7114,-2.6946,-2.6681,-2.637,-2.6322,-2.6094,-2.5779,-2.5718,-2.5752,-2.5723,-2.5723,-2.5758,-2.5828,-2.5945,-2.6062,-2.6109,-2.6097,-2.6097,-2.6131,-2.6131,-2.6201,-2.6408,-2.6361,-2.6361,-2.643,-2.6361,-2.6361,-2.6443,-2.6465,-2.6487,-2.6487,-2.6487,-2.6487,-2.6487,-2.6487,-2.6487,-2.6487,-2.6487,-2.6487,-2.6487,-2.6487,-2.6487,-2.6487,-2.6487,-2.6568,-2.6624,-2.6692,-2.676,-2.6909,-2.7113,-2.7214,-2.7235,-2.7335,-2.7469,-2.7503,-2.7503,-2.7503,-2.7503,-2.7503,-2.7503,-2.7503,-2.7503,-2.7503,-2.7503,-2.7503,-2.7503,-2.7503,-2.7503,-2.7503,-2.7503,-2.7536,-2.7536,-2.7503,-2.7769,-2.7947,-2.7901,-2.7934,-2.7828,-2.7424,-2.6979,-2.6371,-2.5376,-2.483,-2.4651,-2.4662,-2.4734,-2.4734,-3.3682,-3.3332,-3.3284,-3.3296,-3.32,-3.2695,-3.2454,-3.237,-3.1913,-3.1729,-3.1717,-3.1669,-3.1645,-3.15,-3.0561,-3.0062,-2.9989,-2.9496,-2.9268,-2.9208,-2.8763,-2.8522,-2.851,-2.8486,-2.8462,-2.8402,-2.833,-2.8062,-2.7681,-2.7174,-2.6885,-2.6849,-2.6861,-2.6622,-2.6178,-2.6106,-2.5817,-2.5551,-2.548,-2.5478,-2.5619,-2.5654,-2.5796,-2.5924,-2.591,-2.591,-2.5898,-2.591,-2.6015,-2.6201,-2.605,-2.6015,-2.6166,-2.605,-2.605,-2.6201,-2.6361,-2.6487,-2.6452,-2.6465,-2.6487,-2.6487,-2.6487,-2.6487,-2.6487,-2.6487,-2.6487,-2.6487,-2.6487,-2.6487,-2.6487,-2.6487,-2.6499,-2.6533,-2.6624,-2.6679,-2.6726,-2.6897,-2.7024,-2.7045,-2.718,-2.7335,-2.7469,-2.7503,-2.7469,-2.7503,-2.7503,-2.7503,-2.7503,-2.7503,-2.7503,-2.7503,-2.7503,-2.7503,-2.7503,-2.7503,-2.7503,-2.7503,-2.7503,-2.7503,-2.7503,-2.7536,-2.7536,-2.757,-2.7603,-2.755,-2.7426,-2.6961,-2.63,-2.5612,-2.5127,-2.4879,-2.4638,-2.4294,-2.4258,-3.4064,-3.4007,-3.3815,-3.3765,-3.3705,-3.3224,-3.2815,-3.2478,-3.2298,-3.2042,-3.1753,-3.1717,-3.1705,-3.1681,-3.132,-3.0958,-3.0567,-3.005,-2.9797,-2.9737,-2.9256,-2.9015,-2.8979,-2.8679,-2.851,-2.851,-2.851,-2.8414,-2.8246,-2.799,-2.7726,-2.7438,-2.7402,-2.7126,-2.6719,-2.6635,-2.6489,-2.6333,-2.6309,-2.6346,-2.6395,-2.6431,-2.6299,-2.6045,-2.5823,-2.5723,-2.5688,-2.5711,-2.5793,-2.5992,-2.5945,-2.5933,-2.598,-2.5945,-2.5945,-2.5992,-2.6084,-2.6119,-2.6119,-2.6223,-2.6292,-2.6305,-2.6418,-2.6487,-2.6487,-2.6487,-2.6487,-2.6487,-2.6487,-2.6487,-2.6487,-2.6487,-2.6487,-2.6487,-2.6521,-2.6602,-2.6602,-2.6705,-2.6807,-2.6841,-2.6977,-2.7113,-2.7167,-2.7167,-2.7248,-2.7335,-2.7369,-2.7403,-2.7503,-2.7503,-2.749,-2.7503,-2.7503,-2.7503,-2.7503,-2.7503,-2.7503,-2.7503,-2.7503,-2.7503,-2.7503,-2.7503,-2.7536,-2.7536,-2.7503,-2.749,-2.7432,-2.7131,-2.6457,-2.6196,-2.5698,-2.5162,-2.4713,-2.4452,-2.4243,-3.4249,-3.4288,-3.4246,-3.415,-3.3995,-3.3612,-3.3251,-3.2857,-3.269,-3.2352,-3.201,-3.1925,-3.1886,-3.1729,-3.1705,-3.1536,-3.1139,-3.0591,-3.035,-3.029,-2.9797,-2.9556,-2.946,-2.9003,-2.8775,-2.8739,-2.857,-2.851,-2.851,-2.851,-2.8318,-2.7993,-2.793,-2.7705,-2.7246,-2.715,-2.709,-2.6934,-2.6885,-2.6873,-2.6885,-2.6885,-2.6729,-2.6394,-2.613,-2.5839,-2.5524,-2.55,-2.5606,-2.5758,-2.5758,-2.5676,-2.5711,-2.5758,-2.5793,-2.5793,-2.5863,-2.5923,-2.5923,-2.6015,-2.6097,-2.6131,-2.627,-2.6396,-2.6396,-2.6465,-2.6487,-2.6487,-2.6487,-2.6487,-2.6487,-2.6487,-2.6487,-2.6487,-2.6487,-2.6487,-2.6487,-2.6589,-2.6645,-2.6726,-2.6829,-2.6909,-2.6977,-2.7024,-2.7092,-2.7214,-2.7201,-2.7235,-2.7302,-2.7403,-2.7423,-2.7436,-2.7469,-2.7503,-2.7503,-2.749,-2.7456,-2.7456,-2.7503,-2.7503,-2.7503,-2.7503,-2.7503,-2.7503,-2.7503,-2.7503,-2.7372,-2.7157,-2.6922,-2.6732,-2.6287,-2.5725,-2.5197,-2.4661,-2.4448,-3.4249,-3.4162,-3.4592,-3.4495,-3.4081,-3.3838,-3.3684,-3.3553,-3.3148,-3.2799,-3.2539,-3.2491,-3.2226,-3.1837,-3.1769,-3.1717,-3.156,-3.1127,-3.0922,-3.0874,-3.0338,-3.0086,-3.0062,-2.9544,-2.9256,-2.9208,-2.8775,-2.8534,-2.851,-2.851,-2.8474,-2.8474,-2.8438,-2.8174,-2.7729,-2.7705,-2.745,-2.715,-2.7066,-2.7006,-2.6922,-2.703,-2.7006,-2.691,-2.6899,-2.6418,-2.5456,-2.5408,-2.5575,-2.5657,-2.5526,-2.5336,-2.5527,-2.5646,-2.5679,-2.5764,-2.5844,-2.5937,-2.5961,-2.5998,-2.6095,-2.6095,-2.6196,-2.6387,-2.6459,-2.6549,-2.664,-2.67,-2.6663,-2.6612,-2.6637,-2.6663,-2.66,-2.6487,-2.6487,-2.6487,-2.6487,-2.6487,-2.6555,-2.6658,-2.6692,-2.6807,-2.6909,-2.6943,-2.6943,-2.6977,-2.7011,-2.6943,-2.6897,-2.6985,-2.7201,-2.7222,-2.7154,-2.7074,-2.7276,-2.7456,-2.7423,-2.7423,-2.7456,-2.7503,-2.7503,-2.7503,-2.7503,-2.7503,-2.7503,-2.7503,-2.7289,-2.7069,-2.7051,-2.6837,-2.6479,-2.6203,-2.5751,-2.521,-2.4649,-3.4075,-3.3878,-3.4162,-3.4211,-3.4113,-3.4181,-3.4017,-3.3744,-3.3624,-3.3419,-3.3058,-3.2859,-3.256,-3.2232,-3.2079,-3.1875,-3.1673,-3.1524,-3.1464,-3.1368,-3.0922,-3.0669,-3.0573,-3.0086,-2.9653,-2.9328,-2.9136,-2.8859,-2.8582,-2.8522,-2.851,-2.851,-2.851,-2.8426,-2.8246,-2.8218,-2.815,-2.8041,-2.7978,-2.8017,-2.8017,-2.8017,-2.7849,-2.7474,-2.7438,-2.709,-2.6441,-2.6393,-2.643,-2.648,-2.6418,-2.6381,-2.6418,-2.6467,-2.6504,-2.6516,-2.6541,-2.659,-2.6614,-2.67,-2.6749,-2.681,-2.6968,-2.7174,-2.7283,-2.7318,-2.7426,-2.7534,-2.7595,-2.7582,-2.7595,-2.7595,-2.7268,-2.6575,-2.6487,-2.6512,-2.6487,-2.6487,-2.6521,-2.6555,-2.6555,-2.6602,-2.6624,-2.6658,-2.6692,-2.6726,-2.6726,-2.6645,-2.6264,-2.6183,-2.6252,-2.6286,-2.6355,-2.6505,-2.6676,-2.6595,-2.6445,-2.6561,-2.6778,-2.6879,-2.7027,-2.7242,-2.7289,-2.7289,-2.7323,-2.7222,-2.7053,-2.7002,-2.6928,-2.6912,-2.6634,-2.6395,-2.6184,-2.5722,-2.5112,-3.3779,-3.358,-3.3927,-3.3977,-3.3828,-3.4064,-3.3974,-3.3763,-3.3812,-3.3672,-3.3315,-3.3102,-3.2806,-3.2493,-3.2243,-3.2003,-3.186,-3.1769,-3.1705,-3.1669,-3.1392,-3.1211,-3.1139,-3.0669,-3.0098,-2.9677,-2.9593,-2.9316,-2.8823,-2.8799,-2.8715,-2.8546,-2.851,-2.851,-2.851,-2.851,-2.851,-2.851,-2.8498,-2.851,-2.851,-2.851,-2.8342,-2.8065,-2.8005,-2.7849,-2.7536,-2.7474,-2.7294,-2.6982,-2.6885,-2.6885,-2.6885,-2.6861,-2.6885,-2.6885,-2.6873,-2.6873,-2.6885,-2.6975,-2.7099,-2.7136,-2.7285,-2.7422,-2.7545,-2.7644,-2.7755,-2.7853,-2.7828,-2.7877,-2.7865,-2.795,-2.7649,-2.7087,-2.6904,-2.6725,-2.6562,-2.6487,-2.6487,-2.6487,-2.6487,-2.6487,-2.6487,-2.6487,-2.6383,-2.6267,-2.6151,-2.5896,-2.544,-2.5204,-2.5252,-2.5322,-2.5428,-2.565,-2.5941,-2.5789,-2.5451,-2.5625,-2.5834,-2.5916,-2.602,-2.6424,-2.6607,-2.6505,-2.6505,-2.6286,-2.6114,-2.6483,-2.6578,-2.6587,-2.6506,-2.6416,-2.6161,-2.5962,-2.5378,-3.353,-3.3381,-3.3828,-3.3779,-3.3431,-3.363,-3.3755,-3.3694,-3.3744,-3.3623,-3.3417,-3.3347,-3.3053,-3.2606,-3.2345,-3.2223,-3.2089,-3.1839,-3.1737,-3.1757,-3.1637,-3.1633,-3.1548,-3.1151,-3.0681,-3.0194,-3.0176,-2.9845,-2.9364,-2.934,-2.9076,-2.8667,-2.8631,-2.8534,-2.8534,-2.851,-2.851,-2.851,-2.851,-2.851,-2.851,-2.851,-2.8498,-2.8462,-2.845,-2.8426,-2.8366,-2.833,-2.7981,-2.715,-2.7114,-2.7138,-2.7042,-2.6982,-2.709,-2.7114,-2.7006,-2.7078,-2.703,-2.72,-2.7164,-2.7226,-2.7365,-2.7296,-2.7529,-2.754,-2.7552,-2.7629,-2.7604,-2.7567,-2.7605,-2.7866,-2.7866,-2.7718,-2.7308,-2.6966,-2.6596,-2.6524,-2.6484,-2.641,-2.6414,-2.6411,-2.631,-2.6273,-2.599,-2.5488,-2.53,-2.5075,-2.4384,-2.4228,-2.4301,-2.4373,-2.4445,-2.4755,-2.5016,-2.4731,-2.4433,-2.4433,-2.4672,-2.4767,-2.5087,-2.5603,-2.5859,-2.5755,-2.5603,-2.5392,-2.5322,-2.565,-2.5836,-2.5797,-2.5847,-2.6109,-2.5992,-2.5632,-2.5157,-3.3392,-3.3331,-3.3431,-3.3431,-3.3331,-3.358,-3.3679,-3.3741,-3.3878,-3.3883,-3.3826,-3.3679,-3.3375,-3.3064,-3.2792,-3.2688,-3.2545,-3.2218,-3.1967,-3.1953,-3.1773,-3.1729,-3.1705,-3.1573,-3.1211,-3.0766,-3.0694,-3.0386,-2.9917,-2.9881,-2.9605,-2.9112,-2.9088,-2.8895,-2.857,-2.8558,-2.851,-2.851,-2.851,-2.851,-2.851,-2.851,-2.851,-2.851,-2.851,-2.851,-2.851,-2.851,-2.8438,-2.815,-2.8089,-2.8102,-2.8029,-2.799,-2.7954,-2.7966,-2.8041,-2.8026,-2.8065,-2.8053,-2.8026,-2.8102,-2.7942,-2.8234,-2.8339,-2.7794,-2.7636,-2.7688,-2.7727,-2.764,-2.7782,-2.8251,-2.8183,-2.7387,-2.7007,-2.6796,-2.6688,-2.67,-2.6516,-2.5936,-2.602,-2.5889,-2.5588,-2.5493,-2.5324,-2.4754,-2.4707,-2.4731,-2.3706,-2.3302,-2.3375,-2.3386,-2.3497,-2.3804,-2.395,-2.3669,-2.3412,-2.3276,-2.3364,-2.3452,-2.4061,-2.485,-2.4992,-2.4992,-2.4743,-2.4529,-2.4493,-2.4636,-2.4755,-2.4945,-2.5051,-2.5188,-2.5154,-2.4882,-2.4446,-3.3281,-3.3281,-3.3281,-3.3281,-3.3331,-3.3481,-3.353,-3.353,-3.3679,-3.3779,-3.3729,-3.3618,-3.3418,-3.3287,-3.3006,-3.2906,-3.2853,-3.2441,-3.2263,-3.2202,-3.1889,-3.1723,-3.1689,-3.1705,-3.1536,-3.1296,-3.1247,-3.0958,-3.0506,-3.041,-3.0122,-2.9725,-2.9629,-2.946,-2.9232,-2.8931,-2.8847,-2.8799,-2.8655,-2.851,-2.851,-2.851,-2.851,-2.851,-2.851,-2.851,-2.851,-2.851,-2.851,-2.8498,-2.8498,-2.851,-2.851,-2.851,-2.851,-2.851,-2.851,-2.8498,-2.851,-2.851,-2.8299,-2.8047,-2.7966,-2.7782,-2.7493,-2.7017,-2.6853,-2.6901,-2.6935,-2.6964,-2.7046,-2.7504,-2.7445,-2.6898,-2.6376,-2.6099,-2.6077,-2.6162,-2.6007,-2.572,-2.5634,-2.57,-2.5112,-2.5096,-2.4669,-2.4186,-2.405,-2.3553,-2.2777,-2.2628,-2.2553,-2.259,-2.259,-2.2868,-2.3005,-2.2793,-2.2718,-2.258,-2.258,-2.2558,-2.3106,-2.3952,-2.3854,-2.3818,-2.3781,-2.3745,-2.3635,-2.3672,-2.3927,-2.4108,-2.4169,-2.423,-2.423,-2.4158,-2.3674,-3.3119,-3.3119,-3.3231,-3.3281,-3.3281,-3.3281,-3.3342,-3.3281,-3.3331,-3.3342,-3.3281,-3.317,-3.2985,-3.3085,-3.2426,-3.2494,-3.2546,-3.2245,-3.2228,-3.196,-3.1542,-3.1182,-3.135,-3.152,-3.1605,-3.1577,-3.1637,-3.1241,-3.0818,-3.0778,-3.0405,-2.9799,-2.9723,-2.9791,-2.9343,-2.9184,-2.9236,-2.9087,-2.8958,-2.8871,-2.8871,-2.8819,-2.8742,-2.8386,-2.8243,-2.8099,-2.8139,-2.8299,-2.8391,-2.8167,-2.8379,-2.851,-2.851,-2.851,-2.851,-2.8431,-2.8351,-2.8259,-2.8259,-2.8099,-2.7834,-2.7214,-2.7051,-2.6723,-2.6163,-2.5861,-2.5735,-2.5788,-2.5663,-2.5819,-2.5986,-2.6047,-2.6036,-2.597,-2.544,-2.501,-2.4999,-2.5228,-2.5446,-2.5396,-2.5368,-2.5406,-2.5204,-2.4932,-2.4446,-2.3444,-2.3356,-2.3187,-2.2525,-2.2187,-2.2073,-2.2035,-2.1959,-2.1883,-2.1949,-2.1921,-2.1987,-2.1997,-2.2035,-2.2101,-2.2354,-2.282,-2.2644,-2.258,-2.2809,-2.2782,-2.2644,-2.2793,-2.3117,-2.3217,-2.3243,-2.339,-2.3537,-2.3342,-2.2974,-3.1953,-3.2004,-3.2958,-3.3281,-3.3281,-3.3281,-3.3242,-3.3231,-3.3231,-3.3081,-3.3069,-3.2381,-3.1953,-3.1891,-3.1149,-3.0655,-3.1019,-3.1307,-3.136,-3.1004,-2.99,-2.9888,-3.0396,-3.0958,-3.1431,-3.1584,-3.1484,-3.0989,-3.0559,-3.0533,-3.007,-2.8689,-2.8965,-2.8761,-2.8029,-2.8545,-2.8761,-2.8835,-2.9278,-2.9487,-2.9421,-2.9421,-2.8994,-2.8168,-2.7725,-2.7126,-2.6835,-2.7753,-2.7753,-2.708,-2.762,-2.8259,-2.8299,-2.8339,-2.8299,-2.8179,-2.7765,-2.747,-2.7377,-2.6917,-2.6329,-2.6205,-2.608,-2.6038,-2.583,-2.5073,-2.4829,-2.4787,-2.4787,-2.5031,-2.5442,-2.5158,-2.4946,-2.4819,-2.4349,-2.3912,-2.3975,-2.464,-2.4878,-2.4701,-2.4755,-2.4703,-2.4102,-2.4371,-2.3806,-2.2888,-2.2724,-2.2841,-2.2425,-2.1869,-2.1769,-2.1769,-2.1807,-2.1807,-2.1807,-2.1807,-2.1807,-2.1807,-2.1807,-2.1807,-2.2063,-2.2138,-2.2138,-2.2063,-2.1987,-2.1949,-2.2073,-2.2035,-2.2392,-2.2344,-2.2381,-2.2531,-2.2596,-2.2446,-2.2483,-3.0932,-3.1114,-3.1717,-3.1987,-3.1987,-3.1976,-3.1855,-3.1732,-3.171,-3.171,-3.1607,-3.1021,-3.0805,-3.0742,-3.0182,-3.0016,-3.013,-3.0395,-3.0367,-3.0013,-2.9308,-2.9204,-2.937,-2.9978,-3.0467,-3.1156,-3.1229,-3.0701,-3.0136,-2.9932,-2.9432,-2.8045,-2.8287,-2.82,-2.7521,-2.7776,-2.7944,-2.8043,-2.8313,-2.8568,-2.8666,-2.8666,-2.8511,-2.77,-2.7269,-2.6803,-2.637,-2.6978,-2.6854,-2.6365,-2.6712,-2.7214,-2.7244,-2.7244,-2.7244,-2.7121,-2.6876,-2.6547,-2.6381,-2.6121,-2.5663,-2.52,-2.5158,-2.4914,-2.4659,-2.4069,-2.3897,-2.3864,-2.3864,-2.4059,-2.4435,-2.4231,-2.3864,-2.382,-2.3527,-2.3319,-2.345,-2.4026,-2.4402,-2.4102,-2.4228,-2.4083,-2.3928,-2.3918,-2.3637,-2.2961,-2.2256,-2.2325,-2.2355,-2.1863,-2.1772,-2.1769,-2.1769,-2.1807,-2.1807,-2.1807,-2.1807,-2.1807,-2.1807,-2.1807,-2.1883,-2.1883,-2.1845,-2.1807,-2.1845,-2.1807,-2.1883,-2.1807,-2.1807,-2.1949,-2.1987,-2.1845,-2.1845,-2.2052,-2.209,-2.9823,-3.0161,-3.0393,-3.0477,-3.0477,-3.0574,-3.0473,-3.0119,-2.9942,-3.0193,-2.9869,-2.9755,-2.966,-2.9608,-2.9355,-2.9398,-2.9545,-2.9325,-2.9051,-2.9065,-2.8673,-2.8554,-2.8621,-2.8783,-2.9289,-3.0514,-3.0411,-2.9827,-2.9073,-2.8936,-2.8323,-2.7563,-2.7584,-2.7311,-2.7259,-2.7237,-2.7144,-2.7274,-2.7392,-2.741,-2.7488,-2.7533,-2.74,-2.697,-2.6732,-2.6451,-2.6117,-2.6411,-2.6324,-2.5593,-2.5592,-2.5549,-2.5453,-2.5735,-2.5777,-2.5872,-2.5788,-2.5621,-2.5537,-2.5358,-2.4904,-2.4327,-2.4284,-2.395,-2.3396,-2.3266,-2.3266,-2.3222,-2.3266,-2.3266,-2.3135,-2.3266,-2.3222,-2.3178,-2.3135,-2.3101,-2.3178,-2.345,-2.3657,-2.3787,-2.3813,-2.3763,-2.3692,-2.3661,-2.336,-2.3044,-2.2331,-2.1849,-2.1887,-2.1791,-2.1673,-2.1578,-2.154,-2.155,-2.155,-2.1578,-2.1617,-2.1693,-2.1693,-2.1731,-2.1693,-2.1627,-2.1627,-2.1769,-2.1807,-2.1769,-2.1769,-2.1807,-2.1807,-2.1807,-2.1807,-2.1807,-2.1807,-2.1807,-2.1807,-2.8528,-2.868,-2.9949,-3.0477,-3.0488,-3.0488,-3.0339,-3.0365,-2.9877,-2.988,-2.9713,-2.8913,-2.8489,-2.8339,-2.753,-2.7672,-2.8189,-2.7921,-2.7776,-2.8033,-2.7651,-2.7343,-2.7724,-2.7801,-2.8198,-2.8616,-2.8726,-2.8126,-2.7436,-2.7226,-2.6904,-2.5926,-2.6071,-2.6119,-2.5906,-2.6058,-2.6377,-2.6537,-2.6931,-2.7262,-2.7355,-2.7345,-2.7054,-2.6377,-2.6007,-2.5498,-2.534,-2.6101,-2.6133,-2.4468,-2.4838,-2.4546,-2.4268,-2.502,-2.5537,-2.5442,-2.4988,-2.4701,-2.4659,-2.4059,-2.3604,-2.3353,-2.343,-2.3387,-2.3135,-2.3101,-2.3101,-2.3101,-2.3101,-2.3101,-2.3101,-2.3101,-2.3101,-2.3101,-2.3101,-2.3101,-2.3135,-2.3222,-2.3363,-2.3493,-2.3547,-2.3547,-2.3511,-2.3441,-2.3302,-2.3043,-2.2546,-2.2089,-2.193,-2.1697,-2.1383,-2.1312,-2.1282,-2.1282,-2.1292,-2.132,-2.1349,-2.1464,-2.1512,-2.155,-2.1512,-2.1397,-2.1397,-2.1578,-2.1693,-2.1769,-2.1769,-2.1769,-2.1807,-2.1807,-2.1807,-2.1769,-2.1807,-2.1807,-2.1807,-2.7481,-2.7744,-2.8481,-2.8904,-2.9069,-2.9098,-2.8962,-2.8758,-2.8554,-2.8349,-2.8096,-2.7618,-2.7349,-2.7251,-2.689,-2.6954,-2.7107,-2.6944,-2.689,-2.7152,-2.6881,-2.6726,-2.7066,-2.7066,-2.7012,-2.7146,-2.7041,-2.6933,-2.6369,-2.6392,-2.5713,-2.4922,-2.4981,-2.4883,-2.4677,-2.4992,-2.5333,-2.5567,-2.5945,-2.6282,-2.6378,-2.6378,-2.6008,-2.5658,-2.5308,-2.4886,-2.4682,-2.5166,-2.5259,-2.4242,-2.4237,-2.3984,-2.3865,-2.3898,-2.4435,-2.4349,-2.4059,-2.3767,-2.3777,-2.3309,-2.3178,-2.3135,-2.3101,-2.3101,-2.3101,-2.3101,-2.3101,-2.3101,-2.3101,-2.3101,-2.3101,-2.3101,-2.3101,-2.3101,-2.3101,-2.3101,-2.3101,-2.3101,-2.3188,-2.3319,-2.3319,-2.3319,-2.3319,-2.325,-2.3191,-2.2988,-2.2685,-2.2344,-2.2009,-2.161,-2.1271,-2.1158,-2.1118,-2.1118,-2.1128,-2.1128,-2.1167,-2.1244,-2.1282,-2.132,-2.132,-2.1244,-2.1244,-2.1349,-2.1502,-2.1627,-2.1769,-2.1769,-2.1769,-2.1769,-2.1769,-2.1731,-2.1769,-2.1807,-2.1731,-2.6765,-2.7059,-2.7206,-2.7361,-2.7684,-2.7794,-2.7583,-2.728,-2.7271,-2.7096,-2.6628,-2.6636,-2.6636,-2.6636,-2.6636,-2.6636,-2.6591,-2.6591,-2.6636,-2.6691,-2.6646,-2.6636,-2.6636,-2.6554,-2.6552,-2.6489,-2.6247,-2.5998,-2.5827,-2.568,-2.5045,-2.4517,-2.4211,-2.4211,-2.4301,-2.439,-2.4291,-2.439,-2.444,-2.4587,-2.4686,-2.4735,-2.4784,-2.4784,-2.4824,-2.4684,-2.4525,-2.4775,-2.4687,-2.4227,-2.3992,-2.3858,-2.3635,-2.3279,-2.3066,-2.2989,-2.3057,-2.3101,-2.3144,-2.3144,-2.3101,-2.3101,-2.3101,-2.3101,-2.3101,-2.3101,-2.3101,-2.3101,-2.3101,-2.3101,-2.3101,-2.3101,-2.3101,-2.3101,-2.3101,-2.3101,-2.3101,-2.3101,-2.3101,-2.3144,-2.3101,-2.3144,-2.3188,-2.3178,-2.3163,-2.3036,-2.2745,-2.2375,-2.2014,-2.1569,-2.1243,-2.1093,-2.1002,-2.1002,-2.1002,-2.0974,-2.1012,-2.1089,-2.1089,-2.1041,-2.1089,-2.1128,-2.1167,-2.1195,-2.1244,-2.1359,-2.154,-2.1683,-2.1578,-2.154,-2.1655,-2.1665,-2.1589,-2.155,-2.155,-2.6619,-2.6692,-2.7022,-2.7205,-2.7306,-2.7609,-2.7536,-2.7196,-2.7169,-2.6958,-2.6591,-2.6591,-2.6591,-2.6591,-2.6591,-2.6591,-2.6591,-2.6591,-2.6591,-2.6591,-2.6591,-2.6591,-2.6591,-2.6591,-2.6564,-2.6389,-2.6195,-2.558,-2.5345,-2.5112,-2.4742,-2.4321,-2.4238,-2.4211,-2.4211,-2.4211,-2.4192,-2.4202,-2.4251,-2.4301,-2.4301,-2.435,-2.444,-2.4489,-2.4578,-2.4599,-2.4653,-2.4771,-2.46,-2.4345,-2.4241,-2.3833,-2.3263,-2.3074,-2.2808,-2.2732,-2.2828,-2.3101,-2.3101,-2.3101,-2.3101,-2.3091,-2.3091,-2.3091,-2.3047,-2.3013,-2.3013,-2.3101,-2.3101,-2.3091,-2.3091,-2.3101,-2.3101,-2.3101,-2.3101,-2.3101,-2.3101,-2.3101,-2.3101,-2.3101,-2.3101,-2.3101,-2.3144,-2.3101,-2.3071,-2.2945,-2.2783,-2.2425,-2.1995,-2.1624,-2.1144,-2.0908,-2.0848,-2.0848,-2.0848,-2.0809,-2.0858,-2.0935,-2.0896,-2.0848,-2.0886,-2.0974,-2.0974,-2.1012,-2.1022,-2.1061,-2.1195,-2.1272,-2.1272,-2.1359,-2.1436,-2.1359,-2.1292,-2.1292,-2.1369,-2.6591,-2.66,-2.6829,-2.6976,-2.7243,-2.7361,-2.7399,-2.7196,-2.7169,-2.6958,-2.6637,-2.6591,-2.6591,-2.6591,-2.6591,-2.6591,-2.6591,-2.6591,-2.6591,-2.6591,-2.6591,-2.6591,-2.6591,-2.6591,-2.6591,-2.6536,-2.638,-2.6149,-2.5552,-2.5038,-2.4707,-2.456,-2.433,-2.4211,-2.4211,-2.4211,-2.4202,-2.4211,-2.4211,-2.4211,-2.4211,-2.4202,-2.4242,-2.4291,-2.4341,-2.4399,-2.4498,-2.4627,-2.462,-2.4386,-2.4351,-2.4193,-2.3682,-2.3314,-2.2898,-2.282,-2.2678,-2.2759,-2.2882,-2.3023,-2.3057,-2.3057,-2.296,-2.2838,-2.2784,-2.274,-2.2794,-2.2925,-2.2925,-2.2969,-2.3047,-2.3091,-2.3101,-2.3101,-2.3101,-2.3101,-2.3101,-2.3101,-2.3101,-2.3101,-2.3101,-2.3101,-2.3101,-2.3101,-2.3101,-2.3033,-2.2906,-2.2695,-2.2178,-2.1641,-2.1182,-2.0713,-2.0654,-2.0654,-2.0654,-2.0654,-2.0693,-2.0731,-2.0731,-2.0731,-2.0731,-2.077,-2.0809,-2.077,-2.077,-2.0809,-2.0886,-2.1002,-2.1156,-2.1205,-2.1215,-2.1177,-2.1138,-2.1177,-2.1254,-2.6591,-2.6591,-2.6591,-2.6765,-2.7031,-2.7132,-2.7114,-2.7031,-2.7141,-2.6949,-2.6664,-2.6591,-2.6591,-2.6591,-2.6591,-2.6591,-2.6591,-2.6591,-2.6591,-2.6591,-2.6591,-2.6591,-2.6591,-2.6591,-2.6591,-2.6591,-2.6554,-2.6407,-2.6048,-2.5552,-2.506,-2.4845,-2.4551,-2.433,-2.4229,-2.4211,-2.4211,-2.4211,-2.4211,-2.4211,-2.4211,-2.4211,-2.4211,-2.4211,-2.4211,-2.4211,-2.4202,-2.4341,-2.443,-2.4414,-2.4335,-2.416,-2.3879,-2.3439,-2.3075,-2.2915,-2.2706,-2.2659,-2.2736,-2.2865,-2.2901,-2.2882,-2.2784,-2.2618,-2.2485,-2.2397,-2.2441,-2.2671,-2.2662,-2.2794,-2.2882,-2.2969,-2.3013,-2.3003,-2.3047,-2.3091,-2.3101,-2.3057,-2.3057,-2.3101,-2.3101,-2.3101,-2.3101,-2.3101,-2.3101,-2.3101,-2.3003,-2.2886,-2.2389,-2.1785,-2.1377,-2.0898,-2.083,-2.0771,-2.0644,-2.0635,-2.0625,-2.0625,-2.0625,-2.0566,-2.0605,-2.0654,-2.0654,-2.0615,-2.0527,-2.0654,-2.0731,-2.0925,-2.1051,-2.0964,-2.0925,-2.1012,-2.1012,-2.1051,-2.1051,-2.6591,-2.6591,-2.6591,-2.6609,-2.6674,-2.7022,-2.6958,-2.671,-2.7077,-2.6921,-2.6609,-2.6591,-2.6591,-2.6591,-2.6591,-2.6591,-2.6591,-2.6591,-2.6591,-2.6591,-2.6591,-2.6591,-2.6591,-2.6591,-2.6591,-2.6591,-2.6591,-2.6564,-2.6444,-2.605,-2.5436,-2.4918,-2.4854,-2.456,-2.4339,-2.4248,-2.4211,-2.4211,-2.4211,-2.4211,-2.4211,-2.4211,-2.4211,-2.4211,-2.4211,-2.4211,-2.4211,-2.4251,-2.4251,-2.4251,-2.4218,-2.411,-2.3851,-2.3544,-2.3277,-2.3018,-2.2797,-2.2711,-2.268,-2.2577,-2.2504,-2.2485,-2.2441,-2.2388,-2.2255,-2.2353,-2.2397,-2.2441,-2.2441,-2.2485,-2.2574,-2.2671,-2.2794,-2.2794,-2.2838,-2.2916,-2.2916,-2.2969,-2.2969,-2.3057,-2.3057,-2.2969,-2.3013,-2.3013,-2.3101,-2.3101,-2.3062,-2.2945,-2.2574,-2.208,-2.1709,-2.1357,-2.12,-2.1055,-2.0742,-2.0713,-2.0762,-2.0703,-2.0654,-2.0566,-2.044,-2.0489,-2.0294,-2.0333,-2.0255,-2.0411,-2.0615,-2.0731,-2.0809,-2.0683,-2.0683,-2.077,-2.0809,-2.0809,-2.077,-2.6591,-2.6591,-2.6591,-2.6591,-2.66,-2.6747,-2.6729,-2.6628,-2.6747,-2.6747,-2.6591,-2.6591,-2.6591,-2.6591,-2.6591,-2.6591,-2.6591,-2.6591,-2.6591,-2.6591,-2.6591,-2.6591,-2.6591,-2.6591,-2.6591,-2.6591,-2.6591,-2.6591,-2.6545,-2.6371,-2.6113,-2.5663,-2.5298,-2.4913,-2.4679,-2.4358,-2.4238,-2.4211,-2.4211,-2.4211,-2.4211,-2.4211,-2.4211,-2.4211,-2.4211,-2.4211,-2.4211,-2.4211,-2.4211,-2.4211,-2.4211,-2.4082,-2.3886,-2.3694,-2.3462,-2.3261,-2.3027,-2.2778,-2.2565,-2.2412,-2.2362,-2.222,-2.222,-2.2132,-2.2043,-2.1998,-2.2087,-2.2132,-2.222,-2.222,-2.2397,-2.2485,-2.2574,-2.2574,-2.2618,-2.2696,-2.2696,-2.2696,-2.274,-2.274,-2.275,-2.2706,-2.2794,-2.2891,-2.3013,-2.3057,-2.3062,-2.2921,-2.2418,-2.2063,-2.16,-2.1282,-2.1116,-2.1267,-2.0989,-2.0974,-2.0907,-2.0839,-2.0742,-2.0389,-2.0106,-1.9775,-1.9696,-1.9775,-1.9893,-1.9932,-2.0089,-2.045,-2.0605,-2.0566,-2.0566,-2.0605,-2.0615,-2.0615,-2.0615,-2.6591,-2.6591,-2.6591,-2.6591,-2.6591,-2.6591,-2.6591,-2.6591,-2.6591,-2.6591,-2.6591,-2.6591,-2.6591,-2.6591,-2.6591,-2.6591,-2.6591,-2.6591,-2.6591,-2.6591,-2.6591,-2.6591,-2.6591,-2.6591,-2.6591,-2.6591,-2.6591,-2.6591,-2.6591,-2.6591,-2.6434,-2.6159,-2.5911,-2.5552,-2.501,-2.4565,-2.4339,-2.4229,-2.4211,-2.4211,-2.4211,-2.4211,-2.4211,-2.4211,-2.4211,-2.4211,-2.4211,-2.4211,-2.4211,-2.4211,-2.4211,-2.4211,-2.4101,-2.3923,-2.3758,-2.3544,-2.3306,-2.2931,-2.2695,-2.2279,-2.2178,-2.1998,-2.1963,-2.1874,-2.1785,-2.1687,-2.182,-2.1963,-2.1963,-2.2052,-2.2176,-2.222,-2.2309,-2.2353,-2.2441,-2.252,-2.2299,-2.2246,-2.2344,-2.2432,-2.2113,-2.1507,-2.1739,-2.1784,-2.1917,-2.1917,-2.181,-2.1719,-2.1493,-2.1273,-2.1151,-2.0912,-2.078,-2.1025,-2.1307,-2.0656,-2.0227,-2.0986,-2.0721,-1.9984,-1.9611,-1.9279,-1.8962,-1.8926,-1.9045,-1.9283,-1.9362,-1.9402,-1.9923,-2.0527,-2.0566,-2.0615,-2.0615,-2.0615,-2.0615,-2.6591,-2.6591,-2.6591,-2.6591,-2.6591,-2.6591,-2.6591,-2.6591,-2.6591,-2.6591,-2.6591,-2.6591,-2.6591,-2.6591,-2.6591,-2.6591,-2.6591,-2.6591,-2.6591,-2.6591,-2.6591,-2.6591,-2.6591,-2.6591,-2.6591,-2.6591,-2.6591,-2.6591,-2.6591,-2.6591,-2.6591,-2.6581,-2.6334,-2.6004,-2.5381,-2.4959,-2.4556,-2.4266,-2.4211,-2.4211,-2.4211,-2.4211,-2.4211,-2.4211,-2.4211,-2.4211,-2.4211,-2.4211,-2.4211,-2.4211,-2.4211,-2.4211,-2.4174,-2.4165,-2.411,-2.4091,-2.3721,-2.3471,-2.3361,-2.2373,-2.1924,-2.1803,-2.1776,-2.1741,-2.1687,-2.1687,-2.1687,-2.183,-2.1642,-2.1687,-2.1776,-2.1865,-2.1909,-2.2087,-2.2167,-2.1935,-2.1704,-2.1204,-2.1204,-2.1204,-2.0458,-1.9852,-2.0215,-2.0494,-2.0638,-2.0638,-2.0548,-2.0468,-2.0506,-2.0615,-2.0695,-2.0651,-2.0507,-2.0575,-2.063,-1.978,-1.957,-2.0467,-2.0559,-1.9692,-1.9018,-1.8551,-1.8316,-1.8115,-1.8118,-1.8278,-1.8198,-1.8118,-1.8917,-1.9678,-2.0411,-2.0615,-2.0615,-2.0615,-2.0615,-2.6418,-2.6591,-2.6591,-2.6591,-2.6591,-2.6591,-2.6591,-2.6591,-2.6591,-2.6591,-2.6591,-2.6591,-2.6591,-2.6591,-2.6628,-2.6637,-2.6609,-2.6591,-2.6591,-2.6591,-2.6591,-2.6591,-2.6591,-2.6591,-2.6591,-2.6591,-2.6591,-2.6591,-2.6591,-2.6591,-2.6591,-2.6582,-2.6536,-2.6123,-2.5472,-2.4977,-2.4574,-2.4284,-2.4211,-2.4211,-2.4211,-2.4211,-2.4211,-2.4211,-2.4211,-2.4211,-2.4211,-2.4211,-2.4211,-2.4211,-2.4211,-2.4211,-2.4211,-2.4211,-2.4211,-2.4211,-2.3941,-2.3804,-2.348,-2.2803,-2.2254,-2.1943,-2.1733,-2.1742,-2.1696,-2.1687,-2.1687,-2.1499,-2.1132,-2.1177,-2.1553,-2.1033,-2.1024,-2.149,-2.1535,-2.1024,-2.0619,-1.9931,-1.9567,-1.9613,-1.9147,-1.9039,-1.9222,-1.8985,-1.9039,-1.9322,-1.9276,-1.9733,-1.9918,-2.0198,-2.0309,-2.0345,-2.0259,-2.0207,-1.9952,-1.9104,-1.9067,-1.993,-1.9814,-1.9041,-1.8448,-1.792,-1.7596,-1.7406,-1.7327,-1.7269,-1.735,-1.7504,-1.8078,-1.8758,-1.9476,-2.0215,-2.0411,-2.0489,-2.0615,-2.63,-2.6591,-2.6591,-2.6591,-2.6591,-2.6591,-2.6591,-2.6591,-2.6591,-2.6646,-2.6774,-2.6802,-2.6903,-2.7022,-2.6995,-2.6866,-2.682,-2.6793,-2.6637,-2.6619,-2.6591,-2.6591,-2.6591,-2.6591,-2.6591,-2.6591,-2.6591,-2.6591,-2.6591,-2.6591,-2.6591,-2.6591,-2.6573,-2.6206,-2.5656,-2.5207,-2.4872,-2.4532,-2.4367,-2.4211,-2.4211,-2.4211,-2.4211,-2.4211,-2.4211,-2.4211,-2.4211,-2.4211,-2.4211,-2.4211,-2.4211,-2.4211,-2.4211,-2.4211,-2.4211,-2.4211,-2.4174,-2.3923,-2.3547,-2.3306,-2.2757,-2.2272,-2.2016,-2.1906,-2.1842,-2.1787,-2.1437,-2.1087,-2.0538,-2.0439,-2.0546,-1.9977,-2.0068,-2.0529,-2.0393,-1.9886,-1.9567,-1.888,-1.8557,-1.8519,-1.8048,-1.8087,-1.8079,-1.7623,-1.7343,-1.7723,-1.8048,-1.8596,-1.9093,-1.9231,-1.9322,-1.9222,-1.9169,-1.8959,-1.8766,-1.8458,-1.8688,-1.9427,-1.8883,-1.8077,-1.7811,-1.7246,-1.6957,-1.6639,-1.6442,-1.6411,-1.6631,-1.6944,-1.7278,-1.781,-1.8539,-1.9236,-2.0019,-2.0273,-2.037,-2.6309,-2.66,-2.66,-2.6609,-2.6619,-2.6655,-2.6628,-2.66,-2.6619,-2.683,-2.715,-2.716,-2.7334,-2.7702,-2.7767,-2.7555,-2.7298,-2.7205,-2.6967,-2.6747,-2.6719,-2.6664,-2.66,-2.6591,-2.6591,-2.6591,-2.6591,-2.6591,-2.6591,-2.6591,-2.6591,-2.6591,-2.6591,-2.6325,-2.5968,-2.5635,-2.5203,-2.4771,-2.4486,-2.4321,-2.4238,-2.4211,-2.4211,-2.4211,-2.4211,-2.4211,-2.4211,-2.4211,-2.4211,-2.4211,-2.4211,-2.4211,-2.4211,-2.4211,-2.4211,-2.4211,-2.4211,-2.3726,-2.342,-2.3196,-2.284,-2.2212,-2.21,-2.2216,-2.2053,-2.1707,-2.1181,-2.052,-1.9883,-1.9442,-1.9117,-1.898,-1.888,-1.8972,-1.8972,-1.8742,-1.8557,-1.8234,-1.7917,-1.7505,-1.6756,-1.652,-1.652,-1.6244,-1.652,-1.6615,-1.6943,-1.699,-1.7397,-1.7498,-1.7591,-1.7505,-1.7451,-1.7444,-1.736,-1.7502,-1.7764,-1.8377,-1.7675,-1.6926,-1.6726,-1.6736,-1.6499,-1.6155,-1.5596,-1.5555,-1.598,-1.6186,-1.6282,-1.6896,-1.7585,-1.8387,-1.9163,-1.9703,-1.9904,-2.6179,-2.6672,-2.6646,-2.6747,-2.6995,-2.7004,-2.6848,-2.6646,-2.6866,-2.7095,-2.7243,-2.7537,-2.7701,-2.7813,-2.7813,-2.771,-2.7646,-2.7545,-2.7325,-2.7132,-2.6958,-2.6811,-2.6738,-2.66,-2.6591,-2.6591,-2.6591,-2.6591,-2.6591,-2.6591,-2.6591,-2.6591,-2.6591,-2.6472,-2.6342,-2.6048,-2.5445,-2.4959,-2.4675,-2.4486,-2.4284,-2.422,-2.422,-2.4211,-2.4211,-2.4211,-2.4211,-2.4211,-2.4211,-2.4211,-2.4211,-2.4211,-2.4211,-2.4211,-2.4211,-2.4102,-2.3587,-2.2868,-2.2681,-2.2096,-2.1703,-2.1627,-2.1236,-2.1281,-2.1341,-2.1285,-2.0712,-1.9898,-1.9153,-1.8699,-1.8371,-1.8232,-1.8185,-1.8278,-1.8145,-1.7864,-1.7675,-1.7399,-1.7108,-1.6786,-1.6035,-1.592,-1.5825,-1.5872,-1.6103,-1.5967,-1.5974,-1.6021,-1.6116,-1.6353,-1.6447,-1.6447,-1.6487,-1.6709,-1.6763,-1.6922,-1.7023,-1.7102,-1.6582,-1.6285,-1.6455,-1.6419,-1.6095,-1.5784,-1.5538,-1.542,-1.5556,-1.5683,-1.5742,-1.6046,-1.6679,-1.7525,-1.8262,-1.8825,-1.9171,-2.6218,-2.6742,-2.6975,-2.7196,-2.7389,-2.7463,-2.726,-2.7123,-2.7315,-2.7481,-2.7682,-2.7921,-2.8095,-2.8327,-2.8336,-2.8196,-2.8022,-2.8003,-2.7801,-2.7462,-2.7288,-2.7059,-2.6866,-2.6674,-2.6591,-2.6591,-2.6591,-2.6591,-2.6591,-2.6591,-2.6591,-2.6591,-2.6591,-2.6591,-2.6545,-2.6342,-2.5903,-2.539,-2.4968,-2.4675,-2.4505,-2.4303,-2.422,-2.422,-2.422,-2.4211,-2.4211,-2.4211,-2.4202,-2.4211,-2.4211,-2.4211,-2.4211,-2.4211,-2.3746,-2.3596,-2.3029,-2.2316,-2.187,-2.1371,-2.103,-2.0837,-2.0577,-2.0546,-2.0441,-2.0362,-1.9749,-1.9078,-1.842,-1.7933,-1.7712,-1.7562,-1.7713,-1.7864,-1.7481,-1.7104,-1.6822,-1.6532,-1.6319,-1.6121,-1.5939,-1.5858,-1.5825,-1.5832,-1.5825,-1.5825,-1.5872,-1.5872,-1.592,-1.6062,-1.6116,-1.6116,-1.6157,-1.6244,-1.6298,-1.6353,-1.644,-1.648,-1.6271,-1.6135,-1.6257,-1.6128,-1.5903,-1.5746,-1.5595,-1.5531,-1.5414,-1.5353,-1.5417,-1.5735,-1.5996,-1.6497,-1.729,-1.8035,-1.8288,-2.6495,-2.6857,-2.7532,-2.7822,-2.7822,-2.7792,-2.7868,-2.782,-2.7866,-2.8049,-2.8324,-2.8416,-2.8608,-2.8764,-2.8792,-2.8663,-2.8507,-2.8425,-2.8214,-2.782,-2.76,-2.7352,-2.7059,-2.6839,-2.6701,-2.6628,-2.6591,-2.6591,-2.6591,-2.6591,-2.6591,-2.6591,-2.6591,-2.6591,-2.6564,-2.6581,-2.6252,-2.5931,-2.539,-2.5029,-2.4757,-2.4532,-2.4248,-2.4275,-2.4248,-2.4211,-2.4211,-2.4202,-2.4152,-2.4102,-2.4211,-2.4152,-2.3954,-2.3845,-2.3288,-2.2577,-2.2013,-2.1446,-2.0826,-2.0313,-2.0269,-2.0321,-2.057,-1.9869,-1.9438,-1.9695,-1.9288,-1.8464,-1.7818,-1.7471,-1.726,-1.7106,-1.719,-1.7239,-1.7043,-1.6854,-1.6755,-1.6558,-1.6462,-1.6279,-1.6106,-1.6019,-1.5952,-1.5959,-1.5832,-1.5825,-1.5825,-1.5825,-1.5825,-1.5872,-1.5872,-1.5927,-1.5967,-1.6015,-1.5967,-1.6015,-1.592,-1.592,-1.5879,-1.592,-1.5994,-1.5913,-1.5732,-1.5691,-1.5656,-1.5469,-1.5315,-1.5354,-1.5401,-1.5535,-1.5696,-1.5651,-1.625,-1.7124,-1.7318,-2.6942,-2.7325,-2.7964,-2.8067,-2.7895,-2.8113,-2.8251,-2.8278,-2.8572,-2.8563,-2.8471,-2.8691,-2.8865,-2.8966,-2.8984,-2.8883,-2.8838,-2.8737,-2.8581,-2.8333,-2.8058,-2.7673,-2.7288,-2.7086,-2.6866,-2.6655,-2.6591,-2.6591,-2.6591,-2.6591,-2.6591,-2.6591,-2.6591,-2.6591,-2.6591,-2.6591,-2.6472,-2.6307,-2.5771,-2.5325,-2.5097,-2.4862,-2.4689,-2.4569,-2.4477,-2.4157,-2.4121,-2.4102,-2.3596,-2.3197,-2.3904,-2.3696,-2.2987,-2.2929,-2.2367,-2.1395,-2.0621,-2.0158,-1.9642,-1.9131,-1.8826,-1.8617,-1.8565,-1.8311,-1.8345,-1.8957,-1.8862,-1.7983,-1.7408,-1.7103,-1.6928,-1.6837,-1.676,-1.676,-1.6754,-1.6754,-1.6754,-1.672,-1.67,-1.6526,-1.6326,-1.6213,-1.6139,-1.6019,-1.5879,-1.5825,-1.5825,-1.5825,-1.5825,-1.5825,-1.5825,-1.5825,-1.5825,-1.5825,-1.5825,-1.5825,-1.5825,-1.5825,-1.5825,-1.5825,-1.5825,-1.5798,-1.5772,-1.5785,-1.5705,-1.5565,-1.5524,-1.5631,-1.5685,-1.5665,-1.5665,-1.5705,-1.5732,-1.6415,-1.635,-2.7298,-2.757,-2.8346,-2.8526,-2.8379,-2.8563,-2.8663,-2.87,-2.8893,-2.8865,-2.8691,-2.8874,-2.8984,-2.8984,-2.8984,-2.8984,-2.8984,-2.8975,-2.8838,-2.8682,-2.8443,-2.8132,-2.7765,-2.737,-2.7105,-2.6866,-2.6646,-2.6591,-2.6582,-2.6591,-2.6591,-2.6527,-2.6527,-2.6527,-2.6527,-2.6591,-2.6527,-2.6564,-2.5865,-2.538,-2.5129,-2.4972,-2.4889,-2.4817,-2.4583,-2.4154,-2.3514,-2.3388,-2.2778,-2.2165,-2.2367,-2.2367,-2.1912,-2.1802,-2.1183,-2.0364,-1.9591,-1.8975,-1.8506,-1.8048,-1.7589,-1.7589,-1.7589,-1.7793,-1.7786,-1.831,-1.8303,-1.7549,-1.7542,-1.73,-1.7286,-1.7208,-1.7201,-1.7201,-1.7201,-1.7201,-1.7128,-1.7048,-1.6994,-1.6887,-1.668,-1.6486,-1.6393,-1.6233,-1.6099,-1.6012,-1.5985,-1.5858,-1.5845,-1.5825,-1.5825,-1.5825,-1.5825,-1.5825,-1.5825,-1.5825,-1.5825,-1.5825,-1.5825,-1.5825,-1.5825,-1.5825,-1.5825,-1.5818,-1.5812,-1.5792,-1.5798,-1.5825,-1.5825,-1.5765,-1.5778,-1.5812,-1.5825,-1.5825,-1.5886,-2.7623,-2.7794,-2.8651,-2.8975,-2.8984,-2.8975,-2.8966,-2.8975,-2.8984,-2.8984,-2.8948,-2.8966,-2.8984,-2.8984,-2.8984,-2.8984,-2.8984,-2.8984,-2.8948,-2.8865,-2.8636,-2.8388,-2.8095,-2.7737,-2.7416,-2.7059,-2.6765,-2.6646,-2.6582,-2.6354,-2.6136,-2.63,-2.6245,-2.6136,-2.6309,-2.6309,-2.619,-2.5962,-2.5434,-2.4799,-2.4798,-2.488,-2.4683,-2.4639,-2.4377,-2.3704,-2.2909,-2.2241,-2.1784,-2.1191,-2.0775,-2.0775,-2.0775,-2.0621,-1.9952,-1.9287,-1.8916,-1.8349,-1.7943,-1.774,-1.7589,-1.7589,-1.7589,-1.7582,-1.7635,-1.7628,-1.7628,-1.7621,-1.7615,-1.7555,-1.7535,-1.7581,-1.7581,-1.7581,-1.7581,-1.7581,-1.7422,-1.7335,-1.7268,-1.7239,-1.7001,-1.6794,-1.6653,-1.6486,-1.6353,-1.6315,-1.6139,-1.5985,-1.5879,-1.5845,-1.5825,-1.5825,-1.5825,-1.5825,-1.5825,-1.5825,-1.5825,-1.5825,-1.5825,-1.5825,-1.5825,-1.5825,-1.5825,-1.5825,-1.5825,-1.5825,-1.5825,-1.5825,-1.5825,-1.5825,-1.5825,-1.5825,-1.5825,-1.5825,-1.5825,-2.8212,-2.8756,-2.8957,-2.8984,-2.8984,-2.8984,-2.8984,-2.8984,-2.8984,-2.8984,-2.8984,-2.8984,-2.8984,-2.8984,-2.8984,-2.8984,-2.8984,-2.8984,-2.8984,-2.8929,-2.8838,-2.8654,-2.829,-2.7864,-2.768,-2.7111,-2.6554,-2.6528,-2.6081,-2.5514,-2.5119,-2.511,-2.4103,-2.427,-2.5119,-2.5119,-2.5119,-2.4953,-2.4667,-2.4103,-2.3335,-2.3382,-2.3603,-2.3305,-2.2753,-2.2736,-2.2449,-2.1738,-2.0712,-1.9901,-1.9546,-1.9539,-1.9539,-1.9487,-1.8975,-1.8513,-1.8146,-1.7996,-1.7687,-1.7589,-1.7589,-1.7589,-1.7589,-1.7589,-1.7582,-1.7635,-1.7635,-1.7582,-1.7575,-1.7575,-1.7562,-1.7569,-1.7569,-1.7569,-1.7569,-1.7569,-1.7515,-1.7495,-1.7468,-1.7427,-1.7241,-1.7114,-1.7085,-1.6904,-1.6647,-1.6533,-1.6366,-1.6233,-1.6159,-1.6019,-1.5865,-1.5858,-1.5872,-1.5825,-1.5825,-1.5825,-1.5825,-1.5825,-1.5825,-1.5825,-1.5825,-1.5825,-1.5825,-1.5825,-1.5825,-1.5825,-1.5825,-1.5825,-1.5825,-1.5825,-1.5825,-1.5825,-1.5825,-1.5825,-1.5825]},{"header":{"parameterUnit":"m.s-1","parameterCategory":1,"la1":31.0,"la2":29.5877,"lo1":-88.7671,"lo2":-86.6584,"dy":0.0162,"dx":0.0185,"nx":115,"ny":88,"refTime":"2023-10-24T18:00:00:Z","depth":0,"parameterNumber":3,"parameterNumberName":"V-component_of_WINDS"},"data":[0.0,0.0,0.0,0.0,0.0,0.0,0.0,0.0,0.0,0.0,0.0,0.0,0.0,0.0,0.0,0.0,0.0,0.0,0.0,0.0,0.0,0.0,0.0,0.0,0.0,0.0,0.0,0.0,0.0,0.0,0.0,0.0,0.0,0.0,0.0,0.0,0.0,0.0,0.0,0.0,0.0,0.0,0.0,0.0,0.0,0.0,0.0,0.0,0.0,0.0,0.0,0.0,0.0,0.0,0.0,0.0,0.0,0.0,0.0,0.0,0.0,0.0,0.0,0.0,0.0,0.0,0.0,0.0,0.0,0.0,0.0,0.0,0.0,0.0,0.0,0.0,0.0,0.0,0.0,0.0,0.0,0.0,0.0,0.0,0.0,0.0,0.0,0.0,0.0,0.0,0.0,0.0,0.0,0.0,0.0,0.0,0.0,0.0,0.0,0.0,0.0,0.0,0.0,0.0,0.0,0.0,0.0,0.0,0.0,0.0,0.0,0.0,0.0,0.0,0.0,0.0,0.0,0.0,0.0,0.0,0.0,0.0,0.0,0.0,0.0,0.0,0.0,0.0,0.0,0.0,0.0,0.0,0.0,0.0,0.0,0.0,0.0,0.0,0.0,0.0,0.0,0.0,0.0,0.0,0.0,0.0,0.0,0.0,0.0,0.0,0.0,0.0,0.0,0.0,0.0,0.0,0.0,0.0,0.0,0.0,0.0,0.0,0.0,0.0,0.0,0.0,0.0,0.0,0.0,0.0,0.0,0.0,0.0,0.0,0.0,0.0,0.0,0.0,0.0,0.0,0.0,0.0,0.0,0.0,0.0,0.0,0.0,0.0,0.0,0.0,0.0,0.0,0.0,0.0,0.0,0.0,0.0,0.0,0.0,0.0,0.0,0.0,0.0,0.0,0.0,0.0,0.0,0.0,0.0,0.0,0.0,0.0,0.0,0.0,0.0,0.0,0.0,0.0,0.0,0.0,0.0,0.0,0.0,0.0,0.0,0.0,0.0,0.0,0.0,0.0,0.0,0.0,0.0,0.0,0.0,0.0,0.0,0.0,0.0,0.0,0.0,0.0,0.0,0.0,0.0,0.0,0.0,0.0,0.0,0.0,0.0,0.0,0.0,0.0,0.0,0.0,0.0,0.0,0.0,0.0,0.0,0.0,0.0,0.0,0.0,0.0,0.0,0.0,0.0,0.0,0.0,0.0,0.0,0.0,0.0,0.0,0.0,0.0,0.0,0.0,0.0,0.0,0.0,0.0,0.0,0.0,0.0,0.0,0.0,0.0,0.0,0.0,0.0,0.0,0.0,0.0,0.0,0.0,0.0,0.0,0.0,0.0,0.0,0.0,0.0,0.0,0.0,0.0,0.0,0.0,0.0,0.0,0.0,0.0,0.0,0.0,0.0,0.0,0.0,0.0,0.0,0.0,0.0,0.0,0.0,0.0,0.0,0.0,0.0,0.0,0.0,0.0,0.0,0.0,0.0,0.0,0.0,0.0,0.0,0.0,0.0,0.0,0.0,0.0,0.0,0.0,0.0,0.0,0.0,0.0,0.0,0.0,0.0,0.0,0.0,0.0,0.0,0.0,0.0,0.0,0.0,0.0,0.0,0.0,0.0,0.0,0.0,0.0,0.0,0.0,0.0,0.0,0.0,0.0,0.0,0.0,0.0,0.0,0.0,0.0,0.0,0.0,0.0,0.0,0.0,0.0,0.0,0.0,0.0,0.0,0.0,0.0,0.0,0.0,0.0,0.0,0.0,0.0,0.0,0.0,0.0,0.0,0.0,0.0,0.0,0.0,0.0,0.0,0.0,0.0,0.0,0.0,0.0,0.0,0.0,0.0,0.0,0.0,0.0,0.0,0.0,0.0,0.0,0.0,0.0,0.0,0.0,0.0,0.0,0.0,0.0,0.0,0.0,0.0,0.0,0.0,0.0,0.0,0.0,0.0,0.0,0.0,0.0,0.0,0.0,0.0,0.0,0.0,0.0,0.0,0.0,0.0,0.0,0.0,0.0,0.0,0.0,0.0,0.0,0.0,0.0,0.0,0.0,0.0,0.0,0.0,0.0,0.0,0.0,0.0,0.0,0.0,0.0,0.0,0.0,0.0,0.0,0.0,0.0,0.0,0.0,0.0,0.0,0.0,0.0,0.0,0.0,0.0,0.0,0.0,0.0,0.0,0.0,0.0,0.0,0.0,0.0,0.0,0.0,0.0,0.0,0.0,0.0,0.0,0.0,0.0,0.0,0.0,0.0,0.0,0.0,0.0,0.0,0.0,0.0,0.0,0.0,0.0,0.0,0.0,0.0,0.0,0.0,0.0,0.0,0.0,0.0,0.0,0.0,0.0,0.0,0.0,0.0,0.0,0.0,0.0,0.0,0.0,0.0,0.0,0.0,0.0,0.0,0.0,0.0,0.0,0.0,0.0,0.0,0.0,0.0,0.0,0.0,0.0,0.0,0.0,0.0,0.0,0.0,0.0,0.0,0.0,0.0,0.0,0.0,0.0,0.0,0.0,0.0,0.0,0.0,0.0,0.0,0.0,0.0,0.0,0.0,0.0,0.0,0.0,0.0,0.0,0.0,0.0,0.0,0.0,0.0,0.0,0.0,0.0,0.0,0.0,0.0,0.0,0.0,0.0,0.0,0.0,0.0,0.0,0.0,0.0,0.0,0.0,0.0,0.0,0.0,0.0,0.0,0.0,0.0,0.0,0.0,0.0,0.0,0.0,0.0,0.0,0.0,0.0,0.0,0.0,0.0,0.0,0.0,0.0,0.0,0.0,0.0,0.0,0.0,0.0,0.0,0.0,0.0,0.0,0.0,0.0,0.0,0.0,0.0,0.0,0.0,0.0,0.0,0.0,0.0,0.0,0.0,0.0,0.0,0.0,0.0,0.0,0.0,0.0,0.0,0.0,0.0,0.0,0.0,0.0,0.0,0.0,0.0,0.0,0.0,0.0,0.0,0.0,0.0,0.0,0.0,0.0,0.0,0.0,0.0,0.0,0.0,0.0,0.0,0.0,0.0,0.0,0.0,0.0,0.0,0.0,0.0,0.0,0.0,0.0,0.0,0.0,0.0,0.0,0.0,0.0,0.0,0.0,0.0,0.0,0.0,0.0,0.0,0.0,0.0,0.0,0.0,0.0,0.0,0.0,0.0,0.0,0.0,0.0,0.0,0.0,0.0,0.0,0.0,0.0,0.0,0.0,0.0,0.0,0.0,0.0,0.0,0.0,0.0,0.0,0.0,0.0,0.0,0.0,0.0,0.0,0.0,0.0,0.0,0.0,0.0,0.0,0.0,0.0,0.0,0.0,0.0,0.0,0.0,0.0,0.0,0.0,0.0,0.0,0.0,0.0,0.0,0.0,0.0,0.0,0.0,0.0,0.0,0.0,0.0,0.0,0.0,0.0,0.0,0.0,0.0,0.0,0.0,0.0,0.0,0.0,0.0,0.0,0.0,0.0,0.0,0.0,0.0,0.0,0.0,0.0,0.0,0.0,0.0,0.0,0.0,0.0,0.0,0.0,0.0,0.0,0.0,0.0,0.0,0.0,0.0,0.0,0.0,0.0,0.0,0.0,0.0,0.0,0.0,0.0,0.0,0.0,0.0,0.0,0.0,0.0,0.0,0.0,0.0,0.0,0.0,0.0,0.0,0.0,0.0,0.0,0.0,0.0,0.0,0.0,0.0,0.0,0.0,0.0,0.0,0.0,0.0,0.0,0.0,0.0,0.0,0.0,0.0,0.0,0.0,0.0,0.0,0.0,0.0,0.0,0.0,0.0,0.0,0.0,0.0,0.0,0.0,0.0,0.0,0.0,0.0,0.0,0.0,0.0,0.0,0.0,0.0,0.0,0.0,0.0,0.0,0.0,0.0,0.0,0.0,0.0,0.0,0.0,0.0,0.0,0.0,0.0,0.0,0.0,0.0,0.0,0.0,0.0,0.0,0.0,0.0,0.0,0.0,0.0,0.0,0.0,0.0,0.0,0.0,0.0,0.0,0.0,0.0,0.0,0.0,0.0,0.0,0.0,0.0,0.0,0.0,0.0,0.0,0.0,0.0,0.0,0.0,0.0,0.0,0.0,0.0,0.0,0.0,0.0,0.0,0.0,0.0,0.0,0.0,0.0,0.0,0.0,0.0,0.0,0.0,0.0,0.0,0.0,0.0,0.0,0.0,0.0,0.0,0.0,0.0,0.0,0.0,0.0,0.0,0.0,0.0,0.0,0.0,0.0,0.0,0.0,0.0,0.0,0.0,0.0,0.0,0.0,0.0,0.0,0.4303,0.0,0.0,0.0,0.0,0.0,0.0,0.0,0.0,0.0,0.0,0.0,0.0,0.0,0.0,0.0,0.0,0.0,0.0,0.0,0.0,0.0,0.0,0.0,0.0,0.0,0.0,0.0,0.0,0.0,0.0,0.0,0.0,0.0,0.0,0.0,0.0,0.0,0.0,0.0,0.0,0.0,0.0,0.0,0.0,0.0,0.0,0.0,0.0,0.0,0.0,0.0,0.0,0.0,0.0,0.0,0.0,0.0,0.0,0.0,0.0,0.0,0.0,0.0,0.0,0.0,0.0,0.0,0.0,0.0,0.0,0.0,0.0,0.0,0.0,0.0,0.0,0.0,0.0,0.0,0.0,0.0,0.0,0.0,0.0,0.0,0.0,0.0,0.0,0.0,0.0,0.0,0.0,0.0,0.0,0.0,0.0,0.0,0.0,0.0,0.0,0.0,0.0,0.0,0.0,0.0,0.0,0.0,0.0,0.0,0.0,0.4572,0.4509,0.442,0.4399,0.4303,0.0,0.0,0.0,0.0,0.0,0.0,0.0,0.0,0.0,0.0,0.0,0.0,0.0,0.0,0.0,0.0,0.0,0.0,0.0,0.0,0.0,0.0,0.0,0.0,0.0,0.0,0.0,0.0,0.0,0.0,0.0,0.0,0.0,0.0,0.0,0.0,0.0,0.0,0.0,0.0,0.0,0.0,0.0,0.0,0.0,0.0,0.0,0.0,0.0,0.0,0.0,0.0,0.0,0.0,0.0,0.0,0.0,0.0,0.0,0.0,0.0,0.0,0.0,0.0,0.0,0.0,0.0,0.0,0.0,0.0,0.0,0.0,0.0,0.0,0.0,0.0,0.0,0.0,0.0,0.0,0.0,0.0,0.0,0.0,0.0,0.0,0.0,0.0,0.0,0.0,0.0,0.0,0.0,0.0,0.0,0.0,0.0,0.0,0.0,0.0,0.0,0.0,0.0,0.0,0.0,0.0,0.0,0.0,0.0,0.0,0.0,0.0,0.4641,0.4723,0.48,0.0,0.0,0.0,0.0,0.0,0.0,0.0,0.0,0.0,0.0,0.0,0.0,0.0,0.0,0.0,0.0,0.0,0.0,0.0,0.0,0.0,0.0,0.0,0.0,0.0,0.0,0.0,0.0,0.0,0.0,0.0,0.0,0.0,0.0,0.0,0.0,0.0,0.0,0.0,0.0,0.0,0.0,0.0,0.0,0.0,0.0,0.0,0.0,0.0,0.0,0.0,0.0,0.0,0.0,0.0,0.0,0.0,0.0,0.0,0.0,0.0,0.0,0.0,0.0,0.0,0.0,0.0,0.0,0.0,0.0,0.0,0.0,0.0,0.0,0.0,0.0,0.0,0.0,0.0,0.0,0.0,0.0,0.0,0.0,0.0,0.0,0.0,0.0,0.0,0.0,0.0,0.0,0.0,0.0,0.0,0.0,0.0,0.0,0.0,0.0,0.0,0.0,0.0,0.0,0.0,0.0,0.0,0.0,0.0,0.0,0.4774,0.476,0.5083,0.0,0.6189,0.0,0.0,0.0,0.0,0.0,0.0,0.0,0.0,0.0,0.0,0.0,0.0,0.0,0.0,0.0,0.0,0.0,0.0,0.0,0.0,0.0,0.0,0.0,0.0,0.0,0.0,0.0,0.0,0.0,0.0,0.0,0.0,0.0,0.0,0.0,0.0,0.0,0.0,0.0,0.0,0.0,0.0,0.0,0.0,0.0,0.0,0.0,0.0,0.0,0.0,0.0,0.0,0.0,0.0,0.0,0.0,0.0,0.0,0.0,0.0,0.0,0.0,0.0,0.0,0.0,0.0,0.0,0.0,0.0,0.0,0.0,0.0,0.0,0.0,0.0,0.0,0.0,0.0,0.0,0.0,0.0,0.0,0.0,0.0,0.0,0.0,0.0,0.0,0.0,0.0,0.0,0.0,0.0,0.0,0.0,0.0,0.0,0.0,0.0,0.0,0.0,0.0,0.0,0.0,0.0,0.0,0.0,0.0,0.0,0.0,0.5733,0.5912,0.5874,0.6131,0.0,0.0,0.0,0.0,0.0,0.0,0.0,0.0,0.0,0.0,0.0,0.0,0.0,0.0,0.0,0.0,0.0,0.0,0.0,0.0,0.0,0.0,0.0,0.0,0.0,0.0,0.0,0.0,0.0,0.0,0.0,0.0,0.0,0.0,0.0,0.0,0.0,0.0,0.0,0.0,0.0,0.0,0.0,0.0,0.0,0.0,0.0,0.0,0.0,0.0,0.0,0.0,0.0,0.0,0.0,0.0,0.0,0.0,0.0,0.0,0.0,0.0,0.0,0.0,0.0,0.0,0.0,0.0,0.0,0.0,0.0,0.0,0.0,0.0,0.0,0.0,0.0,0.0,0.0,0.0,0.0,0.0,0.0,0.0,0.0,0.0,0.0,0.0,0.0,0.0,0.0,0.0,0.0,0.0,0.0,0.0,0.0,0.0,0.0,0.0,0.0,0.0,0.0,0.0,0.0,0.0,0.0,0.0,0.0,0.0,0.6626,0.6813,0.7056,0.6849,0.6986,0.7471,0.0,0.0,0.0,0.0,0.0,0.0,0.0,0.0,0.0,0.0,0.0,0.0,0.0,0.0,0.0,0.0,0.0,0.0,0.0,0.0,0.0,0.0,0.0,0.0,0.0,0.0,0.0,0.0,0.0,0.0,0.0,0.0,0.0,0.0,0.0,0.0,0.0,0.0,0.0,0.0,0.0,0.0,0.0,0.0,0.0,0.0,0.0,0.0,0.0,0.0,0.0,0.0,0.0,0.0,0.0,0.0,0.0,0.0,0.0,0.0,0.0,0.0,0.0,0.0,0.0,0.0,0.0,0.0,0.0,0.0,0.0,0.0,0.0,0.0,0.0,0.0,0.0,0.0,0.0,0.0,0.0,0.0,0.0,0.0,0.0,0.0,0.0,0.0,0.0,0.0,0.0,0.0,0.0,0.0,0.0,0.0,0.0,0.0,0.0,0.0,0.0,0.0,0.0,0.0,0.0,0.0,0.0,0.0,0.6899,0.7625,0.803,0.8065,0.8038,0.8241,0.0,0.0,0.0,0.0,0.0,0.0,0.0,0.0,0.0,0.0,0.0,0.0,0.0,0.0,0.0,0.0,0.0,0.0,0.0,0.0,0.0,0.0,0.0,0.0,0.0,0.0,0.0,0.0,0.0,0.0,0.0,0.0,0.0,0.0,0.0,0.0,0.0,0.0,0.0,0.0,0.0,0.0,0.0,0.0,0.0,0.0,0.0,0.0,0.0,0.0,0.0,0.0,0.0,0.0,0.0,0.0,0.0,0.0,0.0,0.0,0.0,0.0,0.0,0.0,0.0,0.0,0.0,0.0,0.0,0.0,0.0,0.0,0.0,0.0,0.0,0.0,0.0,0.0,0.0,0.0,0.0,0.0,0.0,0.0,0.0,0.0,0.0,0.0,0.0,0.0,0.0,0.0,0.0,0.0,0.0,0.0,0.0,0.0,0.0,0.0,0.0,0.0,0.0,0.0,0.0,0.0,0.0,0.0,0.0,0.8423,0.8998,0.9271,0.9265,0.9117,0.9145,0.0,0.0,0.0,0.0,0.0,0.0,0.0,0.0,0.0,0.0,0.0,0.0,0.0,0.0,0.0,0.0,0.0,0.0,0.0,0.0,0.0,0.0,0.0,0.0,0.0,0.0,0.0,0.0,0.0,0.0,0.0,0.0,0.0,0.0,0.0,0.0,0.0,0.0,0.0,0.0,0.0,0.0,0.0,0.0,0.0,0.0,0.0,0.0,0.0,0.0,0.0,0.0,0.0,0.0,0.0,0.0,0.0,0.0,0.0,0.0,0.0,0.0,0.0,0.0,0.0,0.0,0.0,0.0,0.0,0.0,0.0,0.0,0.0,0.0,0.0,0.0,0.0,0.0,0.0,0.0,0.0,0.0,0.0,0.0,0.0,0.0,0.0,0.0,0.0,0.0,0.0,0.0,0.0,0.0,0.0,0.0,0.0,0.0,0.0,0.0,0.0,0.0,0.0,0.0,0.0,0.0,0.0,0.0,0.0,0.9868,0.0,1.0099,1.0105,0.9983,0.9856,0.0,0.0,0.0,0.0,0.0,0.0,0.0,0.0,0.0,0.0,0.0,0.0,0.0,0.0,0.0,0.0,0.0,0.0,0.0,0.0,0.0,0.0,0.0,0.0,0.0,0.0,0.0,0.0,0.0,0.0,0.0,0.0,0.0,0.0,0.0,0.0,0.0,0.0,0.0,0.0,0.0,0.0,0.0,0.0,0.0,0.0,0.0,0.0,0.0,0.0,0.0,0.0,0.0,0.0,0.0,0.0,0.0,0.0,0.0,0.0,0.0,0.0,0.0,0.0,0.0,0.0,0.0,0.0,0.0,0.0,0.0,0.0,0.0,0.0,0.0,0.0,0.0,0.0,0.0,0.0,0.0,0.0,0.0,0.0,0.0,0.0,0.0,0.0,0.0,0.0,0.0,0.0,0.0,0.0,0.0,0.0,0.0,0.0,0.0,0.0,0.0,0.0,0.0,0.0,0.0,0.0,0.0,0.0,1.0293,1.1037,1.07,1.0481,1.0513,1.0507,1.0399,0.0,0.0,0.0,0.0,0.0,0.0,0.0,0.0,0.0,0.0,0.0,0.0,0.0,0.0,0.0,0.0,0.0,0.0,0.0,0.0,0.0,0.0,0.0,0.0,0.0,0.0,0.0,0.0,0.0,0.0,0.0,0.0,0.0,0.0,0.0,0.0,0.0,0.0,0.0,0.0,0.0,0.0,0.0,0.0,0.0,0.0,0.0,0.0,0.0,0.0,0.0,0.0,0.0,0.0,0.0,0.0,0.0,0.0,0.0,0.0,0.0,0.0,0.0,0.0,0.0,0.0,0.0,0.0,0.0,0.0,0.0,0.0,0.0,0.0,0.0,0.0,0.0,0.0,0.0,0.0,0.0,0.0,0.0,0.0,0.0,0.0,0.0,0.0,0.0,0.0,0.0,0.0,0.0,0.0,0.0,0.0,0.0,0.0,0.0,0.0,0.0,0.0,0.0,0.0,0.0,0.0,0.0,0.0,0.0,1.1117,1.0962,1.0925,1.0925,1.0925,1.0883,0.0,0.0,0.0,0.0,0.0,0.0,0.0,0.0,0.0,0.0,0.0,0.0,0.0,0.0,0.0,0.0,0.0,0.0,0.0,0.0,0.0,0.0,0.0,0.0,0.0,0.0,0.0,0.0,0.0,0.0,0.0,0.0,0.0,0.0,0.0,0.0,0.0,0.0,0.0,0.0,0.0,0.0,0.0,0.0,0.0,0.0,0.0,0.0,0.0,0.0,0.0,0.0,0.0,0.0,0.0,0.0,0.0,0.0,0.0,0.0,0.0,0.0,0.0,0.0,0.0,0.0,0.0,0.0,0.0,0.0,0.0,0.0,0.0,0.0,0.0,0.0,0.0,0.0,0.0,0.0,0.0,0.0,0.0,0.0,0.0,0.0,0.0,0.0,0.0,0.0,0.0,0.0,0.0,0.0,0.0,0.0,0.0,0.0,0.0,0.0,0.0,0.0,0.0,0.0,0.0,0.0,0.0,0.0,0.0,1.1335,1.1626,1.1669,1.1446,1.1669,1.1669,1.1434,0.0,0.0,0.0,0.0,0.0,0.0,0.0,0.0,0.0,0.0,0.0,0.0,0.0,0.0,0.0,0.0,0.0,0.0,0.0,0.0,0.0,0.0,0.0,0.0,0.0,0.0,0.0,0.0,0.0,0.0,0.0,0.0,0.0,0.0,0.0,0.0,0.0,0.0,0.0,0.0,0.0,0.0,0.0,0.0,0.0,0.0,0.0,0.0,0.0,0.0,0.0,0.0,0.0,0.0,0.0,0.0,0.0,0.0,0.0,0.0,0.0,0.0,0.0,0.0,0.0,0.0,0.0,0.0,0.0,0.0,0.0,0.0,0.0,0.0,0.0,0.0,0.0,0.0,0.0,0.0,0.0,0.0,0.0,0.0,0.0,0.0,0.0,0.0,0.0,0.0,0.0,0.0,0.0,0.0,0.0,0.0,0.0,0.0,0.0,0.0,0.0,0.0,0.0,0.0,0.0,0.0,0.0,0.0,1.1818,1.2636,1.2709,1.204,1.2489,1.2562,0.0,0.0,0.0,0.0,0.0,0.0,0.0,0.0,0.0,0.0,0.0,0.0,0.0,0.0,0.0,0.0,0.0,0.0,0.0,0.0,0.0,0.0,0.0,0.0,0.0,0.0,0.0,0.0,0.0,0.0,0.0,0.0,0.0,0.0,0.0,0.0,0.0,0.0,0.0,0.0,0.0,0.0,0.0,0.0,0.0,0.0,0.0,0.0,0.0,0.0,0.0,0.0,0.0,0.0,0.0,0.0,0.0,0.0,0.0,0.0,0.0,0.0,0.0,0.0,0.0,0.0,0.0,0.0,0.0,0.0,0.0,0.0,0.0,0.0,0.0,0.0,0.0,0.0,0.0,0.0,0.0,0.0,0.0,0.0,0.0,0.0,0.0,0.0,0.0,0.0,0.0,0.0,0.0,0.0,0.0,0.0,0.0,0.0,0.0,0.0,0.0,0.0,0.0,0.0,0.0,0.0,0.0,0.0,0.0,1.3062,1.4358,1.4142,1.2298,1.1787,1.1929,0.0,0.0,0.0,0.0,0.0,0.0,0.0,0.0,0.0,0.0,0.0,0.0,0.0,0.0,0.0,0.0,0.0,0.0,0.0,0.0,0.0,0.0,0.0,0.0,0.0,0.0,0.0,0.0,0.0,0.0,0.0,0.0,0.0,0.0,0.0,0.0,0.0,0.0,0.0,0.0,0.0,0.0,0.0,0.0,0.0,0.0,0.0,0.0,0.0,0.0,0.0,0.0,0.0,0.0,0.0,0.0,0.0,0.0,0.0,0.0,0.0,0.0,0.0,0.0,0.0,0.0,0.0,0.0,0.0,0.0,0.0,0.0,0.0,0.0,0.0,0.0,0.0,0.0,0.0,0.0,0.0,0.0,0.0,0.0,0.0,0.0,0.0,0.0,0.0,0.0,0.0,0.0,0.0,0.0,0.0,0.0,0.0,0.0,0.0,0.0,0.0,0.0,0.0,0.0,0.0,0.0,0.0,0.0,1.3564,1.3962,1.4752,1.4637,1.3535,1.3222,1.3266,0.0,0.0,0.0,0.0,0.0,0.0,0.0,0.0,0.0,0.0,0.0,0.0,0.0,0.0,0.0,0.0,0.0,0.0,0.0,0.0,0.0,0.0,0.0,0.0,0.0,0.0,0.0,0.0,0.0,0.0,0.0,0.0,0.0,0.0,0.0,0.0,0.0,0.0,0.0,0.0,0.0,0.0,0.0,0.0,0.0,0.0,0.0,0.0,0.0,0.0,0.0,0.0,0.0,0.0,0.0,0.0,0.0,0.0,0.0,0.0,0.0,0.0,0.0,0.0,0.0,0.0,0.0,0.0,0.0,0.0,0.0,0.0,0.0,0.0,0.0,0.0,0.0,0.0,0.0,0.0,0.0,0.0,0.0,0.0,0.0,0.0,0.0,0.0,0.0,0.0,0.0,0.0,0.0,0.0,0.0,0.0,0.0,0.0,0.0,0.0,0.0,0.0,0.0,0.0,0.0,0.0,0.0,0.0,1.3882,1.4744,1.4629,1.4816,1.5311,1.5507,1.5436,0.0,0.0,0.0,0.0,0.0,0.0,0.0,0.0,0.0,0.0,0.0,0.0,0.0,0.0,0.0,0.0,0.0,0.0,0.0,0.0,0.0,0.0,0.0,0.0,0.0,0.0,0.0,0.0,0.0,0.0,0.0,0.0,0.0,0.0,0.0,0.0,0.0,0.0,0.0,0.0,0.0,0.0,0.0,0.0,0.0,0.0,0.0,0.0,0.0,0.0,0.0,0.0,0.0,0.0,0.0,0.0,0.0,0.0,0.0,0.0,0.0,0.0,0.0,0.0,0.0,0.0,0.0,0.0,0.0,0.0,0.0,0.0,0.0,0.0,0.0,0.0,0.0,0.0,0.0,0.0,0.0,0.0,0.0,0.0,0.0,0.0,0.0,0.0,0.0,0.0,0.0,0.0,0.0,0.0,0.0,0.0,0.0,0.0,0.0,0.0,0.0,0.0,0.0,0.0,0.0,0.0,0.0,0.0,1.5321,1.5912,1.6184,1.6263,1.6061,1.4958,1.4772,0.0,0.0,0.0,0.0,0.0,0.0,0.0,0.0,0.0,0.0,0.0,0.0,0.0,0.0,0.0,0.0,0.0,0.0,0.0,0.0,0.0,0.0,0.0,0.0,0.0,0.0,0.0,0.0,0.0,0.0,0.0,0.0,0.0,0.0,0.0,0.0,0.0,0.0,0.0,0.0,0.0,0.0,0.0,0.0,0.0,0.0,0.0,0.0,1.2442,0.0,0.0,0.0,0.0,0.0,0.0,0.0,0.0,0.0,0.0,0.0,0.0,0.0,0.0,0.0,0.0,0.0,0.0,0.0,0.0,0.0,0.0,0.0,0.0,0.0,0.0,0.0,0.0,0.0,0.0,0.0,0.0,0.0,0.0,0.0,0.0,0.0,0.0,0.0,0.0,0.0,0.0,0.0,0.0,0.0,0.0,0.0,0.0,0.0,0.0,0.0,0.0,0.0,0.0,0.0,0.0,0.0,0.0,0.0,1.6009,1.6551,1.6795,1.6795,1.656,1.5781,1.5675,0.0,0.0,0.0,0.0,0.0,0.0,0.0,0.0,0.0,0.0,0.0,0.0,0.0,0.0,0.0,0.0,0.0,0.0,0.0,0.0,0.0,0.0,0.0,0.0,0.0,0.0,0.0,0.0,0.0,0.0,0.0,0.0,0.0,0.0,0.0,0.0,0.0,0.0,0.0,0.0,0.0,0.0,0.0,0.0,0.0,0.0,0.0,0.0,0.0,0.0,0.0,0.0,0.0,0.0,0.0,0.0,0.0,0.0,0.0,0.0,0.0,0.0,0.0,0.0,0.0,0.0,0.0,0.0,0.0,0.0,0.0,0.0,0.0,0.0,0.0,0.0,0.0,0.0,0.0,0.0,0.0,0.0,0.0,0.0,0.0,0.0,0.0,0.0,0.0,0.0,0.0,0.0,0.0,0.0,0.0,0.0,0.0,0.0,0.0,0.0,0.0,0.0,0.0,0.0,0.0,0.0,0.0,1.6114,1.6429,1.6943,1.6978,1.6943,1.6934,1.6908,1.6908,1.6908,0.0,0.0,0.0,0.0,0.0,0.0,0.0,0.0,0.0,0.0,0.0,0.0,0.0,0.0,0.0,0.0,0.0,0.0,0.0,0.0,0.0,0.0,0.0,0.0,0.0,0.0,0.0,0.0,0.0,0.0,0.0,0.0,0.0,0.0,0.0,0.0,0.0,0.0,1.1996,1.2313,0.0,0.0,0.0,0.0,0.0,0.0,0.0,0.0,1.2451,0.0,0.0,0.0,0.0,0.0,0.0,0.0,0.0,0.0,0.0,0.0,0.0,0.0,0.0,0.0,0.0,0.0,0.0,0.0,0.0,0.0,0.0,0.0,0.0,0.0,0.0,0.0,0.0,0.0,0.0,0.0,0.0,0.0,0.0,0.0,0.0,0.0,0.0,0.0,0.0,0.0,0.0,0.0,0.0,0.0,0.0,0.0,0.0,0.0,0.0,0.0,0.0,0.0,0.0,0.0,0.0,1.6959,1.6985,1.7132,1.7401,1.721,1.7132,1.7132,1.6968,1.6908,1.6908,0.0,0.0,0.0,0.0,0.0,0.0,0.0,0.0,0.0,0.0,0.0,0.0,0.0,0.0,0.0,0.0,0.0,0.0,0.0,0.0,0.0,0.0,0.0,0.0,0.0,0.0,0.0,0.0,0.0,0.0,0.0,0.0,0.0,0.0,0.0,0.0,0.0,0.0,0.0,1.256,1.259,0.0,0.0,0.0,0.0,0.0,0.0,0.0,0.0,1.3484,0.0,0.0,0.0,0.0,0.0,0.0,0.0,0.0,0.0,0.0,0.0,0.0,0.0,0.0,0.0,0.0,0.0,0.0,0.0,0.0,0.0,0.0,0.0,0.0,0.0,0.0,0.0,0.0,0.0,0.0,0.0,0.0,0.0,0.0,0.0,0.0,0.0,0.0,0.0,0.0,0.0,0.0,0.0,0.0,0.0,0.0,0.0,0.0,0.0,0.0,0.0,0.0,0.0,0.0,0.0,1.7348,1.7417,1.7486,1.7495,1.7426,1.7358,1.7358,1.7254,1.7185,0.0,0.0,0.0,0.0,0.0,0.0,0.0,0.0,0.0,0.0,0.0,0.0,0.0,0.0,0.0,0.0,0.0,0.0,0.0,0.0,0.0,0.0,0.0,0.0,0.0,0.0,0.0,0.0,0.0,0.0,0.0,0.0,0.0,0.0,0.0,0.0,0.0,0.0,0.0,0.0,1.259,1.2736,1.3108,0.0,0.0,0.0,0.0,0.0,0.0,1.3625,1.3566,0.0,0.0,0.0,0.0,0.0,0.0,0.0,0.0,0.0,0.0,0.0,0.0,0.0,0.0,0.0,0.0,0.0,0.0,0.0,0.0,0.0,0.0,0.0,0.0,0.0,0.0,0.0,0.0,0.0,0.0,0.0,0.0,0.0,0.0,0.0,0.0,0.0,0.0,0.0,0.0,0.0,0.0,0.0,0.0,0.0,0.0,0.0,0.0,0.0,0.0,0.0,0.0,0.0,0.0,0.0,1.7564,1.7647,1.7681,1.7608,1.7573,1.7529,1.7529,1.7632,1.7588,0.0,0.0,0.0,0.0,0.0,0.0,0.0,0.0,0.0,0.0,0.0,0.0,0.0,0.0,0.0,0.0,0.0,0.0,0.0,0.0,0.0,0.0,0.0,0.0,0.0,0.0,0.0,0.0,0.0,0.0,0.0,0.0,0.0,0.0,0.0,0.0,0.0,0.0,0.0,0.0,0.0,1.3047,1.3627,1.3199,0.0,0.0,0.0,0.0,1.3329,1.3773,0.0,0.0,0.0,0.0,0.0,0.0,0.0,0.0,0.0,0.0,0.0,0.0,0.0,0.0,0.0,0.0,0.0,0.0,0.0,0.0,0.0,0.0,0.0,0.0,0.0,0.0,0.0,0.0,0.0,0.0,0.0,0.0,0.0,0.0,0.0,0.0,0.0,0.0,0.0,0.0,0.0,0.0,0.0,0.0,0.0,0.0,0.0,0.0,0.0,0.0,0.0,0.0,0.0,0.0,0.0,0.0,1.7672,1.7716,1.7784,1.7949,1.7759,1.7672,1.7681,1.8148,1.808,0.0,0.0,0.0,0.0,0.0,0.0,0.0,0.0,0.0,0.0,0.0,0.0,0.0,0.0,0.0,0.0,0.0,0.0,0.0,0.0,0.0,0.0,0.0,0.0,0.0,0.0,0.0,0.0,0.0,0.0,0.0,0.0,0.0,0.0,0.0,0.0,0.0,0.0,0.0,0.0,0.0,1.3588,1.367,1.3618,1.3858,0.0,0.0,1.4796,1.5429,1.6017,0.0,0.0,0.0,0.0,0.0,0.0,0.0,0.0,0.0,0.0,0.0,0.0,0.0,0.0,0.0,0.0,0.0,0.0,0.0,0.0,0.0,0.0,0.0,0.0,0.0,0.0,0.0,0.0,0.0,0.0,0.0,0.0,0.0,0.0,0.0,0.0,0.0,0.0,0.0,0.0,0.0,0.0,0.0,0.0,0.0,0.0,0.0,0.0,0.0,0.0,0.0,0.0,0.0,0.0,0.0,1.8375,1.7896,1.8351,1.8428,1.8008,1.7896,1.8056,1.8442,1.8667,1.861,0.0,0.0,0.0,0.0,0.0,0.0,0.0,0.0,0.0,0.0,0.0,0.0,0.0,0.0,0.0,0.0,0.0,0.0,0.0,0.0,0.0,0.0,0.0,0.0,0.0,0.0,0.0,0.0,0.0,0.0,0.0,0.0,0.0,0.0,0.0,0.0,0.0,0.0,0.0,0.0,0.0,0.0,1.4314,1.4016,0.0,0.0,0.0,1.4845,1.5264,0.0,0.0,0.0,0.0,0.0,0.0,0.0,0.0,0.0,0.0,0.0,0.0,0.0,0.0,0.0,0.0,0.0,0.0,0.0,0.0,0.0,0.0,0.0,0.0,0.0,0.0,0.0,0.0,0.0,0.0,0.0,0.0,0.0,0.0,0.0,0.0,0.0,0.0,0.0,0.0,0.0,0.0,0.0,0.0,0.0,0.0,0.0,0.0,0.0,0.0,0.0,0.0,0.0,0.0,0.0,0.0,0.0,1.8371,1.9144,1.9266,1.8687,1.8586,1.8821,1.9365,1.954,0.0,0.0,0.0,0.0,0.0,0.0,0.0,0.0,0.0,0.0,0.0,0.0,0.0,0.0,0.0,0.0,0.0,0.0,0.0,0.0,0.0,0.0,0.0,0.0,0.0,0.0,0.0,1.5575,0.0,0.0,0.0,0.0,0.0,0.0,0.0,0.0,0.0,0.0,0.0,0.0,0.0,0.0,1.4373,1.508,1.468,1.4797,0.0,0.0,1.5138,1.5468,1.5921,1.6228,0.0,0.0,0.0,0.0,0.0,0.0,0.0,0.0,0.0,0.0,0.0,0.0,0.0,0.0,0.0,0.0,0.0,0.0,0.0,0.0,0.0,0.0,0.0,0.0,0.0,0.0,0.0,0.0,0.0,0.0,0.0,0.0,0.0,0.0,0.0,0.0,0.0,0.0,0.0,0.0,0.0,0.0,0.0,0.0,0.0,0.0,0.0,0.0,0.0,0.0,0.0,0.0,0.0,0.0,1.9276,1.9233,1.9879,2.0301,2.0398,2.0236,2.0268,2.0494,2.0996,2.089,0.0,0.0,0.0,0.0,0.0,0.0,0.0,0.0,0.0,0.0,0.0,0.0,0.0,0.0,0.0,0.0,0.0,0.0,0.0,0.0,0.0,0.0,0.0,0.0,0.0,0.0,0.0,0.0,0.0,0.0,0.0,0.0,0.0,0.0,0.0,0.0,0.0,0.0,0.0,0.0,0.0,1.5488,1.5948,1.5977,1.6226,0.0,1.6521,1.6283,1.7032,1.7155,1.7099,1.6779,0.0,0.0,0.0,0.0,0.0,0.0,0.0,0.0,0.0,0.0,0.0,0.0,0.0,0.0,0.0,0.0,0.0,0.0,0.0,0.0,0.0,0.0,0.0,0.0,0.0,0.0,0.0,0.0,0.0,0.0,0.0,0.0,0.0,0.0,0.0,0.0,0.0,0.0,0.0,0.0,0.0,0.0,0.0,0.0,0.0,0.0,0.0,0.0,0.0,0.0,0.0,0.0,0.0,2.0655,2.0107,2.0878,2.1069,2.0611,2.0526,2.0719,2.1195,2.1428,2.1408,0.0,0.0,0.0,0.0,0.0,0.0,0.0,0.0,0.0,0.0,0.0,0.0,0.0,0.0,0.0,0.0,0.0,0.0,0.0,0.0,0.0,0.0,0.0,0.0,0.0,0.0,0.0,0.0,1.6832,1.6775,1.6606,0.0,0.0,0.0,0.0,0.0,0.0,0.0,0.0,0.0,0.0,1.5901,1.6102,1.612,0.0,0.0,1.6606,1.6368,1.7183,1.7211,1.7078,1.6937,1.6658,0.0,0.0,0.0,0.0,0.0,0.0,0.0,0.0,0.0,0.0,0.0,0.0,0.0,0.0,0.0,0.0,0.0,0.0,0.0,0.0,0.0,0.0,0.0,0.0,0.0,0.0,0.0,0.0,0.0,0.0,0.0,0.0,0.0,0.0,0.0,0.0,0.0,0.0,0.0,0.0,0.0,0.0,0.0,0.0,0.0,0.0,0.0,0.0,0.0,0.0,0.0,0.0,2.1585,2.1005,2.1772,2.1939,2.1353,2.1302,2.1522,2.2032,2.2002,2.197,0.0,0.0,0.0,0.0,0.0,0.0,0.0,0.0,0.0,0.0,0.0,0.0,0.0,0.0,0.0,0.0,0.0,0.0,0.0,0.0,0.0,0.0,0.0,0.0,0.0,0.0,0.0,0.0,1.754,1.7429,1.7234,0.0,0.0,0.0,0.0,0.0,0.0,0.0,0.0,0.0,0.0,1.6312,1.6436,1.6464,1.6662,1.7222,1.6825,1.6662,1.7211,1.7172,1.7067,1.7011,0.0,0.0,0.0,0.0,0.0,0.0,0.0,0.0,0.0,0.0,0.0,0.0,0.0,0.0,0.0,0.0,0.0,0.0,0.0,0.0,0.0,0.0,0.0,0.0,0.0,0.0,0.0,2.3365,0.0,0.0,2.3032,0.0,0.0,0.0,0.0,0.0,0.0,0.0,0.0,0.0,0.0,0.0,0.0,0.0,0.0,0.0,0.0,0.0,0.0,0.0,0.0,0.0,0.0,2.1908,2.1889,2.2519,2.2909,2.3005,2.2896,2.2909,2.3047,2.2927,2.2848,2.2836,0.0,0.0,0.0,0.0,0.0,0.0,0.0,0.0,0.0,0.0,0.0,0.0,0.0,0.0,0.0,0.0,0.0,0.0,0.0,0.0,0.0,0.0,0.0,0.0,0.0,0.0,1.8111,1.7838,1.7711,0.0,0.0,0.0,0.0,0.0,0.0,0.0,0.0,0.0,1.6513,1.657,1.6779,1.7211,1.7267,1.725,1.7306,1.7278,1.7278,1.7306,1.7306,1.7211,0.0,0.0,0.0,0.0,0.0,0.0,0.0,0.0,0.0,0.0,0.0,0.0,0.0,0.0,0.0,0.0,0.0,0.0,0.0,0.0,0.0,0.0,0.0,0.0,0.0,0.0,0.0,2.3539,2.3539,0.0,0.0,0.0,0.0,0.0,0.0,0.0,0.0,0.0,0.0,0.0,2.3599,2.3365,0.0,0.0,0.0,0.0,0.0,0.0,0.0,0.0,0.0,0.0,0.0,0.0,2.2702,2.2732,2.2896,2.3047,2.3108,2.306,2.3047,2.3108,2.3047,2.3,2.2909,0.0,0.0,0.0,0.0,0.0,0.0,0.0,0.0,0.0,0.0,0.0,0.0,0.0,0.0,0.0,0.0,0.0,0.0,0.0,0.0,0.0,0.0,0.0,0.0,0.0,1.8827,0.0,0.0,0.0,0.0,0.0,0.0,0.0,0.0,0.0,0.0,0.0,1.7084,1.7551,1.7451,1.7396,1.7545,1.7418,1.7306,0.0,0.0,0.0,0.0,0.0,0.0,0.0,0.0,0.0,0.0,0.0,0.0,0.0,0.0,1.5337,1.4353,1.3584,1.2976,1.2586,0.0,0.0,0.0,0.0,0.0,0.0,0.0,0.0,0.0,0.0,0.0,0.0,0.0,0.0,2.4856,2.4674,2.4631,0.0,0.0,0.0,0.0,0.0,0.0,0.0,0.0,2.376,2.3776,2.3789,2.3776,2.3747,2.3717,2.3628,2.3288,0.0,0.0,0.0,0.0,0.0,0.0,0.0,0.0,2.3095,2.3095,2.3095,2.3095,2.3095,2.3095,2.3095,2.3095,2.3095,2.3078,2.2969,2.2957,2.2957,0.0,0.0,0.0,0.0,0.0,0.0,0.0,0.0,0.0,0.0,0.0,0.0,0.0,0.0,0.0,0.0,0.0,0.0,0.0,0.0,0.0,0.0,0.0,1.9078,0.0,0.0,0.0,0.0,0.0,0.0,0.0,0.0,0.0,1.7329,1.7484,1.776,1.8057,1.7947,1.7822,1.7711,0.0,0.0,0.0,0.0,0.0,0.0,0.0,1.7245,1.7245,1.7088,1.7015,1.7078,1.7211,1.7141,1.6743,0.0,0.0,1.5274,1.4615,1.4103,1.3759,1.3736,1.3636,1.3302,1.3427,1.3586,0.0,0.0,0.0,0.0,2.7664,0.0,0.0,0.0,2.762,2.7181,0.0,2.6566,0.0,0.0,0.0,0.0,2.4574,2.4658,0.0,0.0,2.4116,2.4178,2.4161,2.4174,2.409,2.3942,2.3807,2.3705,2.3675,2.3663,0.0,0.0,0.0,0.0,0.0,0.0,2.3095,2.3095,2.3095,2.3095,2.3095,2.3095,2.3095,2.3095,2.3095,2.3095,2.3095,2.3108,2.3108,2.3095,2.3108,0.0,0.0,0.0,0.0,0.0,0.0,0.0,0.0,0.0,0.0,0.0,0.0,0.0,0.0,0.0,0.0,0.0,0.0,0.0,0.0,1.9208,0.0,0.0,0.0,0.0,0.0,0.0,0.0,0.0,0.0,1.8433,1.7867,1.797,1.8111,1.8146,0.0,0.0,0.0,0.0,1.8014,1.7789,1.7954,1.8118,1.8153,1.7933,1.7767,1.7751,0.0,0.0,1.7356,1.7345,1.7334,1.7334,1.7312,1.7,1.604,1.5342,1.4888,1.4861,1.482,1.4831,1.4857,1.5183,1.5622,2.9914,0.0,0.0,0.0,0.0,2.791,2.7925,2.814,2.7968,2.7781,2.7563,2.6985,0.0,0.0,0.0,0.0,0.0,0.0,2.5423,2.5248,2.531,2.531,2.5297,2.531,2.531,2.5248,2.5205,2.5112,2.5019,2.5112,2.4545,2.3343,0.0,0.0,0.0,0.0,2.3095,2.3095,2.3095,2.3095,2.3095,2.3095,2.3095,2.3095,2.3095,2.3095,2.3095,2.3095,2.3095,2.3095,2.3095,0.0,0.0,0.0,0.0,0.0,0.0,0.0,0.0,0.0,0.0,0.0,0.0,0.0,0.0,0.0,0.0,0.0,0.0,0.0,1.9196,1.9208,1.9208,0.0,0.0,0.0,0.0,0.0,0.0,0.0,0.0,0.0,1.8981,1.8807,1.8794,0.0,0.0,1.8484,1.8537,1.8285,1.821,1.852,1.8622,0.0,1.9189,1.9189,1.9056,1.8823,1.8404,1.8159,1.8397,1.8114,1.7865,1.7877,1.7711,1.7473,1.719,1.652,1.6063,1.5993,1.5757,1.5543,1.5532,1.5697,1.5822,3.1368,3.0923,2.9885,2.9565,2.972,2.9477,2.9535,2.9748,2.9635,2.9449,2.9175,2.8677,2.832,2.8033,2.7602,0.0,0.0,0.0,2.6271,2.578,2.578,2.578,2.578,2.578,2.578,2.5793,2.573,2.5712,2.5667,2.5699,2.5224,2.4303,0.0,2.4172,2.3976,2.3976,2.3976,2.3963,2.3976,2.3862,2.3647,2.3432,2.3271,2.3228,2.3258,2.3271,2.3228,2.321,2.3228,2.3288,2.3155,2.3138,0.0,0.0,0.0,0.0,0.0,0.0,0.0,0.0,0.0,0.0,0.0,1.942,1.942,0.0,0.0,0.0,1.9447,1.9571,1.9781,1.9752,0.0,0.0,0.0,0.0,0.0,0.0,0.0,1.9487,1.9913,2.0117,1.9904,1.9742,1.9674,1.9788,1.9562,1.9396,1.9418,0.0,1.9172,1.9401,1.9522,1.9685,1.9989,1.9948,1.9801,1.9447,1.9138,1.8981,1.9172,1.8931,1.8747,1.8685,1.8407,1.8159,1.8187,1.7616,1.7052,1.6863,1.6601,1.6415,1.6404,1.6378,1.6378,3.2567,3.244,3.0969,3.0999,3.1953,3.1363,3.148,3.201,3.201,3.1667,3.1102,3.1043,3.0615,3.0011,2.9889,0.0,2.7781,2.7795,2.7135,2.5955,2.5968,2.5936,2.5936,2.5936,2.5936,2.5923,2.581,2.581,2.5936,2.5823,2.5747,2.5734,2.5747,2.56,2.5339,2.5294,2.5307,2.5294,2.5294,2.5069,2.4569,2.3974,2.359,2.3496,2.3565,2.3552,2.3433,2.3433,2.3492,2.3599,2.3288,2.3241,2.3403,0.0,0.0,0.0,0.0,0.0,0.0,0.0,0.0,0.0,0.0,0.0,0.0,0.0,0.0,0.0,1.9675,0.0,2.069,2.0632,0.0,0.0,0.0,2.1108,2.1124,2.1108,2.1011,2.0827,0.0,0.0,2.0682,2.0689,2.0742,2.0713,2.0641,2.0519,2.0293,2.042,2.0507,2.031,2.0497,2.0665,2.0727,2.0564,2.0299,2.0069,1.9853,1.983,1.9848,1.9767,1.9778,1.9761,1.9339,1.9011,1.8982,1.8552,1.8004,1.7545,1.739,1.7329,1.7341,1.733,1.7319,3.4012,3.3983,3.3573,3.3008,3.2302,3.2117,3.216,3.2302,3.2191,3.2079,3.1879,3.1291,3.0644,3.0011,2.9981,2.9496,2.8669,2.857,2.8101,2.7347,2.7184,2.7085,2.7098,2.7085,2.7085,2.7085,2.7065,2.7052,2.7085,2.7065,2.7052,2.7065,2.7065,2.646,2.5333,2.5307,2.5307,2.5307,2.5307,2.5243,2.5102,2.4582,2.4256,2.4226,2.3829,2.3569,2.3539,2.3569,2.3569,2.3586,2.3539,2.3509,2.3539,2.342,0.0,0.0,0.0,0.0,0.0,0.0,0.0,0.0,0.0,2.1022,2.1009,0.0,2.0982,0.0,2.1037,2.1072,2.1154,2.111,0.0,0.0,2.1107,2.1124,2.1225,2.1152,2.1039,2.0827,2.1163,2.1347,2.1241,2.1572,2.1813,2.1801,2.1103,2.0632,2.0718,2.0634,2.0737,2.1051,2.1176,2.1368,2.171,2.1568,2.1398,2.1587,2.106,2.0711,2.0932,2.0658,2.0384,2.0372,2.0128,1.993,1.9901,1.924,1.8719,1.8521,1.8192,1.7893,1.792,1.7893,1.7849,3.4489,3.4489,3.4489,3.4058,3.3306,3.2967,3.2675,3.2398,3.2315,3.2302,3.2259,3.1807,3.1392,3.097,3.0984,3.054,2.9813,2.9718,2.9125,2.8137,2.8006,2.7776,2.7523,2.7822,2.7941,2.7941,2.8241,2.8241,2.7973,2.7941,2.7941,2.7941,2.7927,2.7511,2.673,2.644,2.6278,2.6278,2.6033,2.5922,2.5909,2.5366,2.5063,2.4988,2.4722,2.4438,2.412,2.4077,2.3974,2.3743,2.3658,2.3586,2.3586,2.3509,2.348,0.0,0.0,0.0,0.0,0.0,0.0,0.0,0.0,0.0,0.0,0.0,2.1606,2.1832,2.1631,2.1566,2.1718,2.1743,2.1743,2.1756,2.1894,2.2031,2.2089,2.2031,2.1914,2.1739,2.2009,2.2219,2.2323,2.2497,2.2744,2.2974,2.2428,2.1878,2.1558,2.1386,2.1512,2.2005,2.2113,2.2294,2.2843,2.2552,2.2333,2.2467,2.1966,2.1558,2.1722,2.1524,2.1308,2.1284,2.0997,2.0724,2.0712,2.0151,1.9683,1.9601,1.9221,1.869,1.8212,1.8084,1.803,3.489,3.489,3.4797,3.472,3.4582,3.3937,3.329,3.2659,3.2659,3.2613,3.2521,3.2428,3.2342,3.2219,3.2219,3.1737,3.0911,3.0866,3.0086,2.8757,2.8693,2.8338,2.7842,2.8384,2.8629,2.8629,2.9251,2.9142,2.8514,2.8565,2.8597,2.8514,2.8565,2.8565,2.8481,2.7908,2.759,2.749,2.7027,2.6811,2.6811,2.6229,2.5866,2.574,2.5769,2.5496,2.4883,2.484,2.4594,2.4062,2.3892,2.3752,2.3671,2.3704,2.3734,0.0,2.3793,0.0,0.0,0.0,0.0,0.0,0.0,0.0,0.0,2.1807,2.1923,2.2372,2.1983,2.1895,2.2372,2.2422,2.2422,2.2435,2.2882,2.3208,2.3208,2.3271,2.326,2.312,2.312,2.3257,2.3545,2.346,2.3547,2.3822,2.376,2.3345,2.2606,2.2402,2.2558,2.3059,2.3087,2.3204,2.3565,2.3372,2.3075,2.3027,2.2739,2.2378,2.2306,2.2282,2.2258,2.2137,2.1789,2.1524,2.1512,2.105,2.0689,2.0649,2.0205,1.9539,1.8666,1.8321,1.8193,3.6923,3.6876,3.6338,3.5799,3.5321,3.5183,3.4691,3.4104,3.4104,3.3752,3.3183,3.2628,3.237,3.237,3.237,3.1992,3.1364,3.1203,3.0675,2.9891,2.9659,2.9487,2.9362,2.9331,2.9331,2.9331,2.9456,2.9142,2.8514,2.9048,2.9048,2.85,2.9048,2.903,2.85,0.0,0.0,0.0,2.7419,2.7366,2.732,2.6804,2.6517,2.6472,2.6028,0.0,2.5605,2.5592,2.5331,2.4814,2.4745,0.0,0.0,0.0,0.0,0.0,0.0,0.0,0.0,0.0,0.0,0.0,2.4873,2.4261,2.3354,2.3115,2.2993,2.2945,2.2857,2.2832,2.2945,2.2945,2.2945,2.297,2.3459,2.3841,2.3853,2.4217,2.4442,2.4295,2.4283,2.4256,2.4148,2.4108,2.4079,2.4103,2.3992,2.3853,2.3606,2.3513,2.3541,2.3649,2.3661,2.3697,2.3782,2.3734,2.3649,2.3625,2.3589,2.3324,2.2951,2.2867,2.2654,2.2337,2.2113,2.2041,2.2029,2.162,2.1277,2.126,2.0832,2.0261,1.9606,1.9125,1.8759,3.8,3.7969,3.7631,3.7277,0.0,3.663,3.6276,3.5907,3.4921,3.4305,3.3906,3.3596,3.3257,3.289,3.289,3.2525,3.1838,3.1751,3.129,3.06,3.0465,3.021,2.9919,3.0119,3.021,3.0178,3.0494,3.0238,2.9532,2.9827,2.9827,2.9501,2.9827,2.9827,2.9501,2.9142,2.85,2.749,2.7503,2.7656,2.796,2.7714,2.7747,2.8058,2.7452,0.0,0.0,0.0,0.0,0.0,0.0,0.0,0.0,2.5598,0.0,2.5286,2.5453,2.5605,2.5591,2.5591,2.5632,2.5715,2.5632,2.5119,2.4031,2.3868,2.3645,2.3168,2.3346,2.3521,2.3565,2.4068,2.4436,2.4479,2.5031,2.5428,2.5454,2.5677,2.5673,2.5262,2.518,2.5109,2.4962,2.5197,2.5408,2.5569,2.5826,2.5899,2.5729,2.4661,2.3866,2.4131,2.4386,2.4542,2.454,2.4278,2.4167,2.4167,2.4195,2.4059,2.3834,2.3773,2.3634,2.3144,2.2946,2.2885,2.2592,2.2323,2.223,2.2335,2.1881,2.1379,2.1175,2.0284,1.9357,3.8692,3.8677,3.8536,3.8508,3.8462,3.7923,3.7677,3.7538,3.5552,0.0,0.0,3.4551,3.4166,3.3598,3.3598,3.3249,3.2629,3.2614,3.2182,3.144,3.1382,3.1028,3.0435,3.0925,3.1116,3.1043,3.1568,3.1394,3.0614,3.0673,3.0658,3.0584,3.0644,3.0614,3.0464,2.9827,2.8953,2.7927,2.7861,2.8124,2.8661,2.8675,2.8935,2.9504,2.8967,2.8746,2.8816,2.8329,2.7947,2.78,2.7876,2.7594,2.6876,2.7004,2.689,2.6382,2.6295,2.6305,2.6305,2.6165,2.6165,2.6305,2.6419,2.5953,2.4813,2.4685,2.4477,2.3859,2.429,2.4571,2.4553,2.5436,2.6008,2.599,2.6606,2.6995,2.7023,2.7162,2.6951,2.6418,2.6314,2.6229,2.6178,2.6505,2.6902,2.732,2.7565,2.8019,2.7749,2.6067,2.4934,2.5259,2.5673,2.5822,2.574,2.5514,2.5129,2.5262,2.5207,2.5091,2.4991,2.4933,2.4687,2.4173,2.3973,2.3667,2.331,2.308,2.3168,2.3531,2.2955,2.248,2.2694,2.1575,2.0404,3.9385,3.9323,3.8754,3.8508,3.8492,3.8415,3.8369,3.8185,3.6215,3.5367,3.5321,3.4751,3.4459,3.4366,3.4351,3.4305,3.4183,3.4183,3.3758,3.306,3.2945,3.2541,3.191,3.1881,3.184,3.184,3.194,3.1625,3.1043,3.1394,3.1322,3.0866,3.1161,3.1073,3.0494,2.9827,2.9411,2.9223,2.9223,2.9254,2.9362,2.9362,2.9393,2.9504,2.9425,2.9383,2.9406,2.9271,2.9049,2.8565,2.8567,2.8301,2.7723,2.8139,2.8392,2.8277,2.8221,2.8207,2.8192,2.7658,2.7594,2.8162,2.8738,2.8281,2.6483,2.6285,2.6407,2.6658,2.6706,2.6818,2.6682,2.6821,2.693,2.6837,2.7278,2.7581,2.7687,2.8021,2.8243,2.8057,2.812,2.8047,2.7954,2.8085,2.8131,2.809,2.8298,2.8201,2.8122,2.7689,2.7446,2.7479,2.7558,2.7611,2.7398,2.7538,2.7275,2.7505,2.717,2.683,2.6472,2.6194,2.5839,2.5281,2.4871,2.4451,2.4259,2.3833,2.3709,2.3767,2.3537,2.344,2.3544,2.286,2.2181,4.0028,4.0031,3.9705,3.9567,3.9536,3.9216,3.8798,3.8446,3.7523,3.6907,3.6522,3.5876,3.5398,3.5075,3.5059,3.4844,3.4489,3.4489,3.4335,3.3998,3.394,3.3742,3.342,3.2982,3.2713,3.264,3.2262,3.191,3.161,3.1783,3.1754,3.1466,3.1668,3.1597,3.1219,3.0896,3.0673,3.0584,2.9858,2.9673,3.0042,3.0042,3.0194,3.0584,3.0224,3.0224,3.0584,3.0238,3.0109,3.0221,3.0236,2.993,2.9317,2.9528,2.9535,2.9224,2.9161,2.9131,2.9157,2.8858,2.8828,2.9142,2.9427,2.9377,2.878,2.801,2.7484,2.733,2.7605,2.7767,2.7734,2.8284,2.8629,2.8505,2.9001,2.9325,2.9292,2.9459,2.9501,2.9188,2.9093,2.8967,2.8524,2.8826,2.9062,2.8998,2.9205,2.9439,2.9407,2.9376,2.9048,2.8214,2.7986,2.7986,2.8019,2.7986,2.7986,2.7986,2.813,2.8088,2.7865,2.7548,2.7103,2.6659,2.6258,2.5801,2.5301,2.5057,2.494,2.4821,2.4439,2.4337,2.4441,2.4268,2.3465,4.0628,4.0489,4.0489,4.0489,4.0459,3.9936,3.9413,3.897,3.88,3.8431,3.7877,3.7092,3.643,3.5984,3.5784,3.546,3.5013,3.4951,3.489,3.4736,3.4736,3.4659,3.4474,3.3891,3.3587,3.347,3.2951,3.2573,3.2338,3.2294,3.2161,3.2012,3.2012,3.194,3.1841,3.1841,3.1769,3.1553,3.0614,3.0299,3.0703,3.0703,3.097,3.1409,3.0984,3.097,3.1438,3.0999,3.097,3.1467,3.1496,3.1271,3.0748,3.0731,3.0522,3.0073,2.9864,2.9729,2.9636,2.9741,2.9789,2.9789,2.9939,3.0238,3.0556,2.9734,2.8872,2.8408,2.8774,2.8983,2.9056,2.9697,3.0253,3.0146,3.0493,3.0628,3.0628,3.0612,3.0417,2.9915,2.9794,2.9608,2.9237,2.947,2.9808,2.9901,3.0296,3.0582,3.0612,3.0612,2.9962,2.9079,2.8602,2.8698,2.8602,2.8666,2.8666,2.8602,2.8871,2.903,2.9016,2.8789,2.8474,2.803,2.7781,2.7346,2.6516,2.6186,2.6157,2.5981,2.5465,2.5104,2.537,2.53,2.4537,4.1124,4.0536,4.0551,4.0489,4.0505,4.0413,4.0336,4.0182,3.9693,3.9367,3.9152,3.7969,3.7384,3.7246,3.6676,3.6353,3.6292,3.6292,3.5953,3.546,3.5414,3.5106,3.4597,3.4443,3.4383,3.4368,3.426,3.3831,3.3251,3.3121,3.2732,3.2101,3.2012,3.1996,3.1968,3.1968,3.1968,3.1968,3.184,3.1668,3.1409,3.1409,3.1438,3.1496,3.1438,3.1438,3.1496,3.1438,3.1438,3.1511,3.1496,3.1481,3.1406,3.1391,3.1376,3.1271,3.0746,3.0193,2.9726,3.0103,3.0417,3.0462,3.0943,3.1271,3.1361,3.1259,3.1186,3.0982,3.1085,3.0984,3.1028,3.1087,3.1043,3.0881,3.0851,3.0791,3.0762,3.0672,3.0568,3.0523,3.0447,3.0477,3.0312,3.0342,3.0447,3.0417,3.0477,3.0612,3.0612,3.0612,3.0582,3.0312,3.0312,3.0251,3.019,3.0342,3.0129,3.0176,3.0083,2.9974,2.982,2.9665,2.9421,2.9115,2.8887,2.8468,2.8092,2.7591,2.6806,2.6638,2.6217,2.577,2.5839,2.5784,2.5177,4.2017,4.1755,4.1755,4.1489,4.1105,4.0689,4.0489,4.0459,4.0213,4.0074,3.9967,3.9108,3.8462,3.8046,3.74,3.7076,3.7061,3.6676,3.6353,3.6091,3.6091,3.5922,3.5691,3.5275,3.506,3.5059,3.4705,3.4351,3.4075,3.3971,3.3575,3.2905,3.2844,3.2588,3.2153,3.2122,3.2094,3.2012,3.2012,3.1925,3.1783,3.1712,3.167,3.167,3.1655,3.167,3.167,3.1655,3.1626,3.1496,3.1496,3.1496,3.1496,3.1496,3.1496,3.1481,3.1241,3.0972,3.0733,3.0943,3.1077,3.1106,3.1331,3.1496,3.1496,3.1496,3.1496,3.1496,3.1496,3.1482,3.1438,3.1409,3.1336,3.1234,3.1146,3.1043,3.0984,3.0836,3.0732,3.0702,3.0642,3.0612,3.0612,3.0612,3.0612,3.0612,3.0612,3.0612,3.0612,3.0612,3.0612,3.0612,3.0612,3.0612,3.0612,3.0612,3.0612,3.0582,3.0492,3.0401,3.0341,3.0097,2.9896,2.9896,2.9657,2.9316,2.8917,2.8768,2.8312,2.7639,2.6659,2.6082,2.5948,2.5893,2.5674,4.2756,4.2633,4.2602,4.2325,4.1817,4.1089,4.0782,4.0751,4.0582,4.0489,4.0443,3.9982,3.949,3.8952,3.8169,3.7784,3.7692,3.7076,3.6769,3.6753,3.6584,3.6492,3.643,3.5999,3.5768,3.5691,3.5321,3.4982,3.4782,3.4566,3.4227,3.3752,3.369,3.3323,3.2627,3.255,3.2374,3.2122,3.2122,3.2094,3.2038,3.1968,3.1898,3.1885,3.187,3.187,3.1841,3.1841,3.1784,3.1612,3.1626,3.1626,3.1568,3.1626,3.1626,3.1583,3.1539,3.1496,3.1496,3.1496,3.1496,3.1496,3.1496,3.1496,3.1496,3.1496,3.1496,3.1496,3.1496,3.1496,3.1496,3.1496,3.1453,3.138,3.1322,3.1263,3.1161,3.0984,3.0895,3.0851,3.0762,3.0642,3.0612,3.0612,3.0612,3.0612,3.0612,3.0612,3.0612,3.0612,3.0612,3.0612,3.0612,3.0612,3.0612,3.0612,3.0612,3.0612,3.0582,3.0582,3.0612,3.0371,3.0233,3.0249,3.0219,3.0104,2.9733,2.9637,2.916,2.8059,2.7157,2.6551,2.6274,2.6179,2.6179,4.3208,4.2663,4.2602,4.2617,4.2494,4.1848,4.154,4.1432,4.0847,4.052,4.0505,4.0443,4.0413,4.0228,3.9029,3.8477,3.8385,3.7754,3.7461,3.7384,3.6815,3.6507,3.6492,3.6461,3.643,3.6353,3.6261,3.5999,3.543,3.4859,3.4489,3.4443,3.4459,3.4075,3.3431,3.3339,3.3044,3.2557,3.2539,3.2391,3.228,3.2252,3.2214,3.2085,3.1996,3.1996,3.1981,3.1996,3.1912,3.1784,3.1883,3.1912,3.1813,3.1883,3.1883,3.1784,3.1626,3.1496,3.1524,3.1539,3.1496,3.1496,3.1496,3.1496,3.1496,3.1496,3.1496,3.1496,3.1496,3.1496,3.1496,3.1496,3.1511,3.1482,3.138,3.1307,3.1292,3.1146,3.1087,3.1043,3.0925,3.0762,3.0642,3.0612,3.0642,3.0612,3.0612,3.0612,3.0612,3.0612,3.0612,3.0612,3.0612,3.0612,3.0612,3.0612,3.0612,3.0612,3.0612,3.0612,3.0612,3.0582,3.0582,3.0552,3.0522,3.0464,3.0393,2.9943,2.9145,2.832,2.7784,2.727,2.6829,2.6746,2.6647,4.4394,4.4019,4.3476,4.3217,4.314,4.2525,4.2001,4.1571,4.134,4.092,4.0551,4.0505,4.0489,4.0459,3.9997,3.9536,3.9123,3.8462,3.8138,3.8061,3.7446,3.7138,3.7092,3.6707,3.6492,3.6492,3.6492,3.6368,3.6153,3.5907,3.5568,3.5198,3.5152,3.4797,3.4198,3.4091,3.3981,3.3781,3.375,3.3721,3.3633,3.3679,3.3435,3.289,3.2392,3.2122,3.215,3.2107,3.2066,3.1955,3.1968,3.1953,3.194,3.1968,3.1968,3.1955,3.1855,3.1826,3.1826,3.1741,3.1683,3.1698,3.1553,3.1496,3.1496,3.1496,3.1496,3.1496,3.1496,3.1496,3.1496,3.1496,3.1496,3.1496,3.1467,3.1424,3.1424,3.1336,3.1249,3.122,3.1102,3.0984,3.091,3.091,3.0866,3.0762,3.0732,3.0702,3.0612,3.0612,3.0598,3.0612,3.0612,3.0612,3.0612,3.0612,3.0612,3.0612,3.0612,3.0612,3.0612,3.0612,3.0582,3.0582,3.0612,3.0598,3.0466,3.0132,2.932,2.9029,2.8478,2.7884,2.7447,2.7157,2.6924,4.5039,4.4887,4.4229,4.4007,4.4004,4.3312,4.2751,4.234,4.2124,4.1595,4.097,4.0863,4.072,4.052,4.0489,4.0274,3.9767,3.9154,3.8846,3.8769,3.8138,3.7831,3.7707,3.7123,3.683,3.6784,3.6569,3.6492,3.6492,3.6492,3.6245,3.583,3.5829,3.546,3.4951,3.4828,3.4751,3.4551,3.4489,3.4474,3.4489,3.4489,3.4289,3.3783,3.322,3.2704,3.2305,3.2274,3.2191,3.2094,3.2094,3.2135,3.2107,3.2094,3.2066,3.2066,3.201,3.2012,3.2012,3.1912,3.187,3.1841,3.1727,3.1597,3.1597,3.1539,3.1496,3.1496,3.1496,3.1496,3.1496,3.1496,3.1496,3.1496,3.1496,3.1496,3.1496,3.1409,3.1336,3.1292,3.1205,3.1161,3.1102,3.1087,3.1028,3.0895,3.0881,3.0851,3.0791,3.0702,3.0657,3.0672,3.0642,3.0612,3.0612,3.0598,3.0628,3.0628,3.0612,3.0612,3.0612,3.0612,3.0612,3.0612,3.0612,3.0612,3.0467,3.0161,2.99,2.9624,2.9131,2.8507,2.7984,2.7389,2.7212,4.5039,4.5129,4.4776,4.4752,4.4921,4.4198,4.3898,4.3629,4.3102,4.236,4.1648,4.1586,4.1247,4.0659,4.0662,4.0505,4.0305,3.9751,3.949,3.9428,3.8831,3.8508,3.8477,3.7815,3.7446,3.7384,3.683,3.6522,3.6492,3.6492,3.6445,3.6445,3.6399,3.6061,3.5491,3.546,3.5213,3.4828,3.472,3.4643,3.4536,3.4674,3.4643,3.452,3.4429,3.3814,3.2582,3.2521,3.2514,3.24,3.2453,3.2428,3.2527,3.2458,3.2283,3.239,3.2201,3.2101,3.2131,3.2177,3.2224,3.2224,3.1991,3.201,3.2027,3.1851,3.1749,3.175,3.1705,3.1645,3.1675,3.1705,3.163,3.1496,3.1496,3.1496,3.1496,3.1496,3.1438,3.1351,3.1322,3.1249,3.1161,3.1132,3.1132,3.1102,3.1073,3.1132,3.1146,3.1043,3.0881,3.0836,3.0896,3.094,3.0762,3.0628,3.0657,3.0657,3.0628,3.0612,3.0612,3.0612,3.0612,3.0612,3.0612,3.0612,3.0777,3.0528,3.0309,3.0002,2.9537,2.9102,2.8536,2.7998,2.7557,4.522,4.5368,4.5129,4.5092,4.5167,4.4747,4.4332,4.3876,4.3525,4.2967,4.2407,4.2438,4.2052,4.1441,4.1337,4.1075,4.0539,4.0259,4.0182,4.0059,3.949,3.9167,3.9044,3.8508,3.7954,3.7538,3.7292,3.6938,3.6584,3.6507,3.6492,3.6492,3.6492,3.6384,3.6153,3.6199,3.603,3.5891,3.5891,3.5861,3.5861,3.5861,3.5645,3.5244,3.5198,3.4751,3.3919,3.3858,3.3829,3.3741,3.3814,3.3842,3.3814,3.38,3.3771,3.3787,3.3742,3.3729,3.3684,3.3566,3.3478,3.3479,3.3377,3.3259,3.317,3.3066,3.2976,3.2886,3.2886,3.2871,3.2886,3.2886,3.2497,3.16,3.1496,3.1525,3.1496,3.1496,3.1467,3.1438,3.1438,3.1424,3.138,3.1351,3.1322,3.1292,3.1292,3.1336,3.158,3.1622,3.1564,3.1536,3.1478,3.1378,3.1233,3.1276,3.1377,3.1305,3.1146,3.1058,3.0955,3.0792,3.0777,3.0777,3.0747,3.0836,3.0984,3.0925,3.0705,3.0485,3.0104,2.9638,2.9145,2.8693,2.8322,4.5442,4.5589,4.5331,4.5294,4.5405,4.5204,4.488,4.4501,4.4365,4.3882,4.3319,4.3335,4.2947,4.2251,4.1926,4.1519,4.0963,4.0662,4.0489,4.0443,4.009,3.9859,3.9767,3.9167,3.8523,3.7984,3.7877,3.7523,3.6892,3.6861,3.6753,3.6538,3.6492,3.6492,3.6492,3.6492,3.6492,3.6492,3.6476,3.6492,3.6492,3.6492,3.6276,3.5922,3.5845,3.5645,3.5245,3.5244,3.5013,3.4613,3.4489,3.4489,3.4489,3.4459,3.4489,3.4489,3.4474,3.4474,3.4489,3.4295,3.4297,3.4268,3.4149,3.4014,3.394,3.391,3.3819,3.3713,3.3683,3.3668,3.3653,3.3607,3.3171,3.2496,3.2063,3.178,3.1585,3.1496,3.1496,3.1496,3.1496,3.1496,3.1496,3.1496,3.1582,3.1653,3.1724,3.1908,3.2198,3.2333,3.2321,3.2266,3.2182,3.2031,3.1821,3.1918,3.2139,3.2,3.1832,3.179,3.1705,3.1421,3.1291,3.1378,3.1378,3.1536,3.1679,3.1422,3.1188,3.0923,3.0761,3.0322,2.9896,2.9604,2.9258,4.5625,4.5735,4.5405,4.5442,4.5698,4.5552,4.541,4.5431,4.5395,4.4924,4.4346,4.4252,4.3862,4.3172,4.2536,4.2089,4.1724,4.1029,4.0713,4.0647,4.0493,4.0397,4.029,3.9782,3.9182,3.8646,3.8536,3.82,3.7584,3.7554,3.7215,3.6692,3.6645,3.6522,3.6522,3.6492,3.6492,3.6492,3.6492,3.6492,3.6492,3.6492,3.6476,3.643,3.6415,3.6384,3.6307,3.6261,3.5814,3.4828,3.4782,3.4813,3.469,3.4613,3.4751,3.4782,3.4643,3.4736,3.4674,3.4814,3.4768,3.4769,3.4634,3.4315,3.4454,3.4545,3.4561,3.4425,3.4394,3.4348,3.4318,3.4182,3.4031,3.3849,3.3201,3.2495,3.1837,3.1821,3.2057,3.1966,3.176,3.1686,3.1846,3.1801,3.1881,3.2259,3.2382,3.2532,3.3029,3.3119,3.3066,3.3013,3.296,3.2703,3.2528,3.2745,3.2944,3.2944,3.2741,3.2644,3.24,3.2043,3.1862,3.1946,3.2043,3.221,3.2266,3.2031,3.1905,3.1786,3.1494,3.1047,3.0839,3.0683,3.0518,4.575,4.5771,4.5698,4.5698,4.5771,4.5589,4.5515,4.5494,4.5368,4.5169,4.4991,4.5102,4.4695,4.3977,4.3814,4.3379,4.2605,4.1798,4.1473,4.1361,4.0759,4.052,4.0489,4.032,3.9859,3.929,3.9198,3.8893,3.8292,3.8246,3.7892,3.7261,3.723,3.6984,3.6569,3.6553,3.6492,3.6492,3.6492,3.6492,3.6492,3.6492,3.6492,3.6492,3.6492,3.6492,3.6492,3.6492,3.6399,3.603,3.5953,3.5968,3.5876,3.5907,3.586,3.5876,3.5891,3.5953,3.5922,3.5907,3.5953,3.5968,3.5845,3.5815,3.5707,3.6059,3.618,3.6165,3.6135,3.6103,3.6043,3.5676,3.5431,3.5212,3.4568,3.3914,3.3626,3.3641,3.3787,3.4185,3.3455,3.3211,3.3197,3.2777,3.2487,3.285,3.2861,3.2819,3.3543,3.3825,3.3774,3.379,3.3713,3.3449,3.3345,3.3569,3.3748,3.3866,3.3758,3.3649,3.3193,3.2606,3.2497,3.2497,3.2687,3.2848,3.2875,3.2768,3.2703,3.2583,3.2353,3.2023,3.2124,3.2064,3.1931,4.5807,4.5807,4.5807,4.5807,4.5771,4.5662,4.5625,4.5625,4.5515,4.5442,4.5478,4.5536,4.5368,4.4882,4.4605,4.4167,4.3499,4.2758,4.2427,4.2252,4.1558,4.0971,4.0651,4.0489,4.0274,3.9967,3.9905,3.9536,3.9046,3.8923,3.8554,3.8046,3.7923,3.7707,3.7415,3.703,3.6923,3.6861,3.6676,3.6492,3.6492,3.6492,3.6492,3.6492,3.6492,3.6492,3.6492,3.6492,3.6492,3.6476,3.6476,3.6492,3.6492,3.6492,3.6492,3.6492,3.6492,3.6476,3.6492,3.6492,3.6631,3.68,3.6861,3.6952,3.707,3.7442,3.756,3.7454,3.7501,3.7456,3.7397,3.7086,3.6837,3.6684,3.6387,3.584,3.508,3.4797,3.4986,3.5077,3.4801,3.4338,3.4722,3.3838,3.3644,3.3752,3.3562,3.3793,3.425,3.4349,3.4399,3.4374,3.4374,3.4143,3.4027,3.4193,3.4243,3.4358,3.4358,3.4325,3.3935,3.3271,3.3365,3.3391,3.3417,3.3443,3.3521,3.3495,3.3313,3.3182,3.3114,3.3045,3.3045,3.3098,3.3038,4.59,4.59,4.5844,4.5807,4.5807,4.5807,4.5787,4.5807,4.5771,4.5787,4.5807,4.5864,4.5925,4.5853,4.546,4.493,4.4796,4.3976,4.3455,4.3192,4.2724,4.214,4.1134,4.0708,4.0543,4.0416,4.0493,4.0257,3.9892,3.9751,3.9446,3.9099,3.8911,3.8736,3.8587,3.8119,3.7758,3.7651,3.7232,3.6953,3.6953,3.6969,3.6955,3.6909,3.6724,3.6785,3.6754,3.6631,3.6585,3.6708,3.6569,3.6492,3.6492,3.6492,3.6492,3.6554,3.6616,3.6662,3.6662,3.6785,3.6937,3.7371,3.749,3.7725,3.8067,3.825,3.8334,3.8322,3.8407,3.8278,3.8165,3.8076,3.806,3.7963,3.8344,3.7785,3.6545,3.5863,3.5757,3.5768,3.5812,3.5617,3.5498,3.5115,3.467,3.4839,3.4545,3.4376,3.4603,3.4659,3.4732,3.4756,3.4804,3.4851,3.4787,3.4828,3.4763,3.478,3.4756,3.4691,3.4505,3.4152,3.4292,3.4358,3.4136,3.4177,3.4292,3.4193,3.3951,3.386,3.3818,3.3716,3.3614,3.3726,3.3742,4.6601,4.6566,4.5992,4.5807,4.5807,4.5807,4.5859,4.5844,4.5844,4.5952,4.5936,4.6353,4.6601,4.662,4.6838,4.7093,4.6643,4.5552,4.4683,4.4074,4.4643,4.3896,4.2614,4.1552,4.0777,4.0608,4.0662,4.0844,4.0923,4.0796,4.0824,4.0783,4.042,4.0229,4.003,3.947,3.9047,3.8968,3.8416,3.8083,3.8084,3.8084,3.8043,3.798,3.7554,3.7508,3.7621,3.6997,3.6997,3.7445,3.7072,3.6662,3.6631,3.66,3.6631,3.6723,3.7013,3.7208,3.7252,3.7562,3.7953,3.8039,3.8124,3.8153,3.8294,3.8794,3.8974,3.9001,3.9001,3.8821,3.853,3.8739,3.8876,3.8957,3.9252,3.9406,3.8933,3.8307,3.8036,3.8127,3.7579,3.7145,3.7561,3.6474,3.6052,3.5926,3.5498,3.5004,3.4947,3.4998,3.4923,3.4923,3.4899,3.4899,3.4899,3.4899,3.4899,3.4899,3.4899,3.4899,3.4715,3.4667,3.4667,3.4715,3.4763,3.4787,3.4732,3.4756,3.448,3.4488,3.4464,3.4366,3.4301,3.4399,3.4374,4.7518,4.7796,4.7468,4.7311,4.7311,4.7295,4.7117,4.6823,4.6791,4.6791,4.686,4.7203,4.7322,4.7339,4.7721,4.7803,4.7638,4.7029,4.6208,4.5669,4.5893,4.5403,4.4479,4.3314,4.2419,4.1158,4.0882,4.1207,4.1574,4.1673,4.1741,4.2171,4.1938,4.1808,4.158,4.0986,4.0659,4.0424,3.9877,3.9502,3.9455,3.9455,3.9423,3.9377,3.9035,3.8907,3.873,3.8262,3.8086,3.8094,3.7709,3.7371,3.7326,3.7326,3.7326,3.7415,3.7592,3.7825,3.794,3.8096,3.8407,3.8712,3.8739,3.892,3.9082,3.947,3.9575,3.9618,3.9618,3.9454,3.9199,3.9348,3.9618,3.9644,3.9841,3.9986,3.991,3.9497,3.9242,3.9428,3.8868,3.8728,3.8479,3.7725,3.7463,3.7286,3.623,3.5727,3.5431,3.5416,3.5013,3.4923,3.4923,3.4899,3.4899,3.4899,3.4899,3.4899,3.4899,3.4899,3.4851,3.4851,3.4875,3.4899,3.4875,3.4899,3.4851,3.4899,3.4899,3.4787,3.4763,3.4875,3.4875,3.4699,3.4675,4.8429,4.8978,4.8995,4.9011,4.9011,4.8928,4.8531,4.8084,4.7918,4.7737,4.7917,4.7966,4.8047,4.808,4.8257,4.8208,4.8095,4.8207,4.7756,4.7198,4.7369,4.6824,4.6026,4.5509,4.4462,4.1999,4.1857,4.2107,4.2301,4.23,4.2689,4.3161,4.3194,4.3182,4.3099,4.265,4.22,4.1999,4.1385,4.1021,4.0945,4.0915,4.091,4.0844,4.058,4.0344,4.0026,3.9621,3.9304,3.8758,3.8665,3.86,3.8546,3.8334,3.8306,3.8266,3.8322,3.8435,3.849,3.8585,3.8903,3.9312,3.9339,3.9566,3.9918,3.9995,3.9995,4.002,3.9995,3.9995,4.007,3.9995,4.002,4.0045,4.007,4.0113,4.0045,3.991,3.9764,3.9687,3.9534,3.9451,3.9333,3.8896,3.8781,3.8447,3.7349,3.6453,3.6157,3.5735,3.5281,3.5041,3.5065,3.5081,3.5081,3.5041,3.5018,3.497,3.497,3.4947,3.497,3.5034,3.5034,3.4923,3.4899,3.4923,3.4923,3.4899,3.4899,3.4899,3.4899,3.4899,3.4899,3.4899,3.4899,4.8796,4.8933,4.8993,4.9011,4.9028,4.9028,4.9028,4.8713,4.8281,4.7934,4.8015,4.8478,4.8728,4.8838,4.9411,4.9286,4.8948,4.9101,4.9093,4.8677,4.8872,4.8575,4.7659,4.7433,4.6469,4.5245,4.434,4.3937,4.3588,4.3466,4.3689,4.4344,4.4259,4.4231,4.4311,4.4018,4.3576,4.341,4.289,4.2588,4.2528,4.2512,4.2466,4.2315,4.1924,4.1711,4.1555,4.0873,4.0434,4.0622,4.0236,3.9957,3.9601,3.8898,3.849,3.853,3.8849,3.9055,3.9082,3.9454,3.9773,3.9944,3.9876,3.9901,4.007,4.0113,4.0113,4.0113,4.0113,4.0113,4.0113,4.0113,4.0113,4.0113,4.0113,4.0113,4.007,4.002,3.9961,3.9884,3.9875,3.9875,3.9715,3.9597,3.9362,3.8925,3.8085,3.7129,3.6587,3.6021,3.5412,3.5295,3.5245,3.5245,3.5261,3.5222,3.5182,3.5111,3.5105,3.5081,3.5105,3.5175,3.5175,3.5041,3.497,3.4923,3.4923,3.4923,3.4899,3.4899,3.4899,3.4923,3.4899,3.4899,3.4899,4.9706,5.0051,5.0085,5.0316,5.0604,5.0655,5.0418,5.0062,4.9707,4.9351,4.9158,4.9316,4.9466,4.9543,4.9784,4.9772,4.9666,4.9755,4.9784,4.9619,4.9767,4.9739,4.8953,4.8953,4.8357,4.7496,4.6836,4.5837,4.4877,4.4251,4.4536,4.4961,4.4951,4.5005,4.5096,4.4855,4.4663,4.4507,4.4266,4.4066,4.4009,4.4009,4.3933,4.3777,4.3506,4.3322,4.2966,4.2616,4.2038,4.1777,4.1146,4.0819,4.0413,3.9871,3.9199,3.9252,3.9454,3.9653,3.967,3.9969,4.0045,4.007,4.0113,4.0113,4.0113,4.0113,4.0113,4.0113,4.0113,4.0113,4.0113,4.0113,4.0113,4.0113,4.0113,4.0113,4.0113,4.0113,4.0062,3.9986,3.9986,3.9986,3.9986,3.9868,3.9767,3.932,3.8705,3.7932,3.7086,3.6414,3.5753,3.5388,3.5321,3.5321,3.5337,3.5337,3.5314,3.5268,3.5245,3.5222,3.5222,3.5268,3.5268,3.5182,3.5088,3.5034,3.4923,3.4923,3.4923,3.4923,3.4923,3.4947,3.4923,3.4899,3.4947,5.0338,5.089,5.1033,5.1459,5.1929,5.2136,5.174,5.1171,5.102,5.056,5.008,4.9964,4.9964,4.9964,4.9964,4.9964,5.0011,5.0011,4.9964,4.9935,4.9982,4.9964,4.9964,4.9942,4.9545,4.8913,4.8466,4.7757,4.5999,4.5275,4.5183,4.5272,4.5414,4.5414,4.5344,4.5274,4.5327,4.5274,4.5247,4.5167,4.5113,4.5086,4.5059,4.5059,4.5015,4.4646,4.4131,4.3902,4.3413,4.2821,4.2191,4.1637,4.1248,4.0731,4.0358,4.0222,4.0138,4.0113,4.0087,4.0087,4.0113,4.0113,4.0113,4.0113,4.0113,4.0113,4.0113,4.0113,4.0113,4.0113,4.0113,4.0113,4.0113,4.0113,4.0113,4.0113,4.0113,4.0113,4.0113,4.0087,4.0113,4.0087,4.0062,4.0045,3.9919,3.9699,3.91,3.8366,3.7559,3.6892,3.6245,3.5631,3.5389,3.5389,3.5389,3.5429,3.5406,3.536,3.536,3.5367,3.536,3.5337,3.5314,3.5274,3.5268,3.5198,3.5065,3.4954,3.5041,3.5065,3.4994,3.5011,3.5058,3.5081,3.5081,5.0062,5.02,5.0821,5.1166,5.1356,5.1925,5.1787,5.1149,5.1097,5.07,5.0011,5.0011,5.0011,5.0011,5.0011,5.0011,5.0011,5.0011,5.0011,5.0011,5.0011,5.0011,5.0011,5.0011,4.9959,4.9631,4.9137,4.7982,4.6801,4.6371,4.5927,4.5621,4.5466,4.5414,4.5414,4.5414,4.538,4.5397,4.5371,4.5344,4.5344,4.5318,4.5247,4.522,4.515,4.5072,4.482,4.4687,4.438,4.3807,4.3619,4.2885,4.1861,4.1519,4.1041,4.0591,4.0246,4.0113,4.0113,4.0113,4.0113,4.0096,4.0096,4.0096,4.0121,4.0163,4.0163,4.0113,4.0113,4.0096,4.0096,4.0113,4.0113,4.0113,4.0113,4.0113,4.0113,4.0113,4.0113,4.0113,4.0113,4.0113,4.0087,4.0113,4.0062,3.9842,3.9462,3.8744,3.8,3.7266,3.6439,3.5762,3.5481,3.5481,3.5481,3.5503,3.5498,3.5452,3.5475,3.5481,3.5458,3.5429,3.5429,3.5406,3.5423,3.54,3.5274,3.5228,3.5228,3.5198,3.5152,3.5198,3.5261,3.5261,3.5215,5.0011,5.0028,5.0326,5.0735,5.1102,5.1459,5.1395,5.1149,5.1097,5.07,5.0097,5.0011,5.0011,5.0011,5.0011,5.0011,5.0011,5.0011,5.0011,5.0011,5.0011,5.0011,5.0011,5.0011,5.0011,4.9907,4.9614,4.9051,4.7931,4.6965,4.6345,4.6069,4.5638,4.5414,4.5414,4.5414,4.5397,4.5414,4.5414,4.5414,4.5414,4.5397,4.5353,4.5327,4.53,4.5291,4.5238,4.5123,4.4993,4.4565,4.4272,4.3645,4.2834,4.2168,4.1416,4.1169,4.0599,4.033,4.0238,4.018,4.0138,4.0138,4.0171,4.0263,4.0271,4.0296,4.0288,4.0213,4.0213,4.0188,4.0121,4.0096,4.0113,4.0113,4.0113,4.0113,4.0113,4.0113,4.0113,4.0113,4.0113,4.0113,4.0113,4.0113,4.0113,3.9994,3.9774,3.9309,3.8413,3.7483,3.6597,3.5695,3.5594,3.5594,3.5594,3.5594,3.5571,3.5549,3.5549,3.5549,3.5549,3.5526,3.5503,3.5526,3.5526,3.5503,3.5458,3.5389,3.5297,3.5291,3.5308,3.5331,3.5354,3.5331,3.5285,5.0011,5.0011,5.0011,5.0338,5.0838,5.1028,5.0994,5.0838,5.1045,5.0683,5.0149,5.0011,5.0011,5.0011,5.0011,5.0011,5.0011,5.0011,5.0011,5.0011,5.0011,5.0011,5.0011,5.0011,5.0011,5.0011,4.9942,4.9533,4.8861,4.7931,4.7131,4.6603,4.6052,4.5638,4.5449,4.5414,4.5414,4.5414,4.5414,4.5414,4.5414,4.5414,4.5414,4.5414,4.5414,4.5414,4.5397,4.53,4.523,4.5083,4.4704,4.4266,4.3751,4.3057,4.2388,4.1986,4.1388,4.0878,4.0701,4.0517,4.0272,4.0238,4.0271,4.0387,4.0461,4.051,4.0485,4.0379,4.0362,4.0288,4.0238,4.0188,4.0163,4.0146,4.0121,4.0096,4.0113,4.0138,4.0138,4.0113,4.0113,4.0113,4.0113,4.0113,4.0113,4.0113,3.9943,3.974,3.8877,3.7828,3.7026,3.6197,3.6079,3.5977,3.5667,3.565,3.5633,3.5633,3.5633,3.5622,3.56,3.5594,3.5594,3.5616,3.5644,3.5594,3.5549,3.5435,3.5383,3.5412,3.5435,3.5406,3.5406,3.5383,3.5383,5.0011,5.0011,5.0011,5.0045,5.0166,5.0821,5.07,5.0235,5.0792,5.0631,5.0045,5.0011,5.0011,5.0011,5.0011,5.0011,5.0011,5.0011,5.0011,5.0011,5.0011,5.0011,5.0011,5.0011,5.0011,5.0011,5.0011,4.9959,4.9735,4.8993,4.7838,4.6741,4.6621,4.6069,4.5656,4.5483,4.5414,4.5414,4.5414,4.5414,4.5414,4.5414,4.5414,4.5414,4.5414,4.5414,4.5414,4.5371,4.5371,4.5371,4.5189,4.487,4.4389,4.3933,4.3433,4.2951,4.2205,4.1719,4.1447,4.0834,4.0495,4.0461,4.0485,4.0493,4.0566,4.0534,4.051,4.0485,4.0485,4.0461,4.0412,4.0379,4.0288,4.0288,4.0263,4.0196,4.0196,4.0188,4.0188,4.0138,4.0138,4.0188,4.0163,4.0163,4.0113,4.0113,4.0045,3.9842,3.9199,3.8244,3.7601,3.6992,3.6812,3.6468,3.5836,3.5785,3.596,3.5859,3.5774,3.5712,3.5672,3.5667,3.5778,3.5756,3.58,3.5711,3.5616,3.5549,3.5503,3.5554,3.5554,3.5526,3.5503,3.5503,3.5526,5.0011,5.0011,5.0011,5.0011,5.0028,5.0304,5.0269,5.008,5.0304,5.0304,5.0011,5.0011,5.0011,5.0011,5.0011,5.0011,5.0011,5.0011,5.0011,5.0011,5.0011,5.0011,5.0011,5.0011,5.0011,5.0011,5.0011,5.0011,4.9924,4.9597,4.8982,4.8137,4.7579,4.6855,4.6293,4.569,4.5466,4.5414,4.5414,4.5414,4.5414,4.5414,4.5414,4.5414,4.5414,4.5414,4.5414,4.5414,4.5414,4.5414,4.5414,4.5173,4.4923,4.4561,4.4242,4.3862,4.308,4.2504,4.1886,4.117,4.0551,4.0607,4.0607,4.0655,4.0704,4.0728,4.068,4.0655,4.0607,4.0607,4.051,4.0461,4.0412,4.0412,4.0387,4.032,4.032,4.032,4.0296,4.0296,4.0313,4.0337,4.0288,4.0255,4.0163,4.0138,4.0045,3.9901,3.9423,3.8996,3.8472,3.8001,3.7803,3.7494,3.691,3.6604,3.6395,3.6186,3.6017,3.6038,3.6085,3.6045,3.6088,3.6045,3.598,3.5958,3.5871,3.5689,3.56,3.5622,3.5622,3.56,3.5616,3.5616,3.5616,5.0011,5.0011,5.0011,5.0011,5.0011,5.0011,5.0011,5.0011,5.0011,5.0011,5.0011,5.0011,5.0011,5.0011,5.0011,5.0011,5.0011,5.0011,5.0011,5.0011,5.0011,5.0011,5.0011,5.0011,5.0011,5.0011,5.0011,5.0011,5.0011,5.0011,4.9585,4.9068,4.8603,4.7931,4.6914,4.6199,4.5656,4.5449,4.5414,4.5414,4.5414,4.5414,4.5414,4.5414,4.5414,4.5414,4.5414,4.5414,4.5414,4.5414,4.5414,4.5414,4.5207,4.4992,4.4682,4.4397,4.3949,4.3241,4.257,4.1464,4.0741,4.0728,4.0769,4.0817,4.0864,4.0894,4.0823,4.0769,4.0769,4.0721,4.0631,4.0607,4.0558,4.0534,4.0485,4.0419,4.0541,4.0549,4.0517,4.0468,4.0621,4.0879,4.0778,4.0754,4.0683,4.0683,4.0696,4.0634,4.0422,4.0008,3.9675,3.9227,3.8877,3.8523,3.8144,3.7945,3.7644,3.7092,3.6905,3.671,3.6689,3.6644,3.6523,3.6454,3.6392,3.6266,3.6224,3.6203,3.5941,3.5644,3.5622,3.5616,3.5616,3.5616,3.5616,5.0011,5.0011,5.0011,5.0011,5.0011,5.0011,5.0011,5.0011,5.0011,5.0011,5.0011,5.0011,5.0011,5.0011,5.0011,5.0011,5.0011,5.0011,5.0011,5.0011,5.0011,5.0011,5.0011,5.0011,5.0011,5.0011,5.0011,5.0011,5.0011,5.0011,4.9878,4.9861,4.9528,4.8907,4.7734,4.6941,4.6182,4.5518,4.5414,4.5414,4.5414,4.5414,4.5414,4.5414,4.5414,4.5414,4.5414,4.5414,4.5414,4.5414,4.5414,4.5414,4.5345,4.5328,4.5225,4.519,4.4613,4.4259,4.4052,4.2078,4.1233,4.0899,4.0847,4.0888,4.0894,4.0894,4.0894,4.084,4.0918,4.0894,4.0847,4.0799,4.0776,4.068,4.0614,4.0717,4.0819,4.1059,4.1059,4.1059,4.137,4.1621,4.1446,4.1331,4.1281,4.1281,4.1326,4.1278,4.1128,4.0899,4.0508,4.0311,3.9924,3.9735,3.942,3.9242,3.8932,3.8291,3.7865,3.7728,3.7526,3.7411,3.7244,3.7038,3.6841,3.6761,3.6801,3.6841,3.6437,3.6054,3.5711,3.5616,3.5616,3.5616,3.5616,5.008,5.0011,5.0011,5.0011,5.0011,5.0011,5.0011,5.0011,5.0011,5.0011,5.0011,5.0011,5.0011,5.0011,5.008,5.0097,5.0045,5.0011,5.0011,5.0011,5.0011,5.0011,5.0011,5.0011,5.0011,5.0011,5.0011,5.0011,5.0011,5.0011,5.0011,4.9993,4.9907,4.9131,4.7907,4.6975,4.6217,4.5552,4.5414,4.5414,4.5414,4.5414,4.5414,4.5414,4.5414,4.5414,4.5414,4.5414,4.5414,4.5414,4.5414,4.5414,4.5414,4.5414,4.5414,4.5414,4.5027,4.4768,4.4276,4.3,4.1964,4.1378,4.0981,4.0998,4.0912,4.0894,4.0894,4.0971,4.114,4.1117,4.0965,4.1169,4.1151,4.0954,4.0931,4.1151,4.1356,4.167,4.1842,4.1821,4.2015,4.2021,4.1937,4.2024,4.2021,4.1913,4.1934,4.1721,4.1525,4.1411,4.1182,4.1143,4.0968,4.0863,4.0683,4.0506,4.02,3.9648,3.9203,3.8933,3.8677,3.8429,3.8278,3.8193,3.7693,3.7246,3.7208,3.7114,3.686,3.6519,3.6341,3.5912,3.5711,3.5667,3.5616,5.012,5.0011,5.0011,5.0011,5.0011,5.0011,5.0011,5.0011,5.0011,5.0114,5.0355,5.0407,5.0597,5.0688,5.0769,5.0528,5.0442,5.039,5.0097,5.0062,5.0011,5.0011,5.0011,5.0011,5.0011,5.0011,5.0011,5.0011,5.0011,5.0011,5.0011,5.0011,4.9976,4.9286,4.8252,4.7407,4.6655,4.6017,4.5707,4.5414,4.5414,4.5414,4.5414,4.5414,4.5414,4.5414,4.5414,4.5414,4.5414,4.5414,4.5414,4.5414,4.5414,4.5414,4.5414,4.5414,4.5345,4.4992,4.4285,4.3949,4.2913,4.1999,4.1516,4.1309,4.1188,4.1084,4.107,4.1163,4.1418,4.1445,4.1436,4.1648,4.1604,4.1401,4.1468,4.1692,4.1842,4.2157,4.23,4.2338,4.2519,4.2482,4.2464,4.2676,4.2791,4.2656,4.2519,4.2262,4.2018,4.1955,4.1913,4.1937,4.194,4.1843,4.178,4.1703,4.1365,4.0958,4.061,4.0248,4.0003,3.9782,3.9587,3.9319,3.8852,3.8313,3.7685,3.7395,3.7479,3.7445,3.7286,3.6755,3.6022,3.5924,3.6004,5.0138,5.0028,5.0028,5.0045,5.0062,5.0131,5.008,5.0028,5.0062,5.0459,5.1063,5.108,5.1407,5.1964,5.2084,5.1688,5.1205,5.1166,5.0718,5.0304,5.0252,5.0149,5.0028,5.0011,5.0011,5.0011,5.0011,5.0011,5.0011,5.0011,5.0011,5.0011,5.0011,4.951,4.8838,4.8086,4.7276,4.6466,4.5931,4.5621,4.5466,4.5414,4.5414,4.5414,4.5414,4.5414,4.5414,4.5414,4.5414,4.5414,4.5414,4.5414,4.5414,4.5414,4.5414,4.5414,4.5414,4.5096,4.475,4.4558,4.4347,4.3593,4.2794,4.2338,4.2026,4.181,4.1795,4.184,4.2039,4.2051,4.2071,4.2133,4.2157,4.2115,4.2115,4.2218,4.23,4.244,4.2596,4.2788,4.3087,4.3178,4.3178,4.3303,4.3178,4.3142,4.3014,4.2995,4.279,4.277,4.2732,4.2788,4.2789,4.2771,4.27,4.2515,4.2364,4.1888,4.1893,4.1632,4.1397,4.1035,4.0709,4.0364,3.9976,3.9488,3.8938,3.8599,3.8474,3.84,3.8476,3.8013,3.7408,3.6861,3.6753,5.0558,5.0829,5.0247,5.0304,5.0769,5.0787,5.0493,5.0114,5.0528,5.0959,5.1102,5.1653,5.2097,5.217,5.217,5.2114,5.1994,5.1804,5.139,5.1028,5.07,5.0424,5.0154,5.0028,5.0011,5.0011,5.0011,5.0011,5.0011,5.0011,5.0011,5.0011,5.0011,4.9786,4.9413,4.8861,4.7855,4.6941,4.6406,4.5931,4.5552,4.5432,4.5432,4.5414,4.5414,4.5414,4.5414,4.5414,4.5414,4.5414,4.5414,4.5414,4.5414,4.5414,4.5414,4.545,4.5675,4.5865,4.574,4.5939,4.5888,4.547,4.4899,4.412,4.3635,4.3162,4.2941,4.2916,4.3019,4.3133,4.3019,4.2951,4.2971,4.2931,4.3008,4.3126,4.3204,4.3337,4.3432,4.3306,4.361,4.3444,4.3479,4.3462,4.3356,4.3427,4.3445,4.3428,4.3393,4.3304,4.3269,4.3269,4.3232,4.3105,4.3105,4.2959,4.294,4.2867,4.2778,4.2703,4.245,4.2086,4.1793,4.1389,4.0877,4.0567,4.0263,3.9941,3.9582,3.9839,3.9896,3.9361,3.883,3.8278,3.7931,5.1043,5.1234,5.1001,5.1149,5.1511,5.1515,5.1269,5.1011,5.1373,5.1683,5.2063,5.2511,5.2839,5.3136,5.3153,5.3028,5.2701,5.2666,5.2287,5.1649,5.1321,5.089,5.0528,5.0166,5.0011,5.0011,5.0011,5.0011,5.0011,5.0011,5.0011,5.0011,5.0011,5.0011,4.9792,4.9413,4.8717,4.7751,4.6958,4.6406,4.5966,4.5587,4.5432,4.5432,4.5432,4.5414,4.5414,4.5414,4.5397,4.5414,4.5414,4.5414,4.5414,4.5414,4.5615,4.5693,4.5938,4.6266,4.6371,4.6624,4.6822,4.6801,4.6489,4.6012,4.5245,4.468,4.4357,4.4139,4.4333,4.4385,4.4116,4.3882,4.3842,4.3802,4.3956,4.4125,4.4254,4.4364,4.4234,4.3995,4.3791,4.3571,4.3479,4.3497,4.3479,4.3479,4.3462,4.3462,4.3444,4.3392,4.3393,4.3393,4.3357,4.3303,4.3304,4.3304,4.325,4.3214,4.3231,4.3156,4.3194,4.2992,4.2534,4.2114,4.1711,4.1401,4.1091,4.0926,4.0693,4.099,4.1266,4.1089,4.0486,3.9688,3.9443,5.1581,5.1592,5.2054,5.2188,5.2188,5.227,5.2274,5.2321,5.2408,5.2753,5.327,5.3442,5.3804,5.4098,5.4149,5.3908,5.3615,5.346,5.3063,5.2321,5.1908,5.1442,5.089,5.0476,5.0218,5.008,5.0011,5.0011,5.0011,5.0011,5.0011,5.0011,5.0011,5.0011,4.9959,4.9861,4.9373,4.8769,4.7751,4.6948,4.6562,4.6017,4.5483,4.5535,4.5483,4.5414,4.5414,4.5397,4.5423,4.545,4.5414,4.5423,4.5528,4.5563,4.5829,4.6161,4.6411,4.6654,4.6913,4.7138,4.7178,4.7156,4.7026,4.7093,4.6639,4.5979,4.5579,4.5413,4.5524,4.5365,4.5111,4.5003,4.4929,4.491,4.4985,4.5077,4.5114,4.5187,4.5076,4.4727,4.425,4.4011,4.3828,4.3846,4.3497,4.3479,4.3479,4.3479,4.3479,4.3462,4.3462,4.3463,4.3427,4.341,4.3427,4.341,4.3444,4.3444,4.348,4.3444,4.3355,4.328,4.3222,4.2821,4.2438,4.207,4.1794,4.1759,4.1887,4.2109,4.2403,4.2711,4.2194,4.1213,4.1047,5.2735,5.3197,5.3151,5.2787,5.2326,5.2873,5.3132,5.3184,5.3736,5.3718,5.3546,5.396,5.4287,5.4477,5.4512,5.4322,5.4236,5.4046,5.3753,5.3287,5.277,5.2046,5.1321,5.0942,5.0528,5.0131,5.0011,5.0011,5.0011,5.0011,5.0011,5.0011,5.0011,5.0011,5.0011,5.0011,4.9786,4.9476,4.8854,4.8007,4.7575,4.6882,4.631,4.6086,4.5914,4.5553,4.5484,4.545,4.5693,4.5897,4.5554,4.5641,4.598,4.5988,4.6242,4.6678,4.7004,4.7204,4.7421,4.765,4.7793,4.7875,4.7895,4.8014,4.7791,4.7215,4.6832,4.6696,4.6559,4.636,4.6195,4.6104,4.6049,4.6049,4.603,4.603,4.603,4.5938,4.5883,4.5406,4.4856,4.4544,4.4342,4.4011,4.3626,4.3479,4.3479,4.3479,4.3479,4.3479,4.3479,4.3479,4.3479,4.3479,4.3479,4.3479,4.3479,4.3479,4.3479,4.3479,4.3479,4.3406,4.3332,4.3369,4.3149,4.2763,4.2653,4.2947,4.3094,4.3039,4.3039,4.3149,4.3222,4.2486,4.2595,5.3431,5.3818,5.3877,5.3649,5.3373,5.3718,5.3908,5.3977,5.4339,5.4287,5.396,5.4305,5.4512,5.4512,5.4512,5.4512,5.4512,5.4494,5.4236,5.3942,5.3494,5.2908,5.2218,5.1476,5.0976,5.0528,5.0114,5.0011,4.9993,5.0011,5.0011,5.0022,5.0022,5.0022,5.0022,5.0011,5.0022,4.9959,4.9686,4.941,4.8792,4.7971,4.6934,4.6552,4.6234,4.5909,4.5779,4.5778,4.6062,4.6339,4.6242,4.6242,4.6459,4.6489,4.6753,4.7115,4.7442,4.7713,4.7897,4.8113,4.8324,4.8324,4.8324,4.8229,4.821,4.77,4.7682,4.7569,4.7551,4.7369,4.7333,4.7278,4.726,4.726,4.726,4.726,4.7058,4.6838,4.6691,4.6397,4.5828,4.5296,4.5039,4.4599,4.4232,4.3993,4.392,4.3571,4.3534,4.3479,4.3479,4.3479,4.3479,4.3479,4.3479,4.3479,4.3479,4.3479,4.3479,4.3479,4.3479,4.3479,4.3479,4.3461,4.3442,4.3387,4.3406,4.3479,4.3479,4.3314,4.3351,4.3442,4.3479,4.3479,4.3353,5.3922,5.3966,5.4312,5.4494,5.4512,5.4494,5.4477,5.4494,5.4512,5.4512,5.4443,5.4477,5.4512,5.4512,5.4512,5.4512,5.4512,5.4512,5.4443,5.4287,5.3856,5.3391,5.2839,5.2166,5.1563,5.089,5.0338,5.0114,4.9993,5.0092,5.0206,5.012,5.0149,5.0206,5.0138,5.0138,5.0178,5.0274,5.0324,5.0706,5.001,4.9094,4.8055,4.733,4.6828,4.6647,4.6455,4.6368,4.6584,4.6771,4.6936,4.6936,4.6936,4.7004,4.7291,4.7588,4.7715,4.7957,4.8152,4.8248,4.8324,4.8324,4.8324,4.8306,4.8287,4.8268,4.8268,4.825,4.8232,4.8233,4.8177,4.814,4.814,4.814,4.814,4.814,4.7865,4.7627,4.7443,4.7204,4.6709,4.614,4.5755,4.5296,4.4929,4.4673,4.4342,4.392,4.3626,4.3534,4.3479,4.3479,4.3479,4.3479,4.3479,4.3479,4.3479,4.3479,4.3479,4.3479,4.3479,4.3479,4.3479,4.3479,4.3479,4.3479,4.3479,4.3479,4.3479,4.3479,4.3479,4.3479,4.3479,4.3479,4.3479,5.463,5.4367,5.446,5.4512,5.4512,5.4512,5.4512,5.4512,5.4512,5.4512,5.4512,5.4512,5.4512,5.4512,5.4512,5.4512,5.4512,5.4512,5.4512,5.4408,5.4236,5.3891,5.3487,5.2961,5.2196,5.1393,5.0605,5.0155,5.0235,5.0481,5.0657,5.064,5.1105,5.1026,5.0657,5.0657,5.0657,5.0739,5.0857,5.1105,5.1203,5.0429,4.9764,4.8998,4.8243,4.7668,4.7199,4.6885,4.707,4.7313,4.7482,4.7464,4.7464,4.7485,4.7713,4.7915,4.8055,4.8132,4.8267,4.8324,4.8324,4.8324,4.8324,4.8324,4.8306,4.8287,4.8287,4.8306,4.8288,4.8288,4.8251,4.8269,4.8269,4.8269,4.8269,4.8269,4.8122,4.8067,4.7994,4.7718,4.737,4.7021,4.6782,4.6287,4.5736,4.5424,4.4966,4.4599,4.4397,4.4011,4.3589,4.3571,4.3608,4.3479,4.3479,4.3479,4.3479,4.3479,4.3479,4.3479,4.3479,4.3479,4.3479,4.3479,4.3479,4.3479,4.3479,4.3479,4.3479,4.3479,4.3479,4.3479,4.3479,4.3479,4.3479]}]]